GFSCGP_sfc_temp_000.txt.gz
Temp
95 90 86 90 92 93 91 87 85 88 92 88 86 85 86 90 90 90 91 89 91 91 94 94 93 93 93 92 90 89 87 87 87 85 83 85 84 86 86 89 89 88 87 86
89 84 93 95 92 90 89 86 85 86 88 89 85 83 87 89 89 90 90 89 90 92 92 92 92 93 93 91 90 88 87 87 87 88 86 85 85 90 90 87 86 87 87 86
86 90 94 90 89 87 88 86 86 84 85 89 84 80 81 87 89 90 91 93 92 91 91 92 92 92 94 91 89 88 87 87 86 87 89 88 89 89 90 91 90 90 86 85
90 93 89 89 88 90 84 91 89 86 80 76 86 74 79 84 83 86 89 90 92 91 92 94 94 92 93 91 91 88 87 86 86 86 87 83 85 84 86 86 87 85 86 84
86 88 87 86 89 92 84 89 87 86 82 81 79 77 83 85 81 85 89 91 92 93 93 94 95 93 93 91 90 89 87 85 86 85 85 86 84 87 86 85 82 81 83 83
91 97 95 93 92 92 89 86 84 86 84 72 81 78 80 84 83 88 90 92 91 93 94 94 95 93 90 92 90 89 86 84 85 85 84 82 81 81 82 82 81 84 85 85
87 88 93 95 86 89 90 85 73 70 70 70 80 77 80 89 87 91 91 91 92 92 92 92 91 88 88 88 88 88 85 82 84 85 84 83 81 80 79 79 83 79 83 84
80 75 88 94 91 85 86 86 77 62 68 74 76 72 81 88 91 94 94 95 94 91 92 91 89 88 88 88 87 86 84 83 84 84 82 81 81 85 84 83 81 83 82 83
81 81 93 94 94 93 85 80 90 76 79 73 79 80 86 89 88 88 89 91 92 90 91 91 90 90 88 88 86 85 84 83 83 84 82 81 81 80 81 80 80 84 80 83
88 78 90 89 92 88 89 93 78 81 65 63 73 74 80 82 86 88 87 88 91 90 91 92 91 89 89 89 88 87 85 83 84 84 83 84 82 81 81 80 79 79 80 80
93 85 82 87 84 85 83 83 84 85 79 69 68 76 88 86 88 88 89 89 90 90 91 92 92 90 89 90 88 87 85 84 83 84 83 82 82 82 81 80 81 80 80 79
92 87 79 82 89 90 92 87 86 76 70 77 74 75 92 91 91 91 91 91 92 91 92 92 92 90 88 88 88 88 87 86 86 85 83 82 81 81 80 80 81 81 79 80
91 83 75 77 84 85 84 87 89 88 86 73 71 76 89 89 88 90 91 92 90 90 90 90 90 88 87 87 87 88 88 89 89 85 84 82 80 80 79 79 80 81 80 79
84 86 79 76 78 86 80 84 86 86 77 77 77 79 86 87 86 89 89 89 90 88 88 88 88 88 87 87 85 85 86 89 88 86 84 81 80 80 80 80 80 80 80 79
89 77 83 86 88 88 85 84 83 81 83 77 80 79 84 86 86 88 90 90 87 85 86 86 87 87 86 85 85 85 86 86 85 83 82 81 81 81 80 79 79 80 80 80
86 78 82 80 85 85 82 85 85 84 84 81 81 79 89 89 90 88 89 89 86 85 84 86 86 86 85 85 84 85 85 85 84 81 81 82 81 80 80 80 79 79 79 79
82 80 76 74 81 80 74 81 83 84 84 83 76 83 87 85 86 86 86 87 86 86 86 85 86 86 85 86 86 85 85 86 83 81 81 81 81 80 80 80 79 78 78 79
80 78 80 76 75 62 81 88 88 84 85 86 84 85 86 86 87 86 87 85 86 87 86 86 89 88 86 90 90 87 87 83 81 80 81 81 81 80 80 79 78 78 79 77
82 80 76 71 71 77 76 79 80 80 79 86 84 86 88 88 86 86 86 86 86 87 88 89 91 89 89 89 89 86 84 83 82 81 81 82 82 80 79 78 78 78 77 77
80 79 77 74 67 64 80 88 90 86 72 88 86 85 86 86 79 84 85 86 86 88 90 88 88 91 90 88 91 85 83 82 81 82 82 83 83 81 79 79 78 78 78 78
73 74 71 72 69 76 83 85 88 69 74 87 88 88 87 83 87 84 87 86 87 88 87 88 89 89 88 88 87 84 83 81 84 85 85 84 82 80 79 79 78 77 76 77
72 71 72 73 68 64 84 82 76 78 86 86 88 88 87 88 87 87 86 86 86 86 87 88 88 88 89 87 84 81 80 83 84 84 83 81 77 80 84 77 77 77 74 70
70 75 73 75 74 77 83 80 84 84 80 82 83 85 88 87 88 88 86 86 87 87 88 90 88 86 85 84 81 79 80 82 83 80 77 73 73 80 80 76 74 76 74 75
73 75 75 72 76 77 80 84 84 84 82 83 85 85 86 85 87 86 85 85 85 86 85 86 84 82 81 82 80 79 81 79 77 77 74 73 77 77 77 77 80 79 77 71
77 74 73 74 75 77 81 79 79 81 83 82 84 85 85 86 85 84 82 82 83 83 83 82 82 82 81 80 78 79 78 77 77 77 75 77 80 77 77 73 72 76 61 64
80 74 72 71 71 72 74 77 80 79 81 83 82 83 86 86 84 83 82 83 82 81 80 80 79 79 77 77 76 76 77 77 77 76 78 79 79 79 79 78 70 47 48 45

GFSCGP_sfc_temp_003.txt.gz
Temp
97 92 88 93 95 96 94 90 88 92 96 93 90 87 89 94 95 93 94 92 93 94 97 97 97 97 97 96 94 92 90 88 88 85 84 84 85 85 88 84 88 87 86 86
92 87 96 99 97 94 91 89 88 93 95 92 89 88 91 93 93 94 94 93 94 95 95 95 95 96 96 94 93 92 91 88 89 90 86 85 87 92 93 92 90 90 90 86
89 92 98 96 93 90 90 88 89 88 92 94 86 85 87 92 94 95 97 97 97 95 95 95 94 95 97 94 92 91 90 90 89 88 89 89 90 88 91 93 92 91 89 89
92 98 94 93 90 92 85 94 93 90 86 79 91 75 82 88 89 92 94 96 97 97 98 98 97 95 97 95 95 92 91 90 90 89 90 86 85 86 88 88 90 87 87 87
88 93 91 89 91 95 88 96 91 90 87 85 82 80 80 81 84 89 93 95 97 98 98 98 99 97 98 96 95 93 90 89 89 88 87 88 87 89 90 88 84 83 84 86
94 101 97 95 98 97 96 91 90 90 87 75 82 76 82 79 85 90 93 96 97 98 98 99 100 98 97 96 94 92 88 86 87 88 87 85 84 83 84 84 83 86 87 88
90 92 98 100 93 96 93 87 75 72 73 73 86 82 83 92 95 95 95 95 98 99 98 97 97 95 93 92 92 91 86 84 86 87 87 86 84 83 81 82 85 81 86 86
82 78 92 97 93 88 88 88 78 64 70 76 84 74 83 95 98 98 99 100 99 97 98 97 96 94 92 92 90 90 86 84 86 86 85 84 84 86 86 86 83 84 84 85
83 83 97 97 99 96 87 82 94 83 83 77 81 85 92 93 93 94 96 98 98 97 97 97 97 95 92 91 89 88 86 85 86 87 84 84 83 82 82 82 82 85 83 86
93 81 94 96 99 98 92 95 81 83 67 66 77 77 80 85 89 93 94 95 97 99 97 97 97 94 93 93 91 90 88 85 86 87 86 87 85 84 83 82 81 81 81 82
96 90 87 93 88 87 88 85 87 88 81 72 71 77 91 88 91 91 94 95 97 98 96 96 96 95 93 93 92 90 89 87 86 86 86 85 84 85 84 82 82 82 82 81
95 90 81 86 95 97 95 88 88 77 73 80 78 78 95 94 95 95 94 96 97 98 96 96 97 95 93 91 92 91 91 89 88 89 86 85 84 83 83 82 82 82 81 82
95 86 77 80 89 93 88 91 92 91 88 74 73 77 93 94 93 94 94 97 96 95 95 95 97 94 92 91 90 91 92 92 92 89 87 85 83 82 81 81 82 82 81 81
90 88 81 77 81 88 82 86 90 89 79 80 79 81 87 90 90 92 94 95 96 95 94 94 94 94 92 90 89 89 90 93 93 91 88 85 83 82 82 82 82 82 82 81
93 80 85 87 90 90 88 86 87 84 85 79 82 79 87 90 90 91 93 94 94 93 94 93 93 93 90 89 88 88 89 89 91 88 86 84 84 83 82 81 81 82 82 81
92 80 84 82 89 89 86 89 89 88 88 86 87 84 93 94 94 92 92 93 92 93 93 93 93 92 90 88 87 87 87 88 88 85 84 84 84 83 82 82 82 82 81 81
85 84 80 75 86 86 79 85 87 88 91 88 81 87 91 89 89 90 90 91 91 93 93 92 92 91 89 89 88 87 87 88 86 84 84 84 83 82 82 82 82 80 80 81
84 81 82 77 80 66 85 94 92 89 90 91 90 90 90 90 92 93 93 91 91 93 94 93 93 92 92 92 91 90 90 87 85 83 83 83 83 82 82 82 80 80 80 79
89 82 78 72 73 79 83 86 87 85 84 91 88 90 90 93 92 90 95 94 92 92 94 95 95 95 92 91 91 89 88 87 85 83 82 83 83 82 82 81 80 80 80 79
88 84 78 76 68 64 78 87 93 92 76 92 92 89 88 91 82 84 91 93 92 93 94 93 94 94 91 91 93 89 87 86 84 84 84 85 84 83 82 81 80 81 80 79
76 76 74 74 71 76 88 90 91 71 74 90 91 90 89 86 89 90 93 92 93 93 93 93 93 90 90 91 92 88 87 85 86 87 87 85 84 83 82 81 68 70 78 78
73 73 73 75 70 65 90 90 79 80 88 89 90 90 89 91 93 94 93 91 92 91 91 92 90 90 91 91 89 86 85 87 87 86 85 85 83 84 85 78 77 79 77 75
73 77 73 73 67 81 89 83 88 88 85 86 86 89 90 90 91 94 93 91 92 91 91 93 91 89 90 90 88 84 84 85 84 84 83 83 82 82 81 79 76 78 76 73
77 82 79 77 80 82 83 88 87 88 86 88 90 90 90 88 91 92 92 91 91 91 91 92 90 89 87 88 86 83 83 84 83 82 81 80 79 77 80 76 82 78 75 68
80 81 78 78 81 81 83 82 84 85 87 88 90 90 89 90 90 91 89 88 88 88 89 88 86 85 84 84 83 84 83 82 79 80 80 79 81 79 77 77 73 75 64 63
85 79 76 74 75 75 76 81 85 84 84 87 87 88 90 91 90 90 86 86 86 83 84 79 79 84 81 81 80 80 81 80 79 79 80 81 82 82 82 70 71 47 48 44

GFSCGP_sfc_temp_006.txt.gz
Temp
95 87 84 91 93 94 93 89 84 89 90 86 85 84 88 93 93 90 91 90 91 92 94 95 94 93 93 92 88 84 83 88 87 83 82 82 82 82 84 85 86 85 85 83
89 84 94 98 96 94 93 89 87 92 95 91 83 82 89 92 92 92 91 90 92 93 92 93 93 95 94 91 88 88 86 85 85 82 84 84 82 82 82 84 84 85 84 82
85 90 97 96 93 90 90 87 88 88 92 93 89 80 74 89 94 94 95 94 94 93 91 91 91 92 94 91 89 88 86 85 86 86 84 81 83 84 83 84 80 82 84 84
90 97 94 92 91 92 84 94 92 91 86 77 89 72 74 83 88 91 93 94 95 94 94 93 92 92 93 91 91 87 88 87 86 87 86 82 81 78 82 83 81 81 84 83
87 91 91 88 91 95 87 96 92 91 86 84 84 76 76 86 83 87 92 94 96 96 96 94 94 93 94 93 92 89 87 86 85 84 85 82 81 80 81 81 81 81 79 81
92 100 97 94 97 96 97 92 91 90 86 74 81 80 73 75 83 87 91 95 96 97 97 97 96 95 94 94 92 89 85 83 84 84 84 83 83 81 79 78 78 79 80 81
89 91 98 99 91 96 94 86 73 70 71 70 85 80 80 87 91 90 77 76 97 98 98 96 94 93 91 90 90 87 83 81 82 83 83 84 83 82 81 79 79 79 78 80
79 77 91 97 93 89 88 86 75 63 68 74 85 74 80 94 96 94 94 93 98 97 97 95 94 92 90 90 88 85 82 80 82 83 82 82 83 81 80 80 79 78 78 79
80 80 96 97 98 96 87 81 92 80 83 76 80 84 91 94 94 95 96 98 95 96 98 97 97 91 90 89 86 84 81 80 81 82 80 81 81 81 80 81 81 79 81 80
89 79 93 96 98 97 91 94 79 81 66 65 76 78 78 83 87 92 93 95 97 97 97 98 97 91 90 90 88 85 83 81 81 82 81 81 80 81 81 81 79 79 79 80
94 88 86 93 87 86 88 85 86 86 81 70 68 70 87 86 90 91 94 96 97 98 95 97 97 91 90 91 88 86 84 82 82 82 82 82 82 82 80 80 79 80 80 80
95 90 80 85 95 97 94 87 86 75 72 78 76 75 94 93 93 94 94 96 97 98 97 97 97 93 90 89 89 87 86 85 84 83 82 81 81 81 81 80 80 81 79 79
93 85 76 79 89 93 87 90 90 88 86 74 72 73 92 94 93 94 94 95 94 94 96 94 95 92 89 89 87 86 87 88 87 84 81 81 80 79 79 79 80 80 79 78
91 88 80 75 80 87 82 86 89 87 76 77 78 78 85 89 90 90 93 94 94 93 93 93 92 92 90 88 85 85 87 89 88 85 82 79 78 78 79 79 79 79 78 77
93 80 84 86 88 89 87 86 87 83 84 76 79 77 79 80 89 90 92 93 93 93 93 91 92 91 88 86 85 85 85 86 87 82 82 80 80 79 79 78 79 79 78 78
92 79 83 80 87 88 84 88 88 87 87 86 86 83 85 91 91 91 91 92 91 92 93 93 91 90 88 86 85 82 84 85 84 78 80 81 80 79 78 78 78 78 78 78
85 82 77 73 83 83 77 85 87 88 89 87 78 86 89 86 89 89 90 91 90 91 92 91 92 85 87 86 85 80 84 83 81 78 80 80 80 79 78 79 78 78 78 77
82 78 80 75 78 65 83 94 94 90 90 92 87 88 85 89 91 93 94 92 91 92 92 92 95 93 89 90 88 85 84 82 80 79 79 80 79 78 78 77 77 77 77 75
67 75 73 71 72 78 83 87 83 76 80 93 91 90 90 92 92 88 93 95 93 93 93 92 96 95 90 88 86 84 82 82 81 79 79 79 80 78 78 77 76 76 74 75
80 73 67 73 67 64 80 89 90 84 71 84 85 85 87 89 80 81 89 93 93 94 94 93 95 94 90 88 88 83 82 80 79 80 80 80 80 78 78 76 75 75 77 74
77 76 72 72 69 76 88 88 87 62 62 77 85 84 84 82 86 89 92 92 93 93 93 93 93 90 86 87 85 80 81 80 82 83 82 80 80 79 79 78 75 73 72 71
73 70 71 73 69 66 90 81 75 79 84 87 88 86 87 89 91 91 93 90 91 91 92 92 89 85 86 85 83 80 79 82 83 83 82 81 79 79 78 77 74 70 71 69
73 67 62 67 62 68 86 83 85 87 84 85 85 88 88 88 89 90 89 90 90 90 90 91 87 85 85 84 85 83 83 85 85 84 82 81 82 80 80 76 72 73 68 67
71 75 73 64 59 59 79 82 84 86 84 87 89 89 89 87 89 89 89 89 89 83 88 88 86 84 83 83 82 81 81 82 82 80 80 80 77 77 76 74 75 65 68 67
66 59 60 71 60 75 77 81 84 85 87 87 89 89 88 88 87 88 87 88 81 84 79 75 74 71 66 67 68 71 75 75 77 78 79 76 76 75 76 59 57 68 57 58
82 69 69 65 72 74 74 81 84 83 83 85 85 86 89 89 87 88 85 79 81 78 78 75 73 70 65 66 69 73 74 76 76 76 78 78 76 69 73 66 63 46 46 43

GFSCGP_sfc_temp_012.txt.gz
Temp
75 68 64 70 72 74 72 72 70 77 81 74 72 71 76 79 79 78 79 79 79 79 82 83 84 84 82 81 77 77 76 75 74 73 72 71 71 72 73 74 76 75 75 76
69 64 75 79 78 76 73 72 72 75 81 75 71 71 77 79 79 79 79 79 80 79 78 80 80 81 80 78 77 76 76 74 75 73 72 73 72 72 73 74 75 75 77 76
65 72 82 80 76 74 72 72 74 71 77 76 73 65 67 76 81 80 82 82 81 78 78 79 79 79 79 77 76 75 75 75 74 74 73 73 72 72 70 71 72 77 78 76
69 80 79 76 75 75 64 79 82 76 73 61 72 55 62 72 74 76 78 79 80 79 80 80 80 78 79 79 77 76 74 74 75 74 73 72 69 68 67 69 69 71 73 73
69 75 76 74 77 80 74 81 79 77 72 64 64 56 68 65 68 72 75 80 81 80 80 79 80 81 81 81 79 77 74 74 74 74 73 70 67 66 66 66 67 67 68 70
74 82 79 79 84 82 85 76 69 65 60 52 63 63 56 61 70 73 75 81 82 81 81 82 83 82 81 82 81 78 74 73 73 71 70 69 67 65 65 64 65 65 65 67
71 77 81 85 73 78 75 61 53 52 50 51 58 62 67 69 77 77 76 80 83 83 81 81 81 79 79 80 79 78 76 72 71 71 69 68 67 66 66 65 64 64 65 65
58 62 76 81 77 72 68 64 52 48 48 55 63 57 68 76 81 80 84 84 84 82 83 81 82 81 80 81 79 78 75 74 72 71 69 68 68 67 66 67 65 64 64 66
56 61 78 81 84 78 70 61 68 57 51 54 58 66 72 76 77 81 78 83 81 82 83 82 83 83 81 80 79 79 76 75 73 70 67 67 67 67 67 67 67 66 66 68
65 58 72 81 79 79 76 73 60 54 49 46 54 58 60 66 72 77 78 79 80 83 82 83 83 83 81 82 81 79 77 75 71 68 68 69 68 67 67 67 67 66 66 67
71 61 68 70 68 71 67 63 60 61 54 51 48 55 67 68 74 75 78 81 77 79 83 83 82 83 82 82 81 78 77 74 69 69 68 68 68 68 67 66 67 67 66 67
70 61 62 68 76 81 72 68 63 56 54 53 53 56 73 74 76 79 77 79 75 77 79 84 83 83 81 80 78 77 76 74 71 71 70 69 68 68 67 66 67 67 66 66
74 58 58 60 65 69 71 70 63 59 55 54 53 56 71 73 74 76 75 75 74 75 75 79 82 82 80 79 77 76 76 74 72 70 71 68 68 68 66 66 67 67 67 67
76 58 61 60 60 66 65 72 69 63 54 54 57 60 66 70 72 72 74 75 74 76 77 77 78 79 79 79 77 76 76 75 73 72 71 69 70 70 68 67 67 67 67 66
74 60 60 64 75 74 75 76 70 63 63 63 63 64 65 69 73 75 76 76 76 75 74 76 78 76 77 78 77 76 76 74 73 71 71 69 71 71 68 68 70 67 66 66
65 61 63 68 75 75 74 76 77 74 72 68 67 65 70 76 72 73 78 76 76 75 76 74 74 77 79 79 77 76 76 73 71 71 71 69 69 71 69 70 69 66 66 65
65 63 57 59 67 69 64 69 71 75 72 73 64 69 70 68 73 71 73 75 76 77 78 75 74 77 80 81 79 74 72 70 70 71 71 68 68 70 69 70 68 67 65 65
57 59 56 58 58 53 65 76 78 71 70 69 70 71 75 74 74 72 72 73 76 78 79 77 74 71 79 82 77 74 69 70 69 67 68 69 71 70 71 71 68 67 65 65
61 56 50 52 55 59 66 68 70 69 65 70 67 70 72 72 72 69 73 74 76 76 75 76 75 74 71 80 76 73 68 69 68 67 67 68 71 71 70 68 66 66 64 63
63 59 56 50 53 49 56 67 72 72 57 71 70 69 70 69 60 63 70 75 76 77 77 79 75 73 70 70 74 72 68 66 66 66 68 71 73 72 69 67 66 65 65 66
51 50 49 47 47 52 61 66 72 54 56 68 72 71 68 67 67 71 73 75 76 78 79 76 73 71 68 73 74 67 66 65 66 67 69 70 70 70 71 69 65 66 63 60
48 49 47 48 48 47 66 65 58 60 64 70 70 68 67 68 73 72 74 74 72 78 75 76 66 65 67 68 67 63 61 64 65 66 68 69 69 72 72 67 65 62 61 61
50 52 50 49 48 57 59 59 60 60 63 68 69 69 70 70 69 72 70 68 71 70 69 67 62 62 65 64 63 60 59 62 62 61 60 61 62 63 65 65 63 61 61 59
57 57 52 54 56 57 61 64 65 66 64 67 68 68 69 67 70 71 72 68 67 63 61 62 62 62 61 62 62 60 61 62 62 62 62 61 62 61 62 63 62 61 60 59
55 56 53 53 56 59 64 64 65 69 69 69 69 70 70 70 70 69 67 64 62 63 63 62 62 61 59 61 61 61 62 61 61 61 62 61 61 63 59 56 55 56 50 52
55 54 50 48 56 56 57 61 66 67 67 70 68 72 72 72 71 68 67 63 63 62 61 60 60 60 60 61 60 61 61 61 61 60 60 60 61 59 56 51 48 45 45 43

GFSCGP_sfc_temp_018.txt.gz
Temp
67 62 58 64 68 69 67 65 66 68 72 67 64 64 68 72 73 71 72 72 73 75 78 79 79 79 78 77 75 75 74 73 72 72 72 72 72 73 73 74 75 75 75 75
61 59 67 72 71 69 68 64 65 67 72 68 63 63 69 72 72 73 73 73 74 75 73 75 77 77 77 75 75 74 74 72 74 72 72 73 72 72 74 74 74 75 75 75
58 65 73 72 67 67 64 67 64 68 68 68 65 60 63 69 73 74 75 76 77 76 72 73 74 75 77 75 74 74 74 74 74 73 72 72 72 72 71 71 73 74 75 75
63 72 72 68 67 68 59 70 72 67 65 57 66 51 58 66 68 71 73 75 76 77 77 75 76 75 76 76 76 75 74 74 74 73 72 71 70 70 70 70 70 72 73 73
62 65 68 66 70 72 68 72 69 69 63 58 57 54 59 64 63 68 73 75 77 78 79 76 76 77 78 79 76 75 73 73 74 73 74 72 70 70 68 68 68 69 69 70
68 72 72 72 74 76 74 68 61 57 56 48 57 59 55 56 66 71 74 77 78 79 79 79 79 79 78 79 77 76 73 73 73 73 72 72 70 67 66 66 66 66 66 68
61 67 70 74 67 67 66 58 49 46 46 46 56 54 64 66 70 75 75 76 79 80 80 78 76 77 76 76 76 76 73 73 73 72 72 72 71 67 67 66 65 65 65 66
52 54 67 71 68 63 61 60 49 44 43 49 53 52 63 76 78 77 79 78 79 78 80 79 77 77 77 77 76 75 74 73 72 72 72 70 69 68 67 66 65 66 67 68
51 53 67 73 73 73 60 56 61 50 44 47 50 58 69 71 73 73 75 74 75 78 79 79 79 79 78 77 76 75 74 74 72 72 71 68 68 66 66 66 66 66 66 68
59 50 63 69 72 68 67 65 56 48 43 40 48 51 56 62 68 72 70 74 76 77 78 79 79 79 79 80 79 77 76 74 73 72 70 70 68 68 66 65 65 65 66 67
58 54 57 63 62 64 60 56 52 53 48 46 44 50 61 66 69 71 73 75 76 76 77 79 78 80 80 80 80 78 76 75 72 70 69 69 68 68 67 67 67 66 66 67
62 58 55 59 64 68 67 61 60 56 47 46 48 53 69 69 71 69 69 74 74 76 78 78 79 79 78 78 79 79 78 76 74 72 69 68 68 68 66 66 67 67 67 67
61 51 52 52 57 58 59 60 55 52 50 46 50 54 66 65 67 68 69 69 70 72 72 75 76 77 77 77 78 78 78 78 75 72 69 67 66 66 66 66 66 66 66 66
68 52 56 56 57 61 57 62 59 58 48 50 51 60 64 68 68 68 68 69 70 72 72 71 72 75 77 76 76 77 77 78 75 72 70 67 66 65 65 66 66 67 66 66
62 55 55 66 64 63 64 64 60 57 57 57 61 59 68 68 68 68 71 69 68 69 70 71 74 74 74 73 73 75 76 75 74 71 69 68 66 67 66 66 66 67 66 67
57 55 55 62 66 65 65 66 63 63 61 59 59 59 66 68 67 67 69 69 69 70 71 73 72 73 71 73 72 74 75 74 72 70 68 67 67 66 66 65 65 66 68 67
53 54 48 56 57 58 53 66 65 63 64 65 58 70 66 65 67 68 66 70 72 73 72 69 71 71 69 71 71 71 72 72 70 70 67 66 66 65 65 65 65 66 67 69
53 52 49 51 50 43 62 64 72 70 66 65 65 66 66 69 72 70 67 69 71 69 68 68 68 68 69 71 72 72 71 70 69 68 66 66 65 65 66 66 65 67 68 68
50 49 48 51 45 53 58 59 61 63 61 64 61 66 68 68 69 67 70 70 70 71 70 70 70 71 69 70 70 70 68 69 68 67 66 66 66 66 66 66 65 66 66 66
56 50 48 43 46 46 53 59 64 61 54 63 62 63 65 67 62 61 67 71 71 71 70 70 70 70 70 69 70 68 66 67 67 67 67 68 68 67 66 66 66 66 66 66
47 47 47 44 45 49 56 59 63 56 56 59 60 62 64 61 61 65 69 68 69 70 71 70 70 70 70 69 67 65 65 66 68 68 68 68 68 67 67 65 65 65 64 64
48 46 45 44 45 45 59 59 56 57 61 63 63 61 60 62 65 66 66 66 67 67 67 67 66 65 66 67 67 64 64 64 66 67 66 66 66 66 66 65 64 64 63 62
49 50 47 48 46 53 55 53 57 59 58 62 64 64 65 65 63 64 63 65 65 65 64 64 64 63 63 65 65 63 63 64 64 64 64 65 66 66 66 65 62 61 60 61
54 54 49 51 55 55 57 59 59 60 59 61 62 62 63 62 64 64 64 63 63 63 63 63 62 60 60 61 63 62 63 64 64 63 62 63 63 62 63 62 61 60 60 61
52 55 52 50 55 56 59 59 59 61 62 63 63 63 61 61 61 62 64 64 64 62 62 63 61 61 60 61 61 63 63 64 63 63 62 61 61 60 55 51 53 59 55 57
49 50 50 49 55 54 57 59 62 61 61 63 63 62 63 63 61 63 63 63 63 62 61 61 60 61 60 61 61 61 62 63 62 60 60 60 60 59 57 54 50 45 44 44

GFSCGP_sfc_temp_021.txt.gz
Temp
80 77 73 79 82 85 82 79 77 77 81 77 76 76 77 79 80 80 80 80 81 82 86 87 87 87 86 85 84 83 82 83 83 82 82 83 83 85 84 86 84 84 84 84
74 71 80 83 83 80 79 78 78 78 79 79 76 75 80 79 78 81 80 80 81 83 84 84 85 86 86 84 83 82 82 83 82 84 83 85 84 85 85 86 84 84 85 84
73 77 80 78 78 77 77 77 76 77 78 79 77 74 76 78 80 81 83 84 84 83 83 84 84 85 85 83 82 82 82 83 82 83 83 82 82 82 82 83 84 84 84 84
75 81 77 76 77 80 74 80 80 78 74 69 78 66 74 78 76 78 81 83 84 84 86 87 85 85 85 85 85 84 83 82 83 82 82 80 82 82 84 84 84 84 83 83
73 74 74 75 77 80 79 82 80 80 76 74 70 68 77 74 73 77 81 83 85 87 87 87 87 87 87 86 86 85 83 82 83 82 82 82 81 84 84 82 80 80 80 82
78 81 82 80 83 82 81 78 74 75 76 62 72 70 74 74 75 80 84 84 86 87 88 89 89 89 87 87 86 85 82 81 82 81 81 80 81 81 81 80 80 80 81 81
74 76 81 83 78 82 81 76 64 61 60 62 75 68 74 84 85 86 87 85 86 88 88 88 87 86 85 85 85 85 82 80 81 81 81 80 80 80 79 79 80 79 80 80
64 62 75 82 81 76 76 78 67 55 58 64 67 63 73 85 90 88 89 91 89 88 88 88 87 86 85 85 84 83 81 80 81 81 81 81 81 82 78 80 82 80 82 82
64 65 77 81 83 83 75 69 84 71 65 66 71 71 78 83 84 87 89 88 87 88 88 88 89 87 87 85 83 83 82 81 82 82 81 80 81 80 80 79 76 80 78 81
71 63 77 80 84 81 79 83 69 70 59 56 65 66 73 78 82 86 87 87 88 89 89 89 90 88 88 87 86 85 83 81 82 82 82 82 80 79 80 77 72 76 78 78
78 72 69 75 74 75 73 72 72 77 71 64 61 68 81 83 86 89 91 90 90 90 88 89 89 89 88 88 87 86 84 83 83 82 82 81 80 78 73 77 71 71 73 74
76 74 66 71 81 81 83 77 76 69 62 67 69 71 85 85 90 90 88 91 89 89 89 89 89 88 88 87 88 86 87 86 85 84 82 79 76 71 76 77 75 71 71 72
73 69 61 65 74 76 73 77 80 79 78 66 65 70 83 82 82 84 84 89 85 83 85 86 88 86 86 86 85 87 87 88 88 85 82 78 71 75 72 71 71 70 71 70
75 70 66 63 67 75 70 72 75 76 69 70 69 74 81 84 82 84 83 84 85 82 83 83 85 85 85 85 84 85 86 89 88 86 81 76 73 73 74 72 69 67 67 68
73 63 67 72 76 76 74 74 74 71 74 70 75 71 81 85 86 86 89 87 81 80 82 82 83 84 83 83 83 84 85 86 87 82 80 77 73 74 73 72 70 67 67 71
69 65 66 66 74 74 72 76 77 75 76 74 78 75 85 88 85 82 84 85 82 81 82 83 83 83 82 82 82 83 83 84 84 80 78 76 73 73 73 73 72 70 67 68
67 67 63 61 71 70 64 73 75 76 78 75 71 78 86 80 80 82 83 84 83 83 84 83 83 82 82 83 83 82 82 83 80 79 77 73 73 73 73 74 71 71 69 70
64 63 64 63 64 52 72 82 82 78 79 80 82 81 82 84 86 85 85 85 84 86 86 85 85 85 84 86 85 83 83 80 78 77 75 74 73 73 74 73 71 71 71 71
68 63 60 60 61 67 68 71 74 74 74 80 78 81 81 81 81 81 80 83 84 83 82 83 87 86 83 84 83 81 80 79 78 76 74 74 74 73 72 71 71 72 70 72
62 63 64 57 56 55 69 66 69 70 67 75 73 76 77 78 76 82 78 82 83 85 83 82 83 84 84 82 83 80 78 77 76 76 75 75 74 73 72 72 71 72 71 71
60 56 56 53 55 64 63 65 69 62 69 69 71 75 75 75 74 74 78 79 82 81 80 82 83 82 80 81 80 78 77 76 78 78 76 74 74 73 73 71 71 70 70 72
58 55 51 55 52 55 65 67 63 66 69 72 73 73 71 73 74 76 76 76 77 78 80 81 77 76 77 78 79 76 76 77 76 73 73 72 72 73 73 71 71 71 70 70
57 61 50 51 56 63 65 64 67 70 69 71 73 76 76 75 75 76 75 75 76 75 76 79 78 75 75 76 76 74 68 71 73 74 72 70 71 71 71 69 70 69 69 70
59 62 54 57 60 62 65 68 70 71 69 71 73 73 76 71 76 75 75 74 74 74 74 77 77 75 72 73 70 72 72 73 73 72 71 72 71 70 70 71 73 71 71 70
54 60 56 54 54 61 64 66 68 69 70 70 71 72 73 72 69 70 71 72 73 73 71 71 71 71 68 70 70 71 70 69 72 72 72 71 70 69 64 60 61 69 67 64
51 51 56 53 58 58 61 63 66 65 65 67 69 69 72 73 71 72 70 71 72 71 70 71 70 71 68 67 69 70 70 70 71 70 71 71 71 69 65 63 60 45 45 44

GFSCGP_sfc_temp_024.txt.gz
Temp
90 84 80 87 90 91 90 87 85 90 91 86 86 85 89 90 91 90 91 89 90 91 94 95 94 95 94 93 91 89 88 88 89 89 89 90 89 86 90 93 90 90 89 89
84 79 89 93 92 90 89 86 86 90 89 87 87 85 89 91 89 90 91 91 90 92 93 93 93 94 94 92 90 88 87 87 87 90 89 91 91 94 94 93 92 90 90 89
80 86 92 89 88 85 87 85 86 85 86 89 87 83 86 91 92 91 93 94 94 92 93 93 92 93 94 92 90 89 87 87 87 88 90 89 90 89 90 91 91 92 90 90
84 91 87 84 84 88 81 91 89 87 83 76 87 74 85 90 88 89 91 93 95 94 95 96 94 93 94 93 93 90 88 87 88 88 89 86 88 88 92 92 93 92 90 90
80 83 81 80 84 90 85 93 88 88 84 83 81 76 83 89 86 90 92 93 95 97 97 96 96 95 95 95 94 92 89 88 88 88 87 89 85 92 92 92 88 86 88 88
85 91 88 87 90 91 92 88 87 88 85 73 81 79 80 86 86 92 95 95 95 97 98 98 98 98 96 97 95 94 89 87 87 88 86 85 87 87 90 88 88 90 91 89
80 82 88 90 85 90 88 83 71 69 70 70 85 78 81 91 96 96 97 97 97 98 98 97 96 97 95 94 94 94 90 86 87 87 87 86 85 86 86 86 88 89 90 89
72 69 82 88 86 83 83 84 74 61 67 72 82 73 81 94 98 100 102 101 102 99 98 97 96 96 95 94 93 91 89 86 87 87 87 87 86 89 89 88 91 91 91 90
73 73 88 88 89 90 83 78 90 80 81 75 79 82 89 94 95 97 99 101 99 100 99 99 99 98 96 95 93 91 89 87 88 88 87 86 86 86 89 88 87 90 88 90
82 71 85 87 90 90 88 90 77 81 65 63 74 76 79 85 90 95 98 99 101 102 101 101 100 99 98 97 95 92 90 87 88 89 88 88 87 87 87 85 84 86 85 85
86 78 78 84 80 80 82 80 83 84 79 69 67 75 90 89 93 95 99 102 103 104 103 102 101 101 99 98 97 94 92 89 88 90 89 88 88 88 84 85 85 84 82 79
85 81 71 76 88 90 88 82 83 74 70 78 76 78 97 96 96 98 99 102 105 105 105 104 103 100 100 96 98 96 95 93 92 92 89 88 88 87 84 83 81 82 80 79
84 76 68 71 81 86 81 85 87 86 84 74 70 75 95 96 94 97 97 100 101 97 97 100 101 98 97 96 95 97 96 97 97 93 91 89 87 85 82 81 82 79 79 79
79 79 72 69 73 80 74 79 84 84 77 76 77 80 88 92 92 95 98 100 101 98 95 96 96 97 96 95 94 94 96 99 98 96 92 88 85 83 84 83 79 80 80 78
81 70 76 78 82 83 81 79 80 78 80 75 80 80 86 91 93 95 99 100 100 96 93 93 94 95 94 93 93 92 95 95 97 93 92 88 85 83 82 83 81 81 80 79
80 70 74 72 80 80 78 81 82 81 81 81 82 81 93 96 96 95 97 99 98 97 94 93 92 94 92 92 91 92 92 93 93 91 90 87 84 81 82 81 79 78 79 76
75 73 69 66 76 77 71 79 81 82 84 83 76 84 91 90 92 93 95 97 97 99 97 95 93 93 92 93 92 91 90 92 89 89 87 85 83 80 80 81 79 78 76 78
73 70 72 68 72 59 78 89 87 83 85 88 87 88 91 91 95 97 99 97 98 99 101 99 99 96 94 96 94 92 92 89 87 86 85 84 82 80 80 79 78 77 77 77
78 72 69 65 67 73 78 82 80 80 79 88 88 89 92 95 95 91 96 98 97 98 100 100 101 99 94 94 92 90 89 88 86 84 84 83 82 80 79 78 78 78 77 76
77 74 70 69 62 59 69 75 78 78 70 89 90 88 91 92 83 88 97 93 94 96 97 94 96 96 94 93 93 88 87 85 84 85 84 84 83 81 79 77 77 77 78 74
66 67 64 66 65 71 70 74 78 65 71 78 91 91 91 87 91 87 88 89 92 92 93 94 93 91 90 91 90 86 86 85 87 88 85 83 82 79 77 77 77 77 76 74
64 64 67 70 63 60 71 74 70 70 78 80 82 84 87 90 84 85 86 86 87 87 88 90 87 86 87 87 87 85 84 85 86 85 83 81 79 79 77 75 74 73 71 70
65 73 71 68 69 69 72 69 74 76 75 79 81 83 84 84 84 85 84 85 86 87 87 88 85 82 84 85 85 81 80 82 82 82 79 77 75 76 76 73 72 70 70 70
68 74 70 65 65 68 72 72 75 78 77 79 83 85 86 83 84 84 84 85 85 86 87 88 85 83 80 81 82 80 80 80 79 77 75 74 72 71 72 73 72 71 68 67
59 64 67 65 65 66 67 70 74 74 78 79 82 82 81 81 81 81 80 81 82 81 83 84 84 82 80 80 79 80 78 79 76 76 76 72 70 69 66 63 63 71 65 65
51 51 66 66 69 67 63 66 70 68 72 74 74 76 80 81 80 81 79 79 78 76 80 79 79 79 77 78 76 76 79 78 78 77 76 77 77 78 79 75 69 45 47 45

GFSCGP_sfc_temp_027.txt.gz
Temp
93 86 81 88 92 93 93 90 85 93 96 91 89 90 92 95 95 94 95 94 95 95 98 99 98 99 98 97 93 92 90 90 91 91 90 91 90 89 91 91 85 91 90 90
87 81 91 95 94 92 92 89 89 94 93 93 90 89 94 95 94 96 96 95 95 97 97 97 97 98 97 95 93 91 90 89 89 92 91 94 92 96 95 96 94 93 93 90
85 88 94 92 91 89 90 89 89 89 92 94 91 86 90 96 97 97 98 100 99 97 97 97 96 96 97 94 93 91 89 89 89 90 93 91 92 92 94 94 94 95 92 93
89 95 91 90 88 92 84 94 93 92 81 79 91 76 86 93 93 95 96 98 100 99 99 100 98 96 97 96 95 93 90 89 90 89 90 88 90 90 93 94 97 95 93 93
85 89 88 85 89 93 88 96 93 92 85 83 84 80 83 92 89 93 97 98 100 102 101 100 101 98 99 98 97 95 91 89 89 88 88 91 88 93 95 95 92 90 90 91
90 97 94 93 95 95 96 92 92 92 89 73 83 77 83 82 91 95 99 100 101 102 103 102 103 102 100 100 98 97 91 88 89 89 88 87 89 88 92 92 91 92 92 91
85 88 94 96 88 93 91 87 75 73 74 73 84 81 77 94 96 99 99 101 102 103 103 102 100 101 99 98 97 97 91 87 89 89 89 87 88 89 88 90 91 91 93 93
76 73 87 93 89 86 86 86 76 64 69 75 87 77 86 99 102 101 102 106 106 103 103 102 101 100 100 98 96 95 92 88 89 89 88 88 88 90 91 90 93 93 94 94
78 77 92 93 93 92 86 81 92 82 84 78 83 87 93 97 99 100 101 103 104 105 104 103 103 102 101 98 96 94 92 89 89 90 88 88 88 88 90 89 89 93 92 94
85 76 89 92 94 93 89 94 80 84 68 67 78 79 82 88 92 97 99 101 104 106 106 106 104 102 102 101 99 97 94 90 90 91 90 90 89 88 89 91 89 89 90 90
89 83 82 89 84 82 84 85 87 87 82 72 70 78 95 92 94 95 99 102 105 107 107 107 106 105 103 102 101 98 95 93 91 91 90 89 90 90 89 90 89 88 89 87
89 84 76 81 91 93 90 85 86 80 73 80 80 81 101 99 99 100 101 104 107 108 109 109 108 107 105 102 102 100 99 95 93 93 91 90 90 90 89 88 89 88 86 85
88 81 72 75 85 90 83 86 89 89 88 76 75 79 98 99 99 100 100 102 104 105 104 106 109 106 105 103 99 101 100 100 98 94 93 91 90 89 88 88 88 88 85 83
83 83 74 72 75 85 79 83 86 87 79 79 80 82 91 95 95 98 99 102 103 104 104 103 103 107 105 103 98 98 100 102 100 97 95 90 89 88 89 89 87 86 84 82
84 74 79 81 84 85 84 83 84 81 83 78 83 83 89 94 96 98 100 101 101 102 104 101 100 103 102 100 98 97 100 99 101 97 95 92 90 89 89 87 86 84 84 82
84 73 78 76 83 83 81 85 84 84 85 85 86 84 96 99 100 99 99 100 100 101 103 103 100 100 100 99 98 97 97 99 99 95 94 92 90 88 86 86 86 83 83 82
78 76 72 68 79 79 73 81 84 84 86 85 79 87 94 93 95 97 98 99 99 100 103 104 101 98 99 99 97 96 95 98 95 95 93 92 89 86 84 85 84 81 81 81
76 73 75 70 73 60 79 90 90 86 88 91 89 91 93 93 97 99 101 99 100 102 103 105 106 102 101 102 101 98 97 94 92 91 92 91 88 85 82 83 83 81 81 79
82 76 70 66 67 74 80 84 84 83 82 91 90 92 94 96 97 95 102 103 103 103 105 108 111 108 102 101 100 96 94 93 91 90 90 89 88 85 83 80 81 81 80 77
79 78 73 68 63 61 76 82 86 86 74 90 91 90 93 95 86 92 100 102 104 105 106 106 108 109 103 100 101 94 92 90 89 89 89 89 88 85 83 81 81 79 79 77
69 69 66 68 66 74 77 84 85 69 74 83 86 87 89 88 94 98 101 102 102 103 101 102 103 103 98 98 96 91 91 88 90 90 89 87 86 84 84 80 81 77 74 73
66 66 67 69 65 55 78 81 75 77 82 84 86 88 87 89 97 99 95 94 95 96 98 99 97 97 96 96 91 88 87 89 89 89 87 85 84 85 82 78 77 75 73 74
67 74 71 72 73 77 82 79 81 81 79 82 85 89 89 91 93 93 92 91 92 92 94 97 94 90 92 90 90 86 86 88 87 86 83 82 83 83 79 75 72 72 73 75
77 82 78 71 73 74 77 80 82 83 82 85 89 90 90 88 90 89 89 89 90 90 89 90 88 86 86 88 87 84 85 86 85 82 80 79 77 76 77 76 74 76 73 71
50 53 70 69 71 73 76 78 80 81 84 85 85 86 83 84 85 86 85 86 88 88 88 88 85 84 83 84 83 84 83 84 82 80 79 76 77 77 72 67 67 74 72 68
51 50 59 68 72 73 70 75 79 77 78 80 81 80 79 77 77 79 79 82 84 84 85 84 83 81 82 81 81 82 83 82 80 78 78 75 75 75 78 74 68 46 48 45

GFSCGP_sfc_temp_030.txt.gz
Temp
90 83 79 84 87 89 89 87 85 88 79 91 84 75 70 82 93 93 93 92 92 93 96 98 97 98 96 94 90 88 87 86 87 86 83 84 84 84 86 87 87 84 84 86
85 78 87 91 91 88 88 85 86 89 83 86 89 76 77 83 93 94 93 93 93 94 95 95 95 96 95 92 89 87 86 86 86 86 83 84 85 86 86 87 85 84 85 84
80 85 92 90 87 85 86 84 86 85 89 93 90 84 88 93 95 96 97 97 96 95 95 94 94 94 95 91 88 87 85 85 85 86 85 85 86 86 82 83 83 84 86 86
85 92 89 87 85 88 80 92 90 88 84 76 89 73 84 91 90 92 95 97 97 97 98 98 96 94 94 92 91 87 86 85 85 85 85 84 83 83 85 86 85 85 87 87
82 86 86 84 86 91 86 94 91 90 84 83 79 74 82 88 86 90 94 96 99 100 99 99 98 95 96 95 92 89 85 85 85 84 84 84 84 86 87 87 84 84 84 88
88 96 92 91 93 93 95 91 90 90 86 73 78 73 74 83 86 87 96 98 99 101 101 100 101 98 96 97 94 91 85 83 84 84 84 83 82 83 85 85 83 84 84 84
84 86 94 96 88 92 91 84 73 70 72 71 84 75 77 90 91 89 89 95 100 102 102 99 98 98 94 93 93 92 85 83 84 85 84 83 83 83 82 85 85 83 84 84
74 72 86 94 88 85 85 85 74 61 67 73 85 76 80 92 92 87 88 91 102 101 101 100 98 98 96 94 92 91 85 83 84 84 84 83 83 86 86 85 86 86 86 86
76 76 92 92 94 92 85 79 89 78 81 75 81 86 94 96 91 91 93 98 97 97 102 102 101 100 98 94 91 90 86 84 84 85 84 84 84 83 85 85 84 87 84 86
83 74 88 92 94 93 88 92 77 79 64 64 76 77 80 85 83 93 91 97 98 99 103 103 103 100 99 98 94 92 89 85 85 86 85 85 85 84 85 85 84 84 85 84
87 81 81 89 83 82 83 81 83 84 80 70 68 76 94 89 90 93 95 98 102 104 104 104 103 102 99 99 96 93 90 87 86 86 86 85 85 86 84 86 85 84 84 83
88 82 74 80 91 93 89 83 82 73 70 78 76 79 98 95 96 98 98 100 103 103 106 106 105 103 100 97 97 94 93 91 89 88 86 85 85 85 85 84 86 86 83 82
89 79 70 73 83 90 85 86 86 85 83 73 72 76 95 95 91 94 98 100 99 99 103 105 104 101 99 97 94 94 94 94 93 89 88 86 85 85 84 84 84 85 84 82
86 82 74 71 74 83 79 83 85 84 75 76 79 81 88 91 89 92 96 99 101 99 98 101 102 100 100 97 93 93 94 96 94 92 89 86 85 85 85 85 84 85 84 82
85 72 77 81 82 84 83 83 83 80 81 75 81 82 87 91 91 93 94 98 99 99 100 96 100 99 98 96 92 93 94 93 94 90 88 87 86 85 85 84 84 84 84 82
85 72 75 73 83 82 80 84 85 85 83 83 84 83 95 96 98 93 93 93 96 97 98 99 96 97 96 96 93 92 93 93 92 89 88 87 86 85 85 84 84 83 83 81
77 76 70 66 77 78 72 80 83 84 87 84 78 85 93 91 91 94 94 93 96 97 97 99 97 94 94 97 94 92 92 93 91 88 88 87 86 84 84 84 83 82 80 80
75 71 72 68 71 60 79 89 89 85 87 90 89 89 91 92 95 94 94 96 93 99 100 100 103 100 98 102 101 95 95 91 89 88 88 87 86 85 84 83 82 81 81 78
82 74 68 65 66 72 78 84 84 82 81 91 89 91 93 96 96 92 98 99 98 98 100 100 105 105 98 98 97 93 92 91 90 88 88 88 87 84 83 81 81 80 78 77
79 77 71 67 62 59 76 86 93 91 74 91 92 91 91 92 82 88 96 100 100 101 101 101 102 104 105 97 100 92 91 89 88 89 89 88 86 84 82 81 80 81 80 77
68 69 66 66 64 70 83 88 91 69 72 85 88 88 89 85 88 90 95 97 100 99 99 100 100 99 98 96 96 89 89 87 89 90 89 87 85 83 83 80 79 78 77 76
62 62 64 66 63 60 87 85 76 78 83 84 86 87 86 88 91 92 94 97 97 95 98 101 98 96 95 93 90 87 85 87 87 87 86 84 83 84 83 78 77 75 73 73
58 67 65 68 70 71 73 79 82 84 82 83 85 88 89 89 90 93 91 91 92 93 94 96 97 91 91 91 87 85 84 85 85 84 82 81 81 80 78 76 75 72 73 71
64 61 65 69 74 78 79 81 85 85 83 86 89 90 91 89 91 91 90 90 91 91 91 92 89 87 85 86 87 84 84 83 82 81 80 80 78 75 75 74 75 73 71 70
52 56 57 64 75 77 79 82 83 85 86 85 85 86 85 82 82 83 82 84 88 87 86 87 84 83 84 84 83 84 83 82 80 80 77 75 75 73 66 60 58 71 64 64
54 51 53 56 56 58 73 79 82 80 80 82 80 78 79 81 80 80 79 80 79 79 82 80 77 76 77 80 79 79 81 81 78 75 76 74 71 71 68 66 62 47 48 46

GFSCGP_sfc_temp_033.txt.gz
Temp
78 68 67 71 76 77 78 75 74 81 83 74 73 72 78 80 78 79 83 83 84 85 88 89 90 90 88 86 84 83 80 79 81 79 78 75 74 76 77 78 80 79 78 79
72 68 76 82 81 79 77 74 74 78 83 79 74 74 75 80 80 80 84 83 85 85 87 87 88 89 87 84 83 83 82 79 81 81 80 76 76 77 78 77 79 79 80 79
70 73 84 81 78 77 76 73 74 73 81 80 78 69 69 81 84 84 85 87 87 86 85 86 87 87 87 84 82 82 81 80 81 79 79 76 76 78 77 79 78 82 81 79
74 82 81 78 76 79 70 82 82 78 73 62 78 60 66 74 78 81 83 86 87 87 89 88 87 86 87 84 84 83 81 80 79 79 78 76 77 73 76 83 82 77 79 79
73 77 77 76 78 83 76 84 82 81 70 71 72 63 64 73 73 77 85 87 89 89 89 88 88 89 88 87 84 82 82 80 82 81 78 78 74 77 76 76 76 80 78 78
78 86 83 80 85 85 86 81 79 78 72 54 71 64 64 69 77 82 86 89 90 91 91 91 91 90 89 88 85 83 81 81 81 81 79 77 76 76 75 75 76 77 76 76
75 78 84 87 77 82 81 72 61 58 60 55 69 67 69 79 82 87 87 89 92 92 92 91 89 89 88 87 85 83 80 79 81 80 79 80 77 76 76 76 75 75 75 73
63 61 77 85 80 73 75 73 63 48 54 60 69 60 69 85 87 88 91 89 89 88 93 92 91 90 88 88 85 83 80 80 81 80 80 80 80 78 79 77 76 78 79 78
64 65 82 85 86 83 69 69 76 61 65 57 65 71 76 86 80 81 85 89 85 89 91 93 92 91 89 88 85 84 80 80 80 81 81 80 80 80 79 77 78 77 77 79
72 59 78 83 86 84 78 74 66 69 55 53 64 64 65 75 74 80 82 83 84 83 90 94 94 92 90 90 88 86 82 81 81 81 82 82 81 81 80 76 78 77 78 77
78 71 70 79 75 73 69 72 67 66 68 56 53 64 73 75 78 78 83 86 90 92 92 93 94 94 90 90 89 87 83 82 81 82 82 82 81 81 80 80 78 76 79 77
80 72 63 69 80 85 81 73 67 61 52 59 64 65 82 83 84 85 85 87 90 93 94 96 95 94 91 89 89 87 83 82 83 83 82 81 81 81 80 81 81 82 78 77
79 71 59 62 71 79 76 78 75 73 62 60 53 64 86 84 82 85 84 86 90 90 85 95 96 93 91 89 88 88 86 83 84 83 83 81 80 81 81 80 81 81 80 77
73 74 68 61 65 68 66 76 77 74 65 61 66 65 74 75 78 82 84 91 89 85 89 84 95 93 92 91 88 88 87 87 85 84 83 81 81 81 82 82 81 78 80 79
67 62 71 73 75 75 75 75 77 73 73 64 68 68 73 79 78 80 82 83 87 86 85 83 91 90 90 89 87 88 88 88 87 84 83 82 82 82 82 81 80 81 79 80
57 57 65 64 75 76 73 77 77 78 77 75 74 71 74 78 83 81 83 90 82 86 87 84 84 87 87 87 86 87 87 88 88 85 83 83 82 81 81 80 80 79 80 79
53 54 56 56 67 65 60 73 75 76 79 77 69 74 77 77 77 82 83 83 92 90 86 85 84 84 83 87 89 87 87 89 87 86 84 83 82 81 80 80 80 78 79 78
56 56 59 53 59 51 64 78 81 77 78 78 78 77 77 77 78 80 81 85 82 85 89 85 89 83 82 83 89 90 89 87 85 84 83 83 82 81 80 80 79 79 80 75
67 59 55 53 54 58 68 74 72 69 71 78 75 78 80 81 79 78 84 86 86 91 88 86 84 87 86 84 88 87 87 85 85 82 82 82 82 81 80 80 79 78 76 76
68 67 60 51 50 51 62 76 83 78 60 75 77 77 78 77 65 67 75 81 82 85 87 86 88 87 83 83 87 86 86 85 83 85 83 84 83 82 80 80 78 76 75 74
56 57 57 52 51 57 69 80 84 62 62 73 76 74 74 70 71 76 77 80 79 80 84 86 85 85 81 81 86 84 85 85 85 85 82 82 83 81 80 78 78 76 73 72
49 47 54 55 50 49 72 75 66 66 72 74 75 75 74 75 78 79 78 78 79 79 81 81 79 80 82 79 84 82 82 83 80 81 81 79 79 80 78 76 74 73 73 71
47 54 48 54 56 64 68 69 69 71 71 73 73 75 77 76 74 77 75 77 80 80 80 81 78 76 77 77 82 81 77 81 81 79 78 78 78 77 76 72 71 70 69 68
53 54 53 53 56 56 71 67 68 76 76 78 75 75 76 72 74 72 74 74 76 76 76 76 75 74 75 76 77 78 79 80 79 76 76 73 73 72 71 70 71 70 70 69
49 51 49 52 55 57 64 59 71 76 76 74 75 76 74 73 71 71 70 71 73 73 74 74 74 74 74 76 76 78 79 78 76 75 71 70 69 64 59 56 63 67 60 64
51 48 47 47 53 54 55 57 61 69 71 71 71 71 73 72 71 71 69 70 71 71 71 71 72 73 73 75 75 75 74 73 71 69 69 66 65 63 61 60 55 47 48 46

GFSCGP_sfc_temp_039.txt.gz
Temp
66 62 57 61 64 66 66 62 61 68 75 71 73 66 71 75 76 73 73 75 76 77 81 82 82 83 82 80 79 79 78 78 77 72 73 71 71 72 73 74 75 75 76 76
60 59 65 69 68 67 65 62 62 68 74 71 70 67 73 75 75 76 76 76 77 78 78 79 81 82 81 79 79 78 79 78 78 79 79 74 72 72 73 74 75 75 76 76
60 62 71 69 66 65 62 61 62 64 69 70 68 63 68 74 74 77 79 80 80 80 78 77 80 80 82 79 78 78 79 79 79 79 77 71 72 71 71 71 73 75 76 79
61 71 69 65 65 67 56 69 70 69 62 55 68 52 64 69 71 74 76 77 78 80 82 81 78 79 81 81 80 80 79 79 79 78 78 77 74 71 70 72 73 74 76 75
61 66 66 64 68 69 65 72 69 68 60 55 61 55 60 71 67 71 75 78 79 81 82 82 81 81 82 83 80 80 78 78 79 77 80 77 76 76 71 71 73 74 73 75
69 72 73 71 73 74 73 67 62 59 55 49 61 59 62 59 70 74 76 79 81 82 83 84 85 84 82 84 82 80 78 77 78 77 78 77 77 72 71 70 71 72 71 73
62 68 69 74 65 67 66 56 47 44 45 50 60 55 66 69 74 78 79 78 82 83 83 83 83 83 82 82 82 81 77 76 77 77 77 77 77 75 74 73 73 70 70 70
54 51 67 71 67 63 61 61 44 39 40 50 54 52 65 78 80 80 82 82 83 83 84 84 84 84 84 82 81 80 78 77 77 76 76 77 78 77 77 75 75 73 72 74
53 55 69 75 73 72 60 57 64 48 43 46 51 58 67 74 75 78 77 80 81 83 84 85 85 85 85 83 82 80 78 79 78 78 77 77 77 77 76 74 74 74 74 76
59 51 64 71 74 71 69 65 54 44 45 46 48 53 57 65 72 73 74 78 82 84 85 86 87 86 86 86 84 82 80 79 80 79 79 78 78 78 77 75 73 73 74 74
54 54 57 65 61 65 58 60 53 57 49 51 42 55 65 68 70 72 75 80 83 85 86 87 87 88 87 87 84 82 81 80 80 80 80 79 78 78 79 76 75 75 75 73
56 48 56 62 66 74 72 66 61 51 48 48 58 56 69 77 76 73 75 80 84 87 88 89 89 88 87 86 85 82 81 80 81 80 80 79 79 78 78 77 76 76 76 75
51 43 44 50 53 60 61 63 67 64 51 58 48 52 70 73 72 73 74 74 78 83 84 88 89 88 87 86 85 83 82 81 82 81 80 79 78 77 78 79 79 75 77 76
51 41 44 49 50 58 57 63 66 64 55 58 61 56 62 67 70 72 71 74 74 79 82 86 85 87 87 86 84 83 82 83 82 81 80 79 78 78 78 79 79 78 76 75
43 35 43 50 55 59 61 66 68 60 65 59 64 61 66 67 70 73 75 72 75 76 81 84 84 85 81 82 83 84 82 82 83 80 79 79 79 79 79 78 78 79 78 76
42 38 42 45 57 59 59 65 69 69 68 65 61 60 68 74 70 70 74 73 73 77 82 83 84 86 86 86 83 85 83 82 82 80 79 80 79 78 78 78 77 77 77 77
38 37 38 36 50 51 53 63 67 68 69 69 60 64 69 69 69 71 72 72 75 78 82 80 79 84 87 91 88 84 84 84 80 80 79 79 79 78 77 78 77 76 76 77
38 37 38 37 42 39 61 72 74 70 69 67 66 68 70 73 75 75 72 73 74 75 79 81 82 82 83 90 91 88 86 83 80 79 79 79 78 78 78 77 77 77 76 76
47 41 36 36 37 48 61 65 66 65 62 69 70 71 71 72 67 68 72 73 76 75 78 84 83 83 80 82 84 82 79 81 79 79 78 79 78 78 77 76 76 77 78 77
48 48 46 39 38 39 49 57 61 63 62 71 70 70 71 67 60 73 72 74 76 75 76 78 77 77 77 78 82 80 79 79 78 79 80 80 79 78 77 77 77 78 78 79
40 41 38 41 41 47 52 57 62 53 57 64 69 74 68 66 71 76 72 73 75 73 76 76 75 76 81 80 82 80 79 78 82 83 82 80 80 79 79 78 79 77 77 76
40 39 37 40 42 40 56 57 48 50 54 57 67 67 67 70 69 69 71 71 73 75 74 75 71 73 75 73 80 78 77 81 82 81 80 79 79 79 79 78 76 76 76 75
39 44 42 48 46 52 54 54 56 57 54 54 65 67 67 67 67 69 69 68 71 71 71 71 71 71 69 70 73 78 80 81 80 80 79 79 79 80 80 76 75 75 75 74
46 49 47 50 54 54 55 58 57 58 59 65 64 67 69 67 66 66 67 68 68 69 69 70 70 69 68 69 68 69 70 72 72 73 75 76 77 76 75 76 76 75 75 73
41 46 49 51 52 57 57 56 57 57 61 64 66 64 64 66 65 66 66 67 68 69 69 70 69 69 69 71 70 71 71 71 71 71 70 70 70 71 58 54 53 65 66 69
48 47 45 45 52 53 52 56 58 57 58 59 60 60 62 62 63 65 64 65 66 66 67 68 69 70 70 70 69 70 71 72 72 71 71 69 63 62 61 62 61 52 53 55

GFSCGP_sfc_temp_042.txt.gz
Temp
63 56 53 60 61 62 63 60 61 65 70 68 66 64 67 72 73 71 72 72 73 73 77 78 79 80 78 77 75 75 74 74 74 73 72 72 73 73 74 75 76 75 76 77
56 56 63 66 65 65 63 59 60 65 71 67 65 66 68 71 72 72 72 73 73 74 75 77 78 79 78 76 76 75 75 75 74 75 76 75 75 73 75 75 76 76 76 77
60 59 68 66 61 62 58 60 59 61 68 66 65 60 63 70 72 74 75 76 76 75 75 76 77 78 79 77 76 75 75 75 75 76 75 72 72 72 72 73 74 75 76 77
58 68 67 61 61 63 51 65 66 66 60 53 65 50 57 66 68 71 73 74 75 77 78 78 77 78 78 78 78 77 76 76 76 75 75 74 75 73 74 73 75 76 76 77
59 62 62 62 65 66 61 69 66 65 57 52 56 52 57 64 64 68 72 75 77 79 80 79 78 79 80 81 79 78 77 76 76 75 76 75 75 75 73 73 74 73 75 76
63 68 69 65 69 69 70 63 58 54 52 46 56 54 53 57 65 69 74 76 78 80 81 82 80 81 81 82 80 78 76 75 76 75 76 75 75 72 72 71 72 73 74 75
59 64 65 70 62 63 65 53 42 42 42 48 56 52 64 66 73 74 74 77 79 81 81 81 81 80 79 78 79 78 75 73 75 75 75 76 75 74 74 73 73 71 72 73
50 49 64 67 64 59 58 55 41 36 37 51 51 50 59 73 75 78 79 80 81 81 82 81 82 82 80 79 78 77 75 74 75 75 75 76 76 76 77 75 75 75 75 75
49 52 65 69 69 69 54 53 59 46 40 42 48 54 67 69 72 73 77 80 80 81 82 82 83 84 82 80 78 77 76 75 75 75 75 75 76 76 76 75 74 75 75 76
54 48 61 69 69 69 61 64 51 44 39 37 45 47 54 62 67 71 71 75 78 80 82 83 84 84 84 83 81 80 78 76 77 76 77 77 77 76 77 76 73 74 74 75
48 50 54 61 60 62 56 53 50 55 45 43 39 48 59 64 69 75 79 79 78 79 81 83 84 85 84 84 82 80 79 77 77 77 77 77 77 77 77 77 75 75 74 74
47 42 48 54 61 71 70 63 52 52 44 45 45 51 66 70 72 70 73 77 76 78 81 83 85 85 84 82 83 81 80 79 79 78 77 77 77 77 76 76 76 75 74 74
48 40 40 47 57 58 57 62 56 53 48 55 46 51 70 67 70 73 71 72 73 74 76 81 83 83 83 82 81 81 81 81 81 80 78 77 77 76 76 77 77 75 75 74
50 37 39 39 44 50 50 60 60 61 52 55 58 53 60 68 66 68 70 71 74 72 73 77 81 83 83 82 81 80 80 82 81 81 79 77 76 76 77 77 77 76 76 75
43 36 39 44 49 52 53 54 58 59 62 55 59 59 62 66 69 74 70 71 72 73 73 73 80 81 80 80 79 80 80 80 80 78 78 77 77 77 77 77 77 77 76 76
39 37 37 40 51 53 52 57 59 60 62 63 61 59 67 71 67 69 71 71 71 72 73 74 76 78 78 80 79 80 79 79 79 77 77 77 77 76 76 76 76 76 76 76
36 35 35 34 46 47 46 56 60 60 62 64 58 63 67 66 66 69 71 70 70 72 73 73 75 77 79 80 80 79 80 80 78 77 77 77 76 75 76 76 75 75 75 75
35 34 35 34 39 35 52 60 64 65 67 65 65 68 72 73 74 74 74 77 72 71 73 75 78 79 80 83 83 81 82 78 77 77 77 77 76 76 76 76 75 75 76 75
43 36 33 33 34 47 54 55 53 49 58 69 66 68 70 75 73 68 70 70 74 74 74 79 82 83 82 81 83 79 78 79 78 77 76 77 77 76 76 75 75 76 76 76
42 43 39 33 34 35 47 55 61 57 47 53 53 66 71 66 60 69 71 71 72 72 72 72 75 76 76 76 78 77 77 77 75 76 77 78 77 76 76 76 76 77 77 77
32 36 33 36 35 42 52 56 59 49 51 54 55 54 53 64 73 75 73 71 72 74 74 71 71 73 76 74 76 76 76 75 78 79 79 78 78 77 77 77 77 77 77 77
33 32 30 34 34 34 55 56 52 52 55 57 58 57 54 60 69 70 72 71 70 71 73 72 71 69 68 72 74 73 73 77 77 76 77 77 77 78 79 77 76 76 76 75
34 39 37 40 41 50 53 53 56 55 56 57 58 60 61 62 67 69 69 67 68 69 69 68 67 67 68 69 71 71 69 74 73 74 73 75 77 77 78 76 75 75 75 75
41 44 42 42 49 52 54 56 55 57 58 59 61 63 63 64 65 65 66 66 68 68 69 70 69 69 69 71 70 71 71 72 72 71 72 73 73 73 75 76 76 75 74 74
40 41 39 43 46 52 55 56 55 58 59 60 61 63 66 66 66 67 67 68 68 68 69 70 70 69 69 70 71 72 72 72 72 70 69 69 69 62 60 57 60 63 60 68
42 39 36 38 48 47 51 54 57 57 57 59 59 62 63 66 65 66 66 66 66 66 69 68 68 69 69 69 69 71 72 72 71 69 69 66 63 62 64 62 59 50 52 51

GFSCGP_sfc_temp_045.txt.gz
Temp
74 68 63 69 71 74 72 71 72 77 82 80 79 79 81 81 82 80 80 79 80 81 84 85 85 86 85 84 82 81 80 80 81 81 81 82 82 84 85 86 85 85 85 85
66 63 73 74 73 70 71 69 71 76 79 78 80 78 81 80 80 81 80 79 80 82 83 82 84 84 84 83 82 81 80 80 80 82 82 84 84 86 86 87 86 86 86 85
66 71 75 71 69 68 69 68 71 72 76 79 77 75 74 79 80 82 83 83 81 83 82 83 82 83 84 83 82 81 80 81 80 82 82 82 84 83 83 84 86 86 86 86
69 77 71 69 68 71 66 74 74 72 70 66 77 66 71 77 75 78 81 82 84 84 84 86 85 84 84 84 84 82 81 81 81 81 81 80 82 82 85 85 87 87 86 86
67 70 68 66 69 73 69 76 73 73 71 70 72 68 75 75 73 76 80 82 84 87 86 86 86 86 86 87 85 84 82 80 81 81 81 82 81 85 87 86 84 83 85 85
74 77 75 73 75 75 78 74 72 70 71 60 69 69 72 73 75 79 82 84 84 87 88 88 88 88 87 88 87 85 81 80 81 81 80 80 80 82 83 83 84 85 86 87
70 70 76 78 71 75 75 70 59 56 57 57 74 67 70 81 83 86 84 84 86 87 88 88 87 87 86 86 86 85 81 78 80 80 81 81 80 81 81 82 84 85 86 86
62 58 71 76 74 69 70 71 63 52 56 62 68 62 71 84 88 87 89 90 89 87 88 87 88 88 86 86 85 84 81 79 80 81 80 80 81 84 84 84 86 86 87 87
63 64 75 76 79 77 69 66 77 67 62 61 68 72 78 82 85 87 86 88 88 88 88 88 89 90 89 86 84 84 81 79 80 81 80 80 81 81 83 83 83 86 85 88
68 61 73 76 79 79 74 77 62 66 53 53 63 63 69 75 80 84 86 86 88 90 90 90 91 90 90 89 87 86 83 80 81 82 82 82 82 82 83 83 82 83 85 84
62 65 64 73 69 69 68 68 70 71 66 59 58 66 77 78 82 83 87 88 90 91 92 92 92 92 91 91 89 86 85 83 82 82 82 82 82 83 83 84 83 83 84 83
58 61 62 65 77 80 76 71 71 62 57 63 66 67 80 83 86 86 87 90 91 92 93 93 94 92 91 90 90 88 87 85 84 84 82 82 82 83 83 83 84 84 82 83
58 55 57 61 70 73 70 74 75 74 73 61 59 66 84 83 82 84 85 88 87 87 88 90 92 91 89 89 87 88 88 89 88 85 84 82 82 82 81 82 83 84 82 83
59 54 55 59 61 60 60 68 72 72 64 65 66 70 77 82 82 84 86 87 87 86 87 88 88 89 89 88 86 86 87 90 89 87 85 81 80 81 82 82 82 83 82 82
56 49 52 54 57 58 58 59 63 64 69 65 70 70 75 80 82 86 87 86 84 85 85 85 87 88 86 86 85 85 87 87 88 84 84 82 82 82 82 82 82 83 83 82
53 50 51 51 57 59 57 61 63 64 66 66 69 69 82 84 86 85 87 88 86 86 88 88 86 87 86 86 85 84 85 86 86 83 83 82 82 81 81 81 82 82 82 82
47 49 48 46 55 56 53 60 64 65 69 69 63 72 79 79 78 81 83 84 84 85 88 89 86 86 86 87 86 85 84 86 84 82 82 82 82 80 80 82 81 80 81 82
46 45 49 48 50 42 62 71 69 69 71 74 73 75 78 80 84 85 86 86 88 90 89 90 91 90 89 91 91 87 88 84 82 82 82 82 82 80 81 81 80 80 82 81
50 48 46 44 47 54 58 65 64 62 66 73 74 77 80 84 84 83 88 87 87 89 91 90 94 94 91 90 90 86 86 84 83 82 82 82 82 81 81 80 79 80 81 81
49 49 46 46 42 42 59 68 73 65 57 65 65 68 71 75 73 79 87 87 87 89 90 89 91 91 91 87 92 85 84 83 82 83 83 83 82 81 80 80 80 81 81 82
39 40 39 42 42 51 64 66 66 53 61 66 65 66 66 65 74 81 78 84 86 88 87 87 87 87 86 88 87 83 84 83 84 86 86 84 83 81 81 81 81 81 81 82
41 38 37 42 40 37 66 65 59 63 66 66 67 67 64 66 68 71 75 78 83 84 85 86 84 84 84 83 82 82 81 84 86 86 85 83 83 84 84 80 78 81 78 75
39 46 44 46 48 59 63 61 65 65 63 65 65 68 67 65 67 71 74 77 83 83 83 83 81 79 79 81 81 81 82 83 83 82 82 82 82 83 83 81 80 80 79 76
49 53 44 47 54 57 61 65 64 66 65 67 68 67 66 64 68 72 75 80 80 80 79 80 78 74 73 76 80 81 81 82 82 81 81 82 81 80 82 84 84 82 82 80
48 50 47 46 50 53 57 62 65 65 67 67 69 65 62 68 73 75 77 73 72 71 73 75 74 74 73 76 77 79 80 81 81 82 82 80 83 77 72 68 72 81 81 79
48 45 42 44 55 53 54 58 61 63 65 66 64 60 64 69 70 71 70 70 71 70 72 72 72 72 73 77 76 74 78 80 79 77 76 69 68 68 66 64 61 51 52 52

GFSCGP_sfc_temp_048.txt.gz
Temp
80 75 71 78 81 83 84 81 80 85 91 87 86 87 90 94 91 91 89 88 89 89 92 93 92 93 93 92 89 87 86 86 87 88 88 88 89 90 92 93 92 91 91 91
77 71 81 84 84 81 81 78 80 87 88 85 86 86 91 94 90 91 91 89 90 91 91 91 91 92 92 90 89 87 86 86 86 89 89 91 90 93 93 94 92 91 91 90
75 79 84 81 79 76 77 78 79 80 85 88 85 82 86 91 92 93 94 94 93 92 91 91 90 91 92 90 89 87 86 86 86 88 89 88 90 90 91 92 92 92 91 92
78 85 80 79 76 79 73 82 81 80 78 74 87 72 83 89 88 90 93 94 94 92 94 95 93 92 92 91 91 89 87 86 86 86 88 85 87 88 92 92 94 94 92 92
74 78 77 75 77 82 77 86 81 80 78 78 79 75 81 89 85 88 91 93 95 96 96 95 95 93 94 94 93 91 88 86 86 86 86 88 86 91 93 94 91 89 91 91
80 87 84 82 83 84 84 81 81 80 78 68 76 77 78 84 85 90 93 95 95 97 97 97 98 97 95 96 95 93 88 86 86 86 84 86 86 87 91 90 91 92 93 93
76 79 83 86 79 83 81 77 67 64 65 65 81 76 78 88 94 93 94 96 96 97 98 96 95 96 95 94 93 93 88 84 85 86 86 85 85 86 87 88 91 91 94 94
68 65 78 84 80 77 76 77 70 58 65 70 80 71 80 93 96 96 98 100 99 98 97 97 96 96 95 94 94 92 89 85 86 86 85 86 86 89 90 90 93 94 94 95
71 71 84 84 84 85 76 72 84 77 78 71 78 80 88 92 93 94 96 98 99 99 98 98 99 98 97 95 93 91 89 86 86 87 86 86 86 86 90 89 90 92 92 96
77 69 82 83 84 86 83 84 72 75 61 60 72 74 77 84 86 92 94 97 99 102 101 100 100 99 99 98 96 93 91 87 87 88 88 88 87 87 88 89 88 90 92 91
77 75 76 81 76 76 77 76 77 80 75 67 65 74 90 87 89 90 95 98 100 102 102 101 101 101 100 100 98 95 92 90 88 89 89 88 89 89 88 89 89 89 89 90
75 74 70 74 84 87 84 78 78 69 66 73 74 77 93 91 94 95 95 98 102 103 105 104 104 102 101 99 100 98 95 93 91 91 89 88 88 89 89 88 89 90 88 89
69 69 64 69 78 82 78 80 82 81 81 69 67 76 91 91 90 93 94 97 98 100 101 103 105 103 101 100 97 98 97 97 96 92 90 89 88 88 88 88 88 89 88 88
64 69 68 67 70 77 72 77 80 80 72 73 75 77 85 87 89 91 92 94 96 96 96 99 100 102 102 100 98 95 98 98 98 95 92 89 87 87 89 88 87 88 88 88
65 61 63 70 66 67 72 76 78 76 77 71 77 78 83 87 90 91 94 95 94 93 95 97 98 100 98 98 96 95 96 96 98 94 93 89 88 88 88 88 88 88 88 88
63 58 60 60 66 66 64 70 72 76 78 78 79 78 90 92 93 91 91 93 93 95 98 98 97 98 98 96 95 94 93 94 94 93 91 89 88 88 87 87 87 87 87 88
56 59 56 56 66 65 59 68 71 73 77 77 71 79 86 85 86 87 88 91 92 94 97 98 98 98 98 98 96 94 93 93 92 91 90 89 88 87 86 87 87 86 86 87
54 54 58 57 60 48 69 81 78 74 76 79 79 82 84 86 89 90 92 91 92 95 97 98 102 104 102 103 104 97 96 91 90 88 89 89 88 87 87 86 86 85 87 86
60 56 54 51 54 62 68 71 70 70 71 81 80 83 85 88 89 87 93 96 95 95 98 101 105 107 105 104 103 98 94 93 90 88 87 89 89 87 86 85 85 86 86 86
60 57 54 55 49 49 66 75 79 77 63 79 77 78 80 85 78 85 95 97 97 99 99 99 101 104 104 102 104 97 93 91 89 89 89 90 89 87 86 86 85 87 87 86
51 51 48 50 50 59 71 74 74 58 62 75 76 76 76 75 81 84 86 86 90 91 92 96 96 96 98 100 98 95 92 90 91 93 92 90 90 87 87 87 87 86 86 86
50 47 49 50 48 46 72 71 62 66 71 73 74 75 74 77 79 81 83 83 85 87 90 94 95 93 96 95 92 91 88 91 91 92 91 90 89 90 91 86 86 85 84 82
47 55 52 53 55 66 70 69 73 73 69 70 72 75 76 76 78 80 80 83 84 86 89 94 94 92 92 91 89 88 88 90 90 89 89 89 88 88 89 86 84 85 84 86
55 60 54 53 60 62 66 70 71 71 70 73 75 75 77 76 79 78 79 82 85 88 89 93 89 89 88 88 87 87 88 89 88 86 87 88 87 86 87 90 89 88 88 87
57 58 54 54 59 61 64 67 68 70 69 69 72 75 76 76 76 74 77 81 85 87 87 88 88 86 84 85 86 89 87 87 86 87 88 87 89 85 87 85 85 91 91 86
56 53 50 50 60 61 62 68 70 65 65 67 68 70 75 76 70 67 76 82 78 77 80 82 80 83 85 80 77 86 87 87 87 87 88 90 92 88 87 82 74 51 50 48

GFSCGP_sfc_temp_051.txt.gz
Temp
86 80 75 81 85 87 88 86 84 90 93 91 87 86 89 94 95 94 93 92 92 93 96 97 97 97 96 95 92 90 89 89 91 90 89 90 90 92 93 96 95 94 93 92
81 75 84 88 88 86 85 85 86 91 89 92 87 88 92 96 95 96 96 93 93 94 95 95 95 96 95 93 92 90 89 89 89 91 91 92 92 94 94 95 94 93 93 92
78 82 87 86 85 82 83 83 84 85 91 93 88 84 89 96 98 98 99 98 97 95 95 94 94 94 95 93 92 90 88 88 88 89 91 91 93 92 93 94 94 94 93 94
82 90 85 84 82 85 78 88 87 86 84 78 89 74 84 92 93 95 96 98 98 97 97 97 96 94 95 94 94 92 89 88 89 88 89 86 88 89 92 93 95 96 93 93
79 84 83 80 83 87 82 90 86 86 83 83 83 79 85 91 88 92 96 98 100 100 99 98 97 96 97 97 96 94 90 87 89 87 87 90 87 92 95 95 92 90 92 92
85 92 90 87 89 89 90 86 86 85 82 71 79 81 82 87 90 94 97 100 100 101 101 100 100 99 98 99 97 95 89 87 87 88 86 86 86 87 91 92 93 94 94 94
81 84 89 91 84 89 86 81 70 67 68 68 83 79 82 93 97 98 98 99 101 103 101 100 99 99 97 97 96 96 89 86 87 88 87 85 87 87 87 90 92 93 95 96
72 69 83 89 85 82 81 81 71 60 65 72 82 74 82 96 100 102 103 103 103 102 103 101 99 99 98 97 96 95 90 87 88 87 87 87 87 91 90 91 94 95 96 98
74 73 89 89 89 89 81 76 87 79 82 76 81 84 92 97 97 99 99 102 102 103 103 102 102 102 100 98 96 94 92 88 88 88 87 87 86 87 90 88 90 94 94 98
81 73 86 88 90 89 86 89 75 78 65 66 77 79 81 87 91 96 98 99 102 104 103 104 104 102 103 101 100 97 94 90 89 89 89 89 88 87 89 90 89 90 92 93
83 80 80 87 80 79 80 80 82 83 79 71 70 78 94 92 93 94 97 100 102 104 104 105 105 105 103 103 101 99 96 93 91 90 90 89 89 90 89 90 91 90 91 92
83 78 71 80 88 90 87 82 83 74 70 78 79 81 97 97 99 99 98 101 104 105 107 107 107 106 105 102 102 101 99 96 95 92 90 90 90 90 90 89 91 92 89 91
75 72 67 72 83 86 81 85 87 85 84 74 73 79 94 96 95 99 98 101 102 103 105 107 108 105 104 104 101 103 101 100 98 94 93 91 90 90 89 89 90 91 90 90
66 71 69 70 76 82 76 81 85 85 76 77 79 82 87 91 92 93 96 100 102 102 104 106 107 107 105 104 102 101 103 103 101 99 95 91 89 89 91 90 90 90 90 89
70 62 71 76 80 81 82 80 83 80 82 76 83 82 88 91 93 94 96 97 97 97 99 100 102 104 105 104 101 101 102 102 102 98 96 92 90 90 90 89 89 90 90 90
69 61 68 69 77 74 72 81 82 84 83 84 84 84 95 96 97 94 94 95 95 97 99 101 101 101 103 103 103 102 99 100 100 97 95 93 91 89 89 89 89 89 89 89
60 64 63 59 71 71 65 74 78 82 86 84 79 85 93 91 92 92 92 93 94 96 98 100 101 102 101 104 103 100 100 99 97 94 95 93 91 89 88 89 89 88 87 89
59 59 61 60 65 53 73 85 83 80 82 86 86 88 91 91 93 94 95 94 94 96 98 100 104 105 107 108 108 102 102 96 94 93 92 93 91 90 89 88 88 87 89 87
65 60 57 56 61 68 74 78 79 76 76 85 84 86 88 91 91 90 95 97 96 97 100 102 105 108 108 109 108 105 99 98 94 92 91 92 92 89 89 87 87 88 87 88
65 63 58 58 54 54 71 78 83 81 69 85 86 86 87 89 81 87 94 96 94 98 99 100 103 106 107 106 109 105 100 96 92 92 92 92 92 90 88 88 87 88 89 88
56 56 53 55 54 64 76 79 81 62 64 77 82 82 82 81 83 84 89 89 91 92 93 95 96 96 98 100 101 100 101 96 95 96 94 92 91 89 89 88 88 88 87 88
53 53 54 56 53 50 78 76 67 68 74 71 73 76 77 79 82 84 86 87 87 88 91 94 93 94 97 99 96 95 94 96 96 95 94 91 90 92 93 88 88 87 86 85
52 57 57 59 60 71 76 74 78 77 72 73 73 76 78 78 80 83 83 85 85 87 89 92 92 93 96 96 94 92 89 95 94 92 91 91 91 91 91 87 87 87 86 87
61 65 59 57 63 66 71 75 75 76 74 75 77 76 76 75 79 81 82 83 82 85 88 92 92 92 92 94 92 90 92 93 91 90 90 91 90 88 89 93 91 90 91 89
58 60 57 58 62 65 68 71 73 74 75 75 76 75 75 75 76 79 80 78 80 84 89 91 91 91 91 93 91 92 91 91 90 90 90 90 92 87 89 89 81 92 90 82
60 57 55 54 64 64 65 71 74 72 72 74 72 71 75 75 75 77 78 76 76 80 85 85 87 90 89 89 88 90 91 90 88 88 90 92 94 92 92 86 77 49 50 47

GFSCGP_sfc_temp_054.txt.gz
Temp
86 79 75 80 82 84 84 82 80 87 93 88 88 76 75 71 71 69 90 89 89 90 94 95 95 96 95 93 88 86 86 85 85 85 84 84 84 85 86 88 90 87 89 88
80 74 83 86 86 83 83 81 83 88 93 83 84 78 73 72 71 74 87 88 91 91 92 92 93 94 93 90 87 85 85 84 85 86 84 85 85 87 87 87 88 89 88 88
76 81 87 85 82 80 80 80 82 84 87 88 86 78 76 76 80 89 92 90 94 92 92 92 91 92 93 89 87 85 84 84 85 85 85 85 86 86 85 86 86 88 89 89
80 87 83 82 80 83 75 86 86 86 79 72 87 65 80 90 91 93 94 91 94 94 95 94 93 92 92 91 90 86 84 84 85 84 84 82 82 82 84 85 87 87 87 88
77 80 81 79 80 86 80 89 85 85 82 81 78 76 82 89 87 91 94 95 95 97 96 95 95 93 94 94 91 88 84 83 84 83 83 84 82 85 86 86 84 85 85 87
82 90 86 86 88 88 90 86 85 84 81 71 78 76 77 84 86 92 96 97 97 98 98 98 97 96 94 95 92 90 84 82 83 83 82 82 81 82 84 84 85 87 87 87
79 81 88 91 84 88 86 80 68 66 67 66 81 77 80 91 94 94 95 97 100 100 99 97 95 95 92 92 92 90 84 82 83 83 83 82 83 81 81 83 85 85 87 88
70 68 81 89 85 81 81 80 69 57 62 68 79 72 79 94 99 101 101 100 101 101 100 98 96 94 92 92 90 89 84 82 83 83 83 82 82 85 84 84 87 88 89 89
72 71 87 88 90 88 80 74 85 75 78 71 76 80 89 94 95 98 99 101 100 101 101 100 99 97 94 92 90 88 85 82 83 84 83 83 82 82 85 83 84 87 86 91
78 70 84 87 90 89 85 88 73 76 61 61 72 75 77 84 89 94 96 99 101 102 102 101 100 98 96 95 93 91 88 83 84 85 84 85 84 83 84 85 83 84 86 89
80 75 76 85 80 78 80 79 80 80 76 66 66 75 93 87 90 93 97 99 101 103 102 103 101 100 98 97 95 93 90 87 85 85 85 84 85 85 84 85 85 85 85 85
79 76 68 74 88 90 86 80 81 71 67 75 75 77 94 97 97 97 97 100 102 103 104 103 103 101 100 97 97 95 94 92 89 87 85 85 85 85 85 84 86 86 85 86
67 68 63 68 80 87 81 83 83 84 82 70 70 75 94 95 96 98 97 99 99 99 101 102 103 101 99 98 96 96 95 95 94 89 88 86 85 85 85 85 84 86 85 85
67 64 65 66 71 81 76 80 83 82 74 74 76 80 86 90 91 95 97 98 100 98 99 101 101 101 101 98 95 95 96 98 96 94 90 86 85 85 86 85 85 85 85 85
69 60 68 73 79 81 81 80 81 79 80 75 79 81 85 89 90 93 94 96 97 98 100 100 102 101 98 97 94 95 97 95 97 92 91 87 86 86 86 85 85 85 85 86
63 59 65 64 73 76 75 82 82 82 83 83 84 84 94 94 93 93 94 94 93 95 97 99 100 101 101 97 95 95 95 96 95 91 91 88 87 86 85 85 85 85 85 85
59 58 59 56 69 72 67 76 80 82 85 85 79 86 93 90 89 90 91 93 94 96 98 99 100 100 99 101 97 95 94 96 93 91 90 89 87 85 85 85 85 84 84 85
57 56 58 56 62 52 73 84 84 82 86 89 89 91 93 93 94 93 94 93 94 95 95 96 100 101 101 103 105 98 99 93 91 90 89 89 88 86 85 85 84 84 85 84
64 57 55 54 57 65 72 79 79 77 77 86 86 91 91 92 93 90 95 96 96 96 97 98 101 103 101 101 100 95 95 94 92 89 89 89 89 87 85 84 84 85 84 84
64 63 56 57 53 52 68 81 88 84 69 78 87 86 87 89 79 79 86 89 89 91 92 92 95 97 95 92 101 94 92 91 89 89 89 89 89 87 86 85 84 85 85 85
55 55 52 54 53 63 70 78 83 65 58 73 76 75 78 79 78 82 87 86 88 88 89 91 92 91 90 92 91 92 94 90 91 92 91 89 87 87 86 85 85 85 84 85
50 52 51 54 52 50 71 74 63 66 73 72 73 74 74 77 80 82 83 83 85 85 86 89 89 89 91 91 88 87 87 89 90 91 89 87 87 89 91 85 85 85 83 82
47 54 55 57 58 66 70 69 75 76 73 72 71 74 75 75 76 78 78 81 82 82 82 86 87 87 88 89 89 88 85 90 94 89 87 87 87 87 87 85 83 84 83 84
56 60 52 55 62 65 69 72 74 76 74 76 75 75 76 73 75 74 76 77 80 80 79 83 86 87 86 87 87 88 89 91 89 88 87 87 86 85 86 89 87 86 85 84
57 58 55 56 61 64 68 71 72 73 74 74 76 76 76 74 73 74 74 75 77 78 77 80 82 83 85 89 89 90 89 88 85 88 88 87 88 84 86 78 70 83 79 74
57 52 48 48 57 57 58 64 69 70 72 74 73 73 76 76 73 73 73 74 75 76 74 77 79 82 84 87 89 88 88 88 85 85 87 88 89 89 88 73 70 49 49 46

GFSCGP_sfc_temp_057.txt.gz
Temp
76 67 65 70 73 74 74 74 71 80 86 82 77 68 70 73 77 76 76 73 76 82 86 88 88 89 88 85 83 83 78 79 80 79 78 74 75 76 77 78 79 80 80 81
70 64 74 79 78 76 75 71 71 79 85 82 73 67 71 72 69 73 75 72 74 84 85 87 87 88 86 83 84 79 80 79 80 80 80 75 76 76 77 78 79 80 81 80
66 71 80 78 75 73 72 69 71 72 81 80 74 66 69 73 71 74 75 76 80 84 84 85 86 86 86 82 82 82 79 79 80 79 79 76 76 75 75 76 77 79 81 81
71 79 77 74 73 75 65 78 78 77 74 60 77 58 62 69 71 72 75 77 80 86 87 86 86 85 85 83 83 82 79 79 80 79 79 79 79 75 74 76 77 78 81 81
69 73 73 72 74 79 71 80 77 76 72 71 68 64 62 71 69 71 76 78 79 84 88 86 86 87 87 86 83 82 82 80 81 80 80 78 74 74 75 75 76 76 78 80
74 83 79 76 81 82 83 76 75 75 71 60 66 66 63 69 70 74 78 79 80 86 89 89 89 89 88 87 84 82 80 80 81 79 76 78 76 75 73 74 74 75 78 81
70 74 80 83 74 79 77 67 54 53 55 55 65 65 64 78 81 82 82 81 82 89 89 88 87 87 87 85 84 82 80 78 80 80 80 76 76 76 75 75 75 75 76 80
58 57 73 81 75 70 71 69 55 44 48 56 65 58 67 81 86 92 91 88 90 89 90 89 88 87 87 86 84 82 79 79 80 79 79 81 78 78 80 75 77 78 77 81
59 60 79 81 83 79 69 66 70 56 56 52 59 66 76 84 82 87 89 90 89 91 90 90 89 89 88 87 84 83 80 79 80 80 80 79 80 78 79 80 75 76 78 81
58 57 72 80 82 82 75 75 62 64 47 49 59 61 66 73 79 80 85 89 91 92 91 91 90 89 89 89 87 85 82 80 80 80 81 80 80 80 78 78 75 79 78 79
54 53 64 72 72 70 70 67 69 62 57 48 48 61 75 76 81 82 85 84 92 92 92 91 90 91 89 90 88 85 83 81 80 80 80 81 80 80 80 78 79 78 76 79
55 50 52 63 75 81 77 72 67 61 53 55 54 62 78 81 86 87 86 88 87 94 93 93 92 91 89 88 89 86 84 82 81 82 81 80 81 81 79 79 79 79 79 76
51 46 44 56 65 73 72 75 74 65 61 55 55 61 82 80 86 89 82 85 89 86 92 93 92 91 90 89 89 87 87 84 83 83 82 81 80 80 80 80 81 80 80 81
55 47 44 43 57 64 64 73 75 71 59 58 64 62 73 76 77 80 82 83 83 84 91 93 92 91 91 90 89 89 88 89 85 84 82 81 81 81 81 82 80 81 81 81
50 44 51 57 63 67 69 73 74 70 70 63 65 65 71 73 76 78 79 81 84 84 86 90 93 92 92 91 89 89 89 89 90 85 84 82 82 82 82 82 81 81 81 81
49 44 51 52 64 68 67 73 76 76 75 72 70 71 76 77 79 78 80 81 80 81 84 85 86 91 92 92 89 90 90 90 90 88 84 85 83 82 82 82 82 81 81 82
43 47 44 44 59 61 55 66 71 76 78 76 68 71 75 74 77 76 77 80 81 82 82 82 84 84 90 92 92 89 89 91 89 87 87 85 84 82 82 82 82 81 81 82
43 46 45 43 54 42 60 73 75 75 78 77 76 76 81 77 75 76 76 80 80 81 82 82 82 82 84 85 92 91 91 87 87 87 85 86 84 82 82 82 81 82 82 82
54 50 43 41 48 55 65 68 68 65 58 67 68 74 84 79 76 73 78 79 77 77 77 78 80 80 79 83 81 86 90 87 83 83 84 84 84 83 82 81 82 82 83 82
55 56 44 47 42 45 51 64 71 73 50 67 67 69 74 77 62 64 74 77 77 78 79 78 80 80 80 79 82 80 83 86 87 87 82 83 84 83 82 82 82 83 83 83
46 48 43 46 45 47 57 63 70 53 50 65 66 66 67 65 65 69 74 74 76 75 76 78 79 77 77 79 79 78 81 80 80 80 80 81 82 83 84 84 84 83 82 82
40 39 42 46 43 39 59 62 52 58 64 64 64 65 65 67 69 69 70 71 73 72 73 75 75 76 80 77 78 76 77 80 81 81 80 79 78 82 82 82 82 82 81 80
36 41 36 42 39 52 60 60 64 67 65 64 63 65 65 66 66 66 66 66 69 70 71 73 72 75 79 79 75 75 77 77 81 78 79 80 78 81 83 80 80 80 80 80
50 51 42 43 51 54 56 64 59 60 59 66 66 66 66 64 66 64 64 64 65 67 69 70 71 72 74 78 80 78 76 78 78 78 77 76 78 76 79 78 82 81 81 80
47 46 40 41 47 48 54 55 57 58 60 61 63 67 66 65 64 63 62 62 63 64 67 67 67 70 71 76 78 80 78 78 76 76 77 77 77 77 75 63 60 77 72 73
47 42 36 35 43 41 43 51 54 52 53 57 59 61 66 66 64 63 60 61 61 63 66 65 67 70 72 75 76 76 77 77 76 75 76 76 76 77 72 63 60 48 47 46

GFSCGP_sfc_temp_060.txt.gz
Temp
66 60 57 62 63 65 67 64 64 71 78 72 67 67 70 73 70 73 73 73 74 76 80 82 83 84 85 79 80 81 80 78 77 73 71 71 72 73 74 75 78 77 77 78
60 59 67 70 70 69 68 65 66 72 79 78 70 68 71 71 70 73 75 74 75 76 78 80 82 83 84 79 81 79 79 78 78 79 78 73 72 73 75 75 76 77 78 77
61 65 74 71 69 68 67 64 66 66 74 76 70 62 64 69 73 74 79 77 78 78 78 79 80 82 84 81 79 79 78 77 78 78 75 72 73 72 72 73 73 76 78 78
64 73 72 69 68 70 61 73 73 72 67 59 71 48 60 66 68 70 71 76 77 78 82 82 82 82 84 83 82 81 78 78 79 77 77 77 77 75 72 73 74 75 78 78
64 68 68 66 68 74 66 74 71 71 63 58 68 56 58 67 63 68 73 75 77 78 83 83 84 84 85 86 83 81 78 78 79 77 79 77 76 74 71 72 74 73 75 77
67 77 73 72 76 76 77 70 68 62 59 51 61 64 57 60 66 72 76 77 78 79 84 86 86 86 84 85 84 82 78 77 78 78 78 77 76 71 72 71 72 72 73 76
62 67 74 78 68 74 72 57 50 45 48 49 61 57 65 70 74 76 75 78 80 81 81 85 84 84 83 81 82 81 79 77 77 78 77 77 76 74 73 72 73 70 72 73
48 52 67 74 71 65 64 65 51 42 42 53 57 54 65 75 80 81 80 81 81 83 82 84 85 86 84 82 81 81 79 79 78 78 77 78 77 77 77 75 72 74 75 77
36 49 70 75 76 74 62 59 68 50 45 47 53 62 71 75 75 80 80 81 81 83 83 84 87 86 86 82 81 80 79 79 79 79 79 77 76 78 78 73 74 75 73 77
43 35 57 69 75 76 71 68 55 49 48 43 50 54 64 68 72 74 79 81 82 83 84 86 88 86 87 85 83 81 80 80 80 80 80 80 79 77 76 77 73 73 74 76
44 39 47 58 61 63 66 64 57 59 51 50 43 57 68 69 72 74 77 83 83 83 84 87 88 88 87 87 84 82 80 80 79 80 80 79 79 79 78 75 77 77 75 74
50 43 35 47 63 70 69 63 63 57 49 48 50 60 73 75 76 77 79 85 86 86 87 89 89 88 87 86 85 82 81 80 80 80 80 79 79 78 77 77 76 77 75 75
46 41 34 44 53 63 60 63 59 55 55 50 54 60 74 73 74 77 83 81 87 87 88 89 89 87 86 86 86 84 83 81 81 80 79 79 78 78 77 77 78 75 77 77
48 39 37 32 40 48 49 55 65 60 54 54 59 66 68 76 74 75 78 80 86 88 89 89 88 87 87 87 86 84 84 83 82 80 79 77 78 78 78 78 78 78 77 77
43 34 38 42 48 52 53 55 62 62 64 60 63 59 66 70 74 73 74 76 81 85 88 88 87 87 87 86 86 85 85 84 83 80 79 78 79 79 79 78 77 78 78 79
41 35 37 36 50 54 54 62 66 67 69 63 64 62 71 73 73 71 74 75 77 84 88 88 88 88 87 87 86 86 85 84 84 81 80 80 79 79 79 79 79 77 77 78
35 35 32 33 51 54 51 56 62 65 71 66 65 68 68 70 69 67 73 78 76 77 82 88 88 88 89 89 88 86 85 86 83 81 81 81 80 79 78 79 79 78 77 78
37 35 32 33 47 42 55 61 62 59 60 61 61 64 70 67 70 70 71 73 74 77 78 77 76 78 88 91 89 89 87 85 84 82 81 81 80 79 79 79 79 79 79 78
46 38 32 32 42 53 53 55 55 52 53 61 60 69 71 72 71 67 71 72 70 71 72 73 74 75 78 79 82 85 84 85 84 83 82 81 81 80 79 78 79 80 80 79
47 41 34 38 39 39 42 53 63 63 46 62 63 61 63 69 55 57 66 70 70 71 71 73 75 77 76 74 77 80 84 84 84 84 83 84 82 81 80 80 80 81 81 81
37 36 33 39 41 44 49 53 62 45 47 61 61 61 60 57 57 61 67 67 69 70 70 71 73 74 74 74 75 74 77 77 79 81 80 81 84 83 82 82 82 81 81 81
34 35 33 34 35 34 50 51 43 49 56 57 57 61 59 59 62 63 64 64 66 66 69 70 69 71 73 74 75 72 73 76 77 78 78 76 77 82 83 81 81 81 81 79
33 36 34 34 37 45 50 48 51 56 54 55 55 57 58 60 60 61 60 61 63 65 66 68 66 67 70 72 72 74 75 73 76 76 75 75 76 79 80 79 79 79 79 79
44 47 38 38 43 44 46 52 53 54 53 55 55 55 58 58 61 59 60 60 61 63 64 66 67 67 66 68 72 73 75 74 73 74 74 73 73 73 73 79 79 79 78 78
40 43 37 39 41 43 48 51 50 49 52 53 55 55 56 58 58 59 59 58 59 60 61 63 63 65 66 67 69 72 74 75 74 72 72 73 73 71 73 69 68 76 78 75
39 37 35 34 41 41 42 48 51 49 49 50 52 54 56 57 58 60 59 58 59 59 59 59 61 63 65 66 68 70 73 73 72 72 72 71 73 72 69 63 58 48 47 46

GFSCGP_sfc_temp_063.txt.gz
Temp
61 53 54 59 58 61 61 60 60 66 74 71 69 66 66 68 69 68 70 71 72 73 78 80 80 81 80 79 78 77 77 77 75 72 71 70 71 71 72 73 75 75 75 75
55 53 61 65 63 62 61 59 59 66 74 69 68 68 68 68 68 70 70 70 72 73 76 78 79 81 80 77 79 78 78 77 77 78 77 72 71 72 73 73 74 75 76 75
55 59 68 65 62 61 59 58 61 61 70 72 67 63 66 69 70 72 73 73 74 74 74 76 77 79 81 76 77 77 78 77 78 79 72 70 71 71 71 71 72 74 76 76
59 69 66 63 62 64 53 66 68 66 64 59 66 48 58 67 66 68 71 73 73 75 77 77 78 78 81 80 78 78 78 78 78 75 76 73 77 74 72 71 72 73 75 76
60 63 63 62 64 68 61 69 66 65 61 58 64 52 57 64 63 65 70 74 75 76 77 77 78 80 82 83 79 79 78 78 78 75 77 75 72 73 69 70 72 71 73 75
62 73 68 68 71 71 71 65 62 58 62 53 58 58 55 57 63 68 72 74 76 77 79 80 81 82 81 83 82 79 77 77 77 76 76 75 74 69 68 68 70 69 71 73
50 61 68 71 63 68 67 53 45 42 46 48 56 54 64 66 72 73 73 75 77 79 79 80 80 80 81 81 81 79 76 75 76 75 76 75 75 72 72 70 70 69 69 70
36 45 60 68 65 59 61 59 45 37 39 50 55 49 61 73 76 79 79 79 80 79 80 80 82 82 82 82 82 79 76 76 76 75 76 76 75 75 75 73 71 71 72 75
36 40 55 61 62 67 59 55 62 47 42 44 50 55 67 72 71 75 76 78 79 79 81 81 84 84 84 82 82 79 77 77 77 76 77 76 76 75 75 72 73 73 72 75
40 34 48 54 60 68 65 63 52 46 45 40 45 50 59 64 67 70 73 77 78 81 81 82 84 84 83 83 82 81 80 78 78 78 78 77 77 76 77 73 72 71 72 73
38 37 42 50 51 53 55 59 52 55 49 48 41 52 61 66 70 70 73 77 79 80 81 82 83 86 85 84 82 81 80 79 79 78 78 78 77 76 77 75 74 74 73 73
41 36 34 40 54 55 54 52 59 51 46 45 46 56 71 71 72 72 73 79 82 83 83 85 84 86 85 84 82 81 80 79 80 79 79 78 77 76 75 75 75 75 74 73
41 38 31 39 44 50 46 50 51 53 49 48 49 56 70 69 71 74 73 73 79 81 82 84 84 85 85 85 83 81 80 80 81 80 79 78 77 76 75 75 76 74 75 75
47 35 32 32 35 41 39 45 47 44 46 57 56 55 64 68 68 70 72 73 77 81 83 82 84 86 86 85 84 82 80 81 81 80 78 77 76 76 77 76 76 75 75 75
39 33 37 37 40 42 42 43 46 46 50 50 62 58 64 66 69 70 71 74 75 83 83 82 84 86 86 84 84 83 82 81 81 79 77 77 77 77 77 76 76 76 75 77
36 35 35 35 43 44 42 47 52 54 55 56 62 61 66 63 62 64 65 69 74 82 83 84 85 87 86 85 84 84 82 81 80 79 77 78 77 77 76 76 76 75 75 75
33 35 32 28 41 41 44 51 54 55 55 54 56 56 61 60 62 61 62 65 72 82 84 84 86 87 87 86 86 84 82 82 80 79 78 78 77 75 75 76 76 74 74 75
32 34 34 28 37 33 48 54 57 54 54 55 56 61 63 62 63 64 65 63 64 68 74 82 87 88 88 88 86 86 83 81 79 78 78 78 77 76 76 76 76 76 75 74
41 36 32 30 31 45 48 48 46 47 48 52 53 58 62 66 66 62 65 66 65 66 68 70 72 76 79 84 85 82 80 81 78 78 78 78 78 77 76 75 76 77 77 76
41 39 34 33 29 36 41 47 52 54 43 53 52 51 57 60 51 54 62 64 65 68 68 70 73 73 74 72 84 81 80 80 78 78 79 79 79 78 77 77 77 78 78 78
33 34 31 31 32 39 45 46 54 43 41 53 52 50 51 53 53 58 62 63 64 66 67 69 70 69 69 70 77 79 80 80 82 79 78 78 79 79 79 78 79 78 78 78
33 32 33 33 33 34 45 46 42 43 53 53 51 51 50 55 61 59 59 60 63 63 65 67 66 67 69 71 74 71 71 72 76 77 78 79 79 79 80 78 78 78 77 76
32 35 34 33 34 45 48 43 49 49 49 49 50 53 54 55 57 58 56 58 59 60 62 64 64 65 67 69 71 72 71 71 72 72 73 73 77 80 82 78 78 77 77 77
40 43 37 36 43 43 45 47 49 49 47 50 53 53 54 54 57 56 56 56 57 58 60 61 63 63 64 66 68 70 72 72 72 71 70 71 71 71 73 77 79 77 77 76
37 39 36 38 44 43 48 48 49 49 50 51 53 53 53 55 56 55 55 55 56 57 57 58 59 59 61 62 65 67 71 71 70 70 71 70 71 70 70 71 69 75 77 74
38 37 35 34 41 41 43 47 49 48 49 50 50 51 54 55 55 58 54 55 55 56 56 56 57 58 60 61 62 64 67 69 68 68 68 68 69 70 70 67 62 48 48 48

GFSCGP_sfc_temp_066.txt.gz
Temp
57 51 52 55 55 57 58 56 57 64 71 67 65 63 63 66 67 66 68 69 69 71 75 77 78 78 77 76 73 73 72 71 72 70 70 70 71 73 73 73 75 76 76 77
52 50 58 61 60 59 58 54 54 63 72 66 64 65 64 65 66 68 69 69 70 72 73 75 76 77 77 75 74 73 73 71 73 74 73 72 71 73 74 74 75 76 76 77
51 56 64 62 57 56 55 54 54 57 69 69 63 58 60 66 67 69 71 73 72 72 72 74 75 76 78 75 74 74 73 72 74 74 72 71 72 72 72 73 73 75 76 77
55 64 62 59 56 59 46 61 63 62 59 55 64 47 56 62 63 66 68 70 71 73 75 75 76 76 77 76 77 75 74 73 74 74 73 72 72 71 71 72 73 74 75 76
54 58 58 57 60 63 56 65 62 61 57 59 56 50 55 62 60 63 67 70 72 74 75 75 76 78 79 79 77 77 74 74 74 74 74 74 73 72 71 71 73 73 74 76
58 65 62 63 67 67 67 60 58 55 56 50 57 54 52 55 62 66 69 71 73 74 76 77 78 79 79 81 78 77 74 73 73 73 74 73 73 70 70 70 71 71 72 74
49 56 62 66 58 63 62 51 40 39 45 47 54 52 61 63 67 71 71 72 74 76 76 76 76 77 78 78 78 77 74 72 73 73 74 73 73 71 71 71 71 70 71 72
36 43 53 57 56 55 54 53 41 34 35 47 50 48 59 72 75 73 76 76 76 77 77 77 78 78 78 78 78 76 74 73 74 73 74 74 74 73 74 73 72 72 72 73
34 40 54 58 57 56 53 52 57 45 40 42 47 54 63 69 70 71 72 74 74 76 78 78 79 80 79 79 78 77 74 74 74 75 74 74 74 73 74 72 73 73 72 75
38 33 46 52 57 59 54 58 48 42 39 37 43 48 56 61 70 69 69 72 75 77 78 80 80 80 81 81 81 79 77 74 76 76 76 76 75 74 75 73 72 72 73 74
36 34 40 48 48 47 48 50 49 51 48 45 38 49 58 62 68 69 71 74 76 78 79 80 81 82 83 83 82 81 78 76 76 76 76 76 76 75 75 74 74 73 73 73
38 33 31 37 51 53 49 46 44 43 41 43 46 52 68 68 69 69 70 72 77 79 80 81 82 83 83 82 82 81 79 78 78 77 76 76 76 76 75 74 74 74 73 72
39 32 27 36 38 45 43 45 39 39 37 44 46 50 68 72 67 70 71 70 72 75 77 80 81 81 82 81 80 80 80 79 79 78 77 76 76 75 74 75 74 74 74 74
46 31 30 28 32 38 38 44 45 39 34 39 49 54 60 66 66 68 69 69 71 72 76 78 80 80 82 80 79 78 79 81 80 79 77 76 75 75 75 76 75 74 74 74
37 28 31 35 39 41 40 42 47 41 42 38 48 52 59 65 67 65 64 65 68 70 73 76 79 80 82 81 78 78 79 79 79 78 77 76 76 76 75 74 74 75 75 75
36 28 30 31 40 40 40 46 49 49 48 46 49 51 60 61 60 60 60 61 62 66 73 77 79 80 81 81 80 79 78 78 78 76 76 76 75 75 75 74 74 74 74 75
34 32 32 25 37 39 37 46 51 48 47 48 47 52 57 57 57 56 57 60 61 63 66 76 80 81 82 83 82 78 78 78 77 76 76 75 75 74 74 75 74 73 73 74
34 33 33 29 31 29 43 52 54 49 49 48 48 50 59 59 60 61 61 60 61 65 65 73 82 83 85 86 85 81 80 77 76 75 75 75 74 74 74 74 74 74 74 73
36 34 31 28 27 38 45 45 43 42 45 50 46 49 52 61 63 61 65 65 63 65 66 68 77 80 80 83 81 79 78 77 75 75 74 75 75 74 74 73 74 75 75 75
35 35 32 33 26 31 40 45 49 50 41 50 49 47 48 58 50 56 63 65 64 66 66 68 71 74 78 78 83 77 76 75 74 75 76 76 76 75 74 75 74 76 76 76
31 33 29 31 30 36 39 43 48 39 39 51 48 47 47 46 50 60 63 64 65 65 66 67 69 70 71 72 79 76 74 75 77 78 77 76 76 75 76 75 76 76 76 76
32 31 30 33 29 30 42 42 38 40 47 50 48 48 48 51 55 58 60 61 61 61 63 66 66 67 70 73 72 71 72 74 74 75 76 75 76 78 78 76 76 76 76 75
31 33 33 33 33 41 43 42 46 48 47 48 48 50 51 52 52 56 57 58 58 59 61 64 64 65 67 69 73 71 71 73 74 73 73 74 74 77 78 76 75 76 76 76
37 41 35 36 40 41 44 46 48 47 49 50 51 53 54 52 55 54 54 55 56 58 59 61 63 62 63 64 67 69 71 73 72 72 73 73 73 73 75 77 78 77 76 76
37 38 36 36 40 42 45 46 47 47 49 51 53 53 54 54 54 55 53 53 55 56 57 58 58 61 62 63 64 66 69 70 70 71 72 72 73 72 73 74 73 77 78 75
39 36 34 34 40 40 42 46 49 48 49 52 51 51 55 55 54 55 55 53 54 55 56 56 57 59 61 62 63 64 66 67 68 68 69 69 71 72 73 71 67 49 50 48

GFSCGP_sfc_temp_069.txt.gz
Temp
69 63 60 66 69 70 69 66 69 72 79 77 75 75 73 73 74 73 74 74 76 77 81 82 83 83 83 82 81 80 79 80 80 81 81 82 83 84 85 85 85 85 85 85
62 60 69 71 68 67 67 65 67 73 76 76 76 75 77 73 73 74 73 73 76 78 79 80 82 83 82 81 80 79 79 79 80 82 82 84 84 85 87 87 85 86 86 86
62 66 69 66 65 64 65 65 65 68 74 78 73 70 71 73 75 76 78 78 77 78 78 79 80 81 83 81 80 80 79 79 80 82 82 81 82 83 84 85 85 86 86 87
65 71 66 65 64 66 61 70 68 67 66 64 75 62 69 72 71 73 76 77 79 79 80 82 82 82 83 82 83 81 80 80 81 81 81 80 82 82 85 85 87 86 85 86
63 65 65 62 65 69 65 71 68 68 65 66 67 64 73 73 70 72 76 78 80 82 82 82 82 83 84 85 84 83 80 80 81 80 81 82 82 85 85 85 83 83 84 85
68 71 71 69 71 70 73 68 68 69 67 56 65 65 68 71 72 76 79 79 80 82 83 83 85 85 84 86 85 84 80 79 80 80 80 80 81 82 82 82 84 86 87 87
59 65 71 73 67 71 69 65 55 52 53 53 70 63 67 78 80 83 80 80 81 83 83 83 82 83 83 84 83 84 80 78 80 80 81 81 81 81 80 82 84 85 86 86
51 53 64 66 68 65 65 66 58 47 52 57 68 59 68 81 85 84 86 86 85 83 83 83 83 83 83 84 83 83 80 79 80 80 80 80 81 84 84 83 86 86 87 87
49 52 59 61 64 68 65 60 71 61 60 58 65 68 76 79 82 85 85 85 84 84 84 84 85 85 85 84 83 82 81 79 80 81 80 80 81 81 83 83 83 86 85 87
49 47 56 58 63 66 66 72 59 61 49 48 59 62 66 73 77 82 82 84 85 87 85 86 86 86 86 86 85 84 83 80 81 82 82 82 82 81 82 82 81 83 84 83
53 47 53 56 58 61 60 62 64 65 62 54 53 60 76 77 80 82 86 86 87 87 86 87 86 87 87 87 86 85 83 82 82 82 82 82 82 82 82 83 82 83 83 83
51 49 44 51 59 60 56 58 63 56 55 60 61 62 80 81 83 83 84 87 88 88 89 87 88 87 86 86 87 86 86 84 84 83 82 82 82 82 82 82 83 83 82 83
51 44 42 50 53 56 53 53 55 54 57 56 55 60 80 82 83 84 83 87 85 85 87 87 88 87 86 86 85 87 87 87 87 84 83 82 82 82 82 82 83 83 82 83
53 44 43 44 44 47 46 49 52 53 54 58 60 64 73 77 79 80 80 81 82 81 84 86 86 87 87 86 85 85 87 89 88 86 85 82 81 82 83 82 82 82 82 82
49 41 44 47 48 47 46 47 50 49 54 53 63 62 70 74 70 71 73 74 76 78 81 83 85 86 85 85 85 85 86 86 87 84 83 82 82 82 82 82 82 82 82 83
45 42 43 42 48 48 45 49 51 52 54 54 56 57 69 69 70 69 68 69 71 74 76 79 84 85 85 85 84 84 85 85 85 82 82 82 82 81 81 81 81 81 81 81
42 43 39 38 45 45 43 50 52 55 56 58 55 62 60 66 65 65 66 67 68 70 72 75 78 84 85 87 83 83 84 85 82 81 82 82 81 80 80 81 81 80 80 82
41 37 39 37 42 34 51 56 62 56 53 54 55 57 58 63 67 69 68 66 67 68 70 72 76 81 88 90 89 86 86 83 81 81 81 81 81 80 81 80 80 80 81 80
47 42 37 34 35 45 47 44 44 46 48 54 52 55 55 60 65 68 67 67 65 65 69 72 76 81 88 90 89 85 84 83 82 81 81 81 81 80 80 80 80 81 80 80
44 45 38 37 31 32 37 44 49 49 44 54 53 53 52 62 62 63 63 65 65 67 68 70 79 87 91 89 91 84 82 82 81 82 82 82 82 81 80 80 80 81 82 82
32 34 31 35 32 40 39 43 47 38 42 47 52 53 52 55 57 61 63 62 64 65 69 73 76 83 87 88 86 82 82 81 83 85 84 82 82 81 81 81 81 81 81 83
33 31 31 34 31 30 43 42 36 40 47 49 51 53 52 58 59 60 60 60 62 63 67 70 70 72 81 85 83 81 80 83 83 83 83 82 81 83 84 81 81 81 80 79
32 34 34 35 39 44 45 43 46 46 46 48 50 54 55 56 57 58 58 59 62 62 64 68 69 69 71 73 81 80 79 81 82 81 81 81 82 82 84 81 80 81 80 83
36 38 35 35 41 41 44 47 47 47 47 50 52 54 55 54 56 56 58 58 59 61 63 65 67 67 66 71 73 74 76 80 81 80 80 81 81 80 82 84 84 84 84 83
35 37 35 36 39 41 45 47 48 48 51 53 55 55 54 55 55 56 56 58 59 62 62 65 65 65 65 67 71 73 74 78 80 81 81 80 81 79 82 84 85 85 86 82
38 36 34 34 40 41 43 47 50 47 47 51 51 52 55 56 55 56 56 59 61 62 64 64 67 66 66 67 69 70 73 74 76 77 80 78 82 83 84 83 80 53 54 51

GFSCGP_sfc_temp_072.txt.gz
Temp
78 72 69 76 79 81 78 78 78 82 87 83 83 83 82 82 85 84 85 83 85 86 89 90 90 91 91 90 88 87 86 86 87 88 88 89 89 91 92 94 92 91 91 91
72 68 78 81 80 76 76 74 76 83 86 83 83 82 87 84 83 86 85 84 85 86 88 88 88 90 90 89 88 86 85 85 85 89 89 91 91 93 94 95 92 93 92 91
70 75 80 77 75 71 73 73 76 77 82 84 82 79 82 87 85 87 88 88 88 87 87 87 87 88 90 88 87 86 85 84 85 88 89 88 90 91 90 91 92 93 92 92
72 80 73 74 71 74 70 79 77 76 74 70 82 69 79 84 82 84 86 87 88 89 89 90 89 89 90 90 90 88 86 84 85 86 88 85 88 88 92 93 94 94 92 92
70 72 72 69 72 77 72 81 77 75 73 75 76 72 80 85 80 82 86 88 90 90 91 91 90 90 91 91 91 89 86 85 86 85 86 87 86 92 93 93 91 89 90 91
73 82 78 76 79 78 79 75 75 76 74 64 73 73 76 77 82 85 88 89 90 92 92 92 93 93 92 93 92 91 86 84 85 85 84 85 86 88 91 90 91 92 93 93
70 72 77 80 74 78 75 71 63 60 61 61 77 72 76 86 89 90 90 90 91 93 93 92 91 91 91 90 90 90 87 83 84 85 85 85 85 86 86 87 90 91 93 94
63 60 72 78 75 73 72 73 65 54 60 66 76 68 75 88 90 94 95 96 95 93 93 93 92 92 91 90 90 89 87 84 85 85 85 85 86 89 90 89 93 93 94 95
61 62 71 71 78 78 72 66 79 71 73 67 74 76 84 89 89 90 91 93 94 95 95 94 94 93 92 90 90 89 88 84 85 86 85 85 86 86 90 89 90 92 92 95
62 55 68 71 71 74 73 80 66 69 56 56 68 71 72 79 82 88 90 93 95 97 97 96 95 94 94 93 92 90 89 85 86 88 87 88 87 87 88 89 87 89 91 90
63 58 62 65 66 68 69 67 71 74 69 61 60 69 85 83 86 86 91 94 97 98 99 98 97 96 95 95 94 92 90 87 87 88 88 88 88 89 88 89 88 88 88 89
62 59 54 62 69 70 68 69 72 63 61 68 68 71 88 88 91 91 92 95 98 99 100 99 99 96 95 94 94 93 92 90 89 90 88 87 88 89 89 88 89 89 87 88
61 56 49 55 65 68 64 68 70 73 74 64 63 67 88 88 87 90 90 91 92 93 97 99 99 96 94 94 93 93 93 93 93 91 90 89 88 88 88 88 88 89 88 88
58 57 52 51 54 58 54 60 63 67 62 65 67 71 80 83 84 84 85 86 88 89 91 95 97 97 95 93 92 92 94 96 95 93 91 88 87 88 89 89 88 88 88 87
57 48 54 56 58 57 55 56 58 58 63 62 69 70 77 82 81 80 82 83 82 85 89 90 94 95 94 93 92 91 93 94 95 93 91 89 88 88 88 88 88 88 88 88
58 47 51 49 56 57 54 58 59 60 61 63 65 66 81 82 82 80 79 80 80 82 84 86 89 92 94 93 91 91 91 93 94 91 91 90 88 87 87 87 88 87 87 87
50 49 46 44 55 53 49 58 60 62 64 64 59 69 79 73 78 77 74 76 77 79 81 83 84 87 91 95 93 91 91 93 91 90 89 89 87 86 86 87 87 86 86 87
49 47 47 45 50 39 59 63 62 63 66 69 69 72 71 70 75 76 75 73 74 76 77 79 83 86 90 95 99 94 94 90 90 88 88 88 87 86 86 86 86 85 87 86
57 45 43 42 45 53 56 48 48 45 59 64 64 68 68 68 72 72 74 75 73 73 75 78 82 85 87 90 95 95 92 91 89 88 87 88 88 86 86 85 85 86 86 86
55 53 40 43 38 37 42 45 49 48 41 56 60 61 61 64 63 72 72 73 71 72 74 77 81 85 90 90 95 95 90 90 87 87 88 88 88 87 86 86 85 86 86 86
38 38 35 38 37 48 50 52 49 36 41 52 54 55 59 56 65 69 72 71 67 68 68 74 80 82 88 95 93 93 90 89 89 90 89 88 88 86 87 86 86 86 86 88
34 32 34 36 34 35 52 52 39 43 47 50 52 54 55 57 62 69 69 67 66 65 66 71 73 75 84 93 92 90 87 89 88 90 89 88 87 88 89 86 85 85 85 84
34 40 38 41 44 52 50 48 52 50 46 49 49 52 54 56 59 65 66 63 62 65 63 67 71 74 77 84 91 86 86 88 88 88 87 86 86 87 90 85 84 86 84 88
37 37 36 40 49 49 46 52 52 51 50 50 53 52 55 56 57 60 62 61 61 62 62 64 66 72 71 74 78 79 84 87 86 85 85 86 85 84 87 90 89 89 90 88
37 37 36 38 46 42 46 48 49 50 52 51 53 53 54 56 56 58 59 59 59 61 62 63 63 64 67 71 73 77 79 85 85 85 86 86 88 85 87 89 91 91 92 90
38 36 34 34 40 40 42 47 49 48 49 51 50 52 55 55 55 57 57 59 60 60 63 61 62 62 64 68 70 73 76 79 83 84 86 88 91 89 90 90 89 57 57 54

GFSCGP_sfc_temp_075.txt.gz
Temp
81 76 74 80 83 85 86 84 82 88 94 88 85 84 71 89 92 90 90 89 90 91 94 94 95 95 95 94 91 89 89 89 89 90 89 90 91 93 95 97 95 93 94 92
79 72 82 86 86 83 83 80 82 89 93 89 85 83 88 89 90 91 91 89 90 91 91 92 92 94 94 92 90 89 89 88 88 90 90 93 93 94 96 97 93 94 93 92
75 80 84 83 81 79 80 79 80 81 89 91 87 82 82 74 86 93 94 93 93 91 91 91 91 92 93 91 90 88 88 87 87 89 91 91 93 94 94 93 93 94 94 94
78 85 80 80 78 81 74 83 83 82 81 74 87 72 83 77 68 89 92 93 93 93 94 94 93 92 93 92 92 90 88 87 87 88 88 86 89 89 93 94 96 94 94 94
75 78 77 75 78 82 77 85 82 81 79 80 81 75 83 89 80 87 91 94 95 96 95 94 94 93 94 94 93 91 88 87 87 87 88 89 87 92 94 96 90 93 91 93
78 87 83 81 83 83 84 81 81 81 79 67 76 78 79 81 85 86 92 94 95 97 96 96 96 96 95 96 94 93 88 85 86 87 86 87 86 89 92 92 92 92 94 93
74 76 83 84 78 83 80 76 65 63 64 64 80 76 80 91 89 89 93 94 96 98 97 96 95 95 93 93 93 94 88 84 85 86 86 87 88 87 89 90 92 91 95 96
67 65 77 84 78 76 76 77 67 56 63 69 79 71 79 93 94 89 96 96 98 97 98 97 96 95 94 94 94 93 88 85 86 86 85 85 87 91 91 91 94 95 97 97
66 67 80 83 83 82 77 71 82 74 78 73 77 80 89 93 94 89 82 94 95 98 98 98 98 98 96 95 94 92 90 86 86 87 85 85 86 87 90 90 90 94 94 98
69 60 76 79 81 81 78 84 70 72 59 60 73 76 76 83 88 92 93 95 98 100 100 100 100 98 98 97 96 94 92 87 87 88 88 88 87 87 89 91 90 91 93 93
71 65 67 74 69 70 73 71 73 77 73 64 65 73 90 87 89 91 94 96 98 100 101 101 101 101 99 99 97 95 93 91 88 89 88 88 89 89 89 90 91 90 91 92
70 66 60 66 78 80 78 74 75 66 64 72 73 75 94 94 95 94 94 98 100 102 101 102 104 102 100 98 98 96 95 93 91 91 89 88 89 89 89 89 91 91 89 90
66 60 54 58 68 74 69 73 75 77 77 68 67 72 91 91 92 95 94 97 98 99 100 101 104 101 100 98 97 97 96 96 95 91 91 90 89 89 89 89 90 91 90 89
62 59 56 55 60 66 64 69 73 73 66 69 72 75 83 87 88 89 89 90 92 92 94 98 102 101 100 98 96 96 97 98 97 95 93 89 88 89 90 90 89 90 90 89
61 51 58 61 64 64 63 63 66 66 69 63 71 75 81 84 87 85 86 87 87 88 92 95 99 101 100 98 96 96 97 97 97 94 93 91 89 89 89 89 89 90 90 90
60 49 53 53 59 62 59 63 64 65 66 67 70 70 83 80 85 85 86 85 84 87 89 91 93 96 99 98 96 96 95 97 96 93 92 91 89 88 88 88 89 89 89 89
53 49 48 44 56 59 53 61 64 66 69 69 64 72 81 80 81 79 80 80 81 83 85 85 87 91 93 98 98 96 95 96 94 93 92 91 89 87 87 88 88 87 87 89
55 49 45 42 51 38 62 71 70 66 69 73 73 75 78 79 79 80 82 78 78 80 80 81 85 88 92 96 100 100 99 93 93 91 92 91 90 88 88 88 87 87 88 87
62 55 41 38 44 53 58 55 55 55 63 68 74 76 78 75 75 76 83 80 78 77 79 80 82 85 88 90 93 96 97 96 93 91 91 91 91 88 88 87 87 88 88 88
61 60 50 46 37 37 48 54 58 59 53 62 64 62 62 67 64 71 76 78 76 77 77 78 80 85 88 90 94 92 96 94 91 91 92 92 91 89 88 87 87 88 89 89
44 45 42 43 40 50 57 60 59 43 49 57 56 57 59 55 61 66 74 76 76 74 74 76 78 79 83 86 91 92 93 94 95 94 93 92 91 89 89 88 88 88 88 89
38 38 38 40 37 37 59 59 49 54 58 57 57 55 54 57 61 63 69 73 73 71 71 74 74 73 77 84 87 90 88 93 94 93 92 90 89 91 92 87 88 87 87 85
37 36 35 42 47 59 60 56 60 61 56 55 56 58 56 57 60 64 66 71 71 69 69 70 70 72 72 76 81 90 92 92 92 91 89 89 89 90 91 87 86 87 87 88
43 43 37 42 54 57 54 60 56 54 53 54 57 57 55 54 59 61 62 68 68 65 64 66 68 69 67 71 72 76 76 90 90 88 88 89 88 87 89 91 90 89 90 89
39 39 38 38 47 46 52 49 48 49 52 54 56 58 56 55 56 59 61 63 64 62 63 66 66 65 65 67 67 69 71 71 83 85 88 88 89 86 88 91 92 92 92 89
38 35 34 34 38 38 40 46 49 48 49 52 54 56 58 57 55 57 59 60 62 60 62 65 65 65 65 67 64 65 68 68 76 80 83 89 91 90 90 91 87 57 63 54

GFSCGP_sfc_temp_078.txt.gz
Temp
82 74 70 76 80 82 81 81 81 86 93 89 85 74 73 72 72 67 78 87 87 86 91 94 95 95 93 91 87 87 86 83 84 84 84 84 84 86 84 85 86 88 87 87
77 70 79 84 84 82 81 78 80 87 92 90 86 74 72 70 72 67 72 86 88 88 87 91 92 93 92 88 86 85 84 82 83 85 84 86 86 88 88 89 88 88 90 87
73 79 83 81 81 79 79 77 79 80 88 92 87 70 66 70 77 78 81 91 91 90 86 89 90 91 92 88 86 84 84 82 84 85 84 85 86 85 86 84 87 89 90 89
77 83 82 79 77 81 73 84 82 81 79 73 88 70 67 68 66 79 81 77 91 92 90 90 91 91 91 89 89 85 84 83 83 84 83 83 83 83 85 74 87 88 89 88
74 78 78 77 79 82 77 86 82 81 77 77 79 74 81 76 74 74 70 76 91 93 93 91 92 91 93 91 90 87 84 83 83 82 84 84 82 86 88 87 83 84 86 89
78 87 84 82 84 84 86 81 80 80 77 66 74 76 76 72 73 72 81 83 88 94 95 95 94 93 93 93 91 88 83 81 82 82 82 82 81 84 85 85 84 86 86 87
74 76 83 86 78 83 81 75 62 61 62 62 77 73 77 87 83 80 79 87 93 93 94 94 93 92 91 90 90 88 82 80 81 81 82 83 82 82 83 84 86 84 86 86
65 63 77 83 79 75 76 74 63 53 59 65 77 69 77 91 95 92 91 95 95 95 92 94 93 93 91 91 89 88 82 80 81 82 80 81 83 85 85 86 87 87 88 89
62 65 82 82 84 81 75 70 80 70 73 67 73 78 86 92 92 91 83 82 86 78 95 95 96 95 93 91 89 87 83 81 81 82 81 80 82 83 84 85 86 87 86 89
67 57 74 79 83 83 77 82 68 71 57 56 68 73 75 82 87 91 88 75 73 72 82 98 97 96 95 94 92 90 86 82 82 82 83 83 81 83 83 83 84 85 88 89
69 64 64 73 70 70 73 71 73 74 71 60 60 70 89 84 88 90 88 77 70 72 75 89 98 97 96 95 94 92 89 84 83 84 83 82 82 83 83 85 85 85 85 87
67 62 56 64 76 81 77 71 73 63 60 69 69 72 90 91 94 95 94 88 87 80 70 71 92 98 97 95 95 93 92 90 86 85 83 83 83 82 83 82 86 86 85 87
62 58 52 56 67 75 71 73 74 73 73 62 64 69 91 92 93 95 94 96 94 92 79 78 90 97 95 95 93 94 93 93 91 87 86 84 84 83 82 82 84 86 84 84
63 57 52 49 58 63 61 69 72 71 65 66 68 72 81 84 75 87 87 88 90 90 93 94 91 97 96 95 92 92 94 95 93 90 87 84 83 83 84 84 83 84 85 84
61 50 55 58 60 60 62 64 67 66 68 63 67 72 62 65 71 70 87 87 87 87 89 87 91 87 90 93 91 92 94 92 93 89 87 85 84 84 84 84 84 84 84 85
60 49 52 49 58 58 57 62 66 67 67 67 69 66 67 68 72 78 75 83 83 84 85 84 84 86 81 83 92 92 92 92 92 88 87 86 84 84 84 84 84 84 84 84
56 43 46 42 54 55 49 59 64 65 69 68 61 70 76 72 73 64 71 75 77 79 79 80 81 84 85 80 80 92 92 93 90 89 88 86 85 84 83 84 84 83 83 84
55 53 44 42 47 34 55 69 69 66 68 73 72 73 75 71 69 73 75 75 76 75 76 77 81 82 84 85 89 88 96 90 89 88 88 87 85 84 84 83 83 83 84 83
62 54 43 36 41 44 52 57 55 55 62 67 63 65 64 67 73 63 70 75 75 74 75 76 79 81 81 82 85 87 87 91 90 88 87 87 86 85 84 82 82 83 84 84
56 57 49 46 37 35 47 59 63 63 52 61 60 58 59 64 63 57 67 73 75 75 75 73 76 80 80 81 83 85 87 87 88 88 89 89 88 86 84 83 83 84 84 85
43 39 38 43 42 49 54 55 63 43 48 60 61 60 58 56 59 64 68 70 73 74 73 73 74 74 73 75 76 76 83 86 89 91 90 88 88 85 85 84 84 84 84 85
39 37 37 41 39 37 60 59 49 54 59 61 60 60 59 61 61 63 66 68 70 72 71 72 70 71 73 72 70 70 74 73 86 90 89 88 87 89 90 84 84 84 83 82
37 38 34 39 41 53 55 50 51 61 59 61 58 59 60 59 59 62 63 66 67 70 69 70 69 69 70 69 67 65 68 71 73 88 86 86 87 88 87 84 83 83 83 84
47 46 39 41 50 49 49 52 50 51 51 55 58 59 60 58 59 60 63 64 65 67 67 68 68 68 67 67 64 64 66 68 70 86 86 86 86 84 86 88 86 85 84 83
45 43 41 41 48 43 51 46 48 49 51 52 56 58 58 58 58 58 60 61 63 65 66 66 67 67 66 65 64 63 65 67 68 80 86 86 87 83 85 86 86 86 87 86
42 37 35 36 40 37 39 44 46 45 47 49 50 52 55 58 58 59 60 62 64 63 65 65 66 67 66 65 63 62 63 64 64 73 73 83 86 85 85 85 83 56 65 58

GFSCGP_sfc_temp_081.txt.gz
Temp
72 61 57 64 68 70 71 69 66 73 82 78 76 66 68 71 69 68 69 72 80 82 83 89 89 87 84 83 82 79 78 79 79 75 75 75 76 78 76 78 80 79 80 82
65 60 70 76 75 72 70 67 67 73 81 76 68 66 68 70 69 72 71 73 71 82 83 83 87 86 83 82 80 78 79 77 78 76 75 76 76 77 78 81 80 81 81 81
62 69 78 75 71 71 69 64 67 67 77 76 67 62 62 69 71 71 72 72 71 75 82 84 86 85 83 81 79 78 78 78 77 78 75 76 77 77 76 78 78 80 81 81
67 76 76 72 70 72 58 75 76 75 67 56 71 51 61 66 65 66 70 69 68 69 81 85 84 84 83 81 82 78 78 78 77 79 76 75 74 73 75 76 78 79 81 80
64 70 70 70 72 76 68 77 73 71 65 58 67 55 58 66 64 66 66 66 68 71 81 84 86 85 85 83 83 80 78 79 80 77 78 75 74 76 76 75 77 77 79 80
69 79 74 72 79 78 79 72 69 65 58 48 60 56 55 60 67 71 72 71 69 79 85 85 87 87 85 85 83 81 78 78 78 76 75 75 75 75 79 75 78 78 78 78
65 69 74 79 68 74 69 56 46 44 46 47 59 58 63 69 74 75 75 78 83 81 85 84 85 86 85 83 82 81 78 76 78 77 76 75 75 75 75 75 79 78 76 76
50 51 66 76 68 62 63 58 48 40 42 51 61 52 64 77 81 81 80 82 81 82 86 85 85 87 86 84 82 81 79 77 78 77 76 75 75 77 75 77 77 80 82 81
49 53 69 74 75 71 63 57 66 53 57 53 58 63 73 79 76 80 80 79 80 83 87 87 87 87 87 85 83 81 78 78 78 78 77 75 74 76 76 77 78 78 80 81
55 45 61 69 72 73 62 68 53 54 41 42 53 57 58 68 76 78 79 77 74 76 77 78 74 87 88 88 86 84 79 78 78 79 79 78 77 75 76 77 77 78 79 80
57 48 52 61 57 58 63 61 58 58 55 49 44 53 69 73 75 76 78 78 76 71 75 78 73 71 71 89 86 84 79 79 78 79 79 79 78 76 75 76 77 77 78 78
54 46 42 51 64 68 65 63 56 50 48 52 50 57 70 69 71 76 78 80 78 75 72 70 71 70 69 70 88 85 81 80 80 80 80 79 79 78 79 75 75 77 78 77
53 43 36 44 51 59 55 60 61 61 55 49 46 53 70 71 70 69 75 73 75 73 71 70 70 70 70 70 82 87 85 81 81 81 80 79 79 79 78 79 75 79 77 79
57 43 39 35 44 52 50 55 58 58 52 52 55 60 62 64 66 65 67 74 73 71 74 70 68 67 69 71 77 88 87 84 83 82 80 79 79 80 80 81 79 76 80 76
50 38 43 48 53 54 53 54 55 53 58 53 57 60 60 63 61 62 65 69 69 71 71 70 71 69 69 70 74 88 89 88 84 82 81 80 80 81 80 80 79 81 76 82
50 39 40 41 51 53 50 54 56 56 59 60 60 61 66 63 64 60 61 64 67 67 69 72 71 72 69 70 71 71 81 88 87 83 81 82 81 80 80 80 80 79 81 76
44 39 36 32 46 47 41 50 53 56 60 60 54 57 67 61 60 58 60 61 66 66 67 68 69 71 68 69 69 67 69 71 85 85 83 82 81 79 80 80 80 79 80 82
45 41 37 31 36 27 46 56 58 56 54 56 56 59 62 57 57 58 60 60 64 65 66 67 68 71 72 71 70 68 68 69 71 83 83 82 81 80 80 81 80 80 80 80
50 44 35 31 31 41 47 53 52 48 48 56 53 56 57 59 61 58 62 64 65 66 67 67 70 71 70 70 69 71 72 73 71 81 83 82 82 80 80 79 81 81 81 81
48 45 36 37 30 30 42 55 60 57 40 56 57 55 53 56 48 49 61 65 64 67 66 66 68 69 68 67 68 68 69 70 69 73 82 84 83 82 81 81 81 82 82 82
35 36 32 33 32 41 47 52 58 40 37 48 55 55 52 48 52 56 61 63 65 66 65 67 66 66 66 66 65 63 64 65 66 69 71 83 84 83 83 82 82 82 81 82
36 31 30 33 33 31 48 50 39 43 48 51 52 52 51 53 56 58 58 59 62 63 64 64 63 63 65 65 63 61 61 64 65 67 68 80 82 84 84 82 82 82 81 80
35 36 31 34 37 48 46 44 46 49 48 48 47 49 51 52 53 55 57 59 60 62 63 61 61 62 62 62 61 59 61 63 63 65 67 76 82 84 85 81 81 80 81 80
41 43 35 37 44 43 44 44 45 47 46 47 49 50 50 49 53 53 54 58 59 60 61 61 59 60 59 60 61 58 62 63 63 63 66 77 82 81 83 83 83 81 81 80
39 39 37 36 42 41 45 44 44 45 47 48 50 49 49 49 50 52 54 55 59 58 62 61 57 59 58 59 58 58 59 61 60 61 64 70 78 77 79 82 80 82 84 81
41 36 33 32 39 39 40 45 46 43 44 45 45 45 48 51 49 51 52 54 58 57 57 59 58 58 57 58 57 58 58 60 60 60 62 61 66 71 75 75 75 57 62 59

GFSCGP_sfc_temp_084.txt.gz
Temp
66 58 53 60 62 64 63 60 60 68 75 71 68 63 66 67 69 69 70 74 75 80 80 84 84 82 82 81 79 78 75 73 74 72 72 72 73 73 73 75 77 77 78 79
60 53 65 70 70 67 64 60 60 67 73 67 63 60 66 67 68 69 68 71 76 80 80 82 84 82 80 80 78 77 77 74 75 74 73 74 74 76 75 76 76 78 79 78
56 64 73 70 66 65 61 57 62 62 70 67 64 60 61 66 69 70 71 75 77 79 79 81 83 81 80 79 76 77 77 76 75 74 74 73 74 74 73 74 76 77 78 78
60 71 70 66 65 65 53 68 70 68 61 53 64 47 57 63 63 66 71 73 73 73 78 81 82 81 80 80 79 78 77 77 76 74 73 72 71 71 73 73 75 76 78 78
60 65 65 64 67 70 63 72 67 65 57 54 57 52 52 63 60 62 68 72 73 77 77 78 82 82 82 82 80 78 78 76 78 76 76 72 71 72 73 75 75 75 75 77
65 72 69 67 73 72 75 66 61 56 52 46 53 53 50 58 64 68 71 71 74 76 78 79 83 84 81 82 81 78 77 76 76 76 73 73 72 72 72 72 73 73 74 75
60 63 67 72 63 67 65 53 43 43 43 43 48 51 55 65 71 73 71 71 76 80 80 77 79 82 80 80 80 78 76 75 76 75 75 73 73 73 73 73 76 73 73 73
45 48 60 68 59 56 56 54 44 38 39 45 53 48 59 70 74 77 77 76 77 75 78 78 81 82 82 80 80 78 76 76 77 76 75 74 73 75 73 73 77 79 78 77
44 48 64 67 67 62 58 50 57 48 43 44 49 58 67 69 69 73 76 74 76 77 77 82 83 84 82 80 80 79 77 77 77 77 77 73 72 72 74 74 74 79 80 78
47 42 53 62 65 64 56 60 49 46 39 37 46 49 52 57 61 65 72 75 75 77 78 81 81 80 80 82 81 81 79 78 77 78 78 77 76 72 73 74 74 75 77 76
44 43 47 56 50 49 53 49 48 48 46 41 40 47 59 59 62 61 68 76 76 76 77 80 79 80 80 79 79 80 80 79 77 78 78 78 77 73 72 75 76 75 75 76
47 39 36 44 55 59 57 49 45 39 41 44 44 47 64 63 63 64 67 75 77 78 75 75 74 72 71 73 80 76 78 78 79 79 78 77 77 77 72 73 75 75 75 75
49 37 31 38 44 50 48 54 47 45 42 42 44 47 63 62 61 64 64 65 66 68 68 68 69 70 70 70 70 74 78 76 78 79 78 78 77 77 78 76 72 73 75 75
53 36 34 29 37 44 44 50 53 43 36 40 44 51 54 57 57 59 62 65 65 66 67 66 67 69 68 69 69 70 72 78 75 77 78 77 77 78 79 79 75 73 74 74
45 35 36 38 46 48 48 49 50 46 46 38 48 52 50 54 55 57 61 63 63 63 64 64 64 67 68 69 71 71 70 74 76 73 74 78 78 78 78 79 78 76 73 76
42 35 35 37 47 46 45 49 50 51 52 53 52 55 56 56 60 58 60 60 61 61 64 65 65 66 66 67 69 70 72 74 78 75 75 74 78 77 77 77 78 76 77 74
40 35 32 28 41 42 35 43 48 49 49 50 46 49 53 54 53 53 57 60 59 61 63 63 63 64 64 65 68 68 68 68 69 75 79 78 74 76 77 77 77 77 77 79
38 34 32 28 33 26 40 51 55 49 51 52 51 53 54 55 54 55 58 60 60 62 62 64 64 64 65 65 65 68 69 69 69 70 71 75 75 76 76 77 76 77 77 78
42 36 30 28 27 36 44 44 45 44 45 49 45 52 54 55 57 53 59 62 62 62 62 64 67 68 66 64 64 65 68 69 69 70 68 68 75 75 75 77 77 78 78 78
40 38 34 29 27 27 35 46 50 52 38 48 50 51 51 52 41 46 55 60 62 64 63 64 67 67 65 66 64 63 62 64 64 64 66 68 67 75 76 78 79 79 80 79
29 30 27 28 27 35 42 47 51 34 34 46 49 46 46 43 48 50 57 58 61 63 64 65 62 63 65 65 63 61 60 60 62 64 65 68 69 75 78 79 80 80 80 80
30 26 22 26 26 27 44 46 37 40 45 47 48 47 45 48 51 53 55 57 58 60 62 61 61 61 63 62 61 59 58 61 62 63 64 65 67 72 83 80 80 79 79 78
31 33 28 31 31 39 40 39 42 41 41 41 42 46 46 46 48 50 51 54 56 57 60 62 58 59 62 62 58 57 58 60 60 63 64 65 67 70 76 77 79 79 79 78
36 38 30 33 39 39 40 42 42 42 40 44 45 46 48 47 48 47 50 52 54 57 58 60 58 58 59 59 59 56 57 58 58 60 62 64 63 71 75 75 80 80 79 78
35 37 33 32 38 39 41 41 42 46 43 44 45 47 46 45 44 46 47 49 52 52 55 58 58 58 58 56 57 57 56 55 56 58 60 62 62 65 73 76 77 81 82 80
36 33 29 29 37 36 37 41 43 42 42 44 43 44 46 46 45 46 46 49 50 51 53 55 57 57 57 56 55 55 55 54 54 57 58 60 61 62 66 72 71 57 60 58

GFSCGP_sfc_temp_087.txt.gz
Temp
63 56 51 58 60 62 60 56 55 63 70 67 63 63 65 66 68 68 70 72 75 77 78 81 80 81 79 79 77 77 75 73 73 71 71 70 71 71 72 73 75 75 74 75
57 52 63 66 66 63 59 56 56 63 69 64 60 59 65 65 66 69 69 72 74 77 75 79 79 79 78 77 77 77 76 74 74 72 71 73 72 72 72 74 74 76 76 76
54 61 70 66 61 61 55 52 56 59 64 64 62 59 60 64 67 68 69 74 76 75 75 78 79 78 78 77 76 76 76 75 74 73 72 72 73 71 72 72 73 75 77 76
58 67 67 62 61 62 49 64 65 64 57 50 60 45 58 63 62 65 67 68 72 76 77 78 79 77 78 78 78 78 76 75 74 72 72 72 70 70 72 72 72 75 76 76
58 61 61 61 63 66 60 67 64 62 54 50 54 49 50 60 58 62 67 69 72 75 78 78 80 78 79 80 78 78 76 75 73 74 74 73 70 71 72 72 73 73 74 76
62 68 65 64 68 68 70 62 57 51 49 43 50 51 49 54 61 66 69 71 73 75 76 80 82 81 79 80 79 78 75 75 74 74 71 72 72 71 70 70 72 72 72 73
57 59 63 66 58 63 60 50 42 41 41 42 46 49 51 61 64 68 69 71 74 77 76 78 79 80 78 78 78 77 75 74 74 74 72 72 73 71 71 71 73 71 71 72
43 46 57 64 56 51 52 50 43 37 37 42 47 47 52 63 65 67 71 75 76 76 77 79 77 80 79 79 78 77 75 74 75 74 73 71 71 72 72 71 72 74 75 76
41 45 60 63 63 58 53 46 49 43 39 43 46 52 59 63 62 64 65 68 75 75 77 79 79 80 80 79 78 77 75 75 75 76 75 72 71 70 72 72 72 74 74 77
43 40 50 58 61 60 53 54 45 43 37 36 44 44 45 54 55 60 61 64 69 74 75 78 79 78 80 81 80 79 77 76 76 76 76 76 74 72 72 72 72 72 74 74
40 42 47 52 48 47 47 44 41 42 42 38 38 41 56 58 57 58 60 63 67 73 73 74 77 80 77 79 80 78 77 77 76 77 77 77 75 70 70 71 73 73 73 73
45 37 35 40 51 57 53 44 39 36 36 39 40 41 59 59 61 60 61 61 64 65 66 68 69 70 69 71 77 75 76 77 77 77 77 76 76 74 71 71 72 73 74 73
45 34 31 37 43 47 44 48 41 39 35 34 36 41 59 58 58 61 61 61 62 63 63 65 66 67 68 68 68 70 72 72 76 77 77 76 76 76 74 73 71 72 74 74
50 32 32 30 33 40 40 46 47 38 34 36 40 43 49 54 53 57 60 63 63 63 62 62 62 64 67 67 68 69 70 72 71 75 77 76 76 76 77 77 72 72 73 74
43 34 34 35 41 44 43 45 46 40 41 36 43 45 48 54 54 55 58 62 62 62 62 61 62 63 65 65 69 70 70 71 72 71 72 76 76 77 77 77 77 73 73 74
40 33 34 34 43 43 41 46 47 47 47 47 48 43 52 55 56 54 55 59 58 59 62 62 63 65 63 65 65 67 68 70 72 72 71 72 76 76 75 75 77 76 74 75
37 33 31 27 37 38 34 42 45 45 45 45 40 47 52 52 51 51 52 55 58 58 59 61 61 63 63 63 64 63 67 69 69 71 72 72 70 73 74 75 75 76 76 75
35 32 29 26 31 26 37 46 51 46 46 45 45 49 54 54 56 55 56 55 58 59 58 58 60 61 63 64 63 63 65 69 68 71 72 72 71 71 72 74 74 75 77 76
38 33 28 27 26 34 41 42 41 38 41 46 44 46 48 53 58 55 56 59 59 59 58 57 63 63 63 63 63 61 62 63 66 68 67 69 69 70 72 72 75 76 76 76
38 35 32 27 27 27 35 44 49 46 32 44 45 44 43 49 45 50 54 57 59 60 62 60 60 64 60 62 61 60 59 61 61 62 64 66 67 66 69 72 72 74 76 77
26 27 26 25 25 33 40 45 47 32 32 42 45 43 42 39 44 49 54 55 57 57 59 63 60 59 62 62 62 59 58 58 60 61 63 64 66 67 67 68 72 72 72 74
28 24 22 25 29 27 44 45 37 38 38 40 42 42 41 43 46 49 50 51 51 55 56 59 60 58 60 61 60 59 58 59 59 60 61 62 64 67 70 68 71 73 72 72
27 31 27 30 30 38 40 40 40 39 37 38 38 41 42 42 44 47 49 50 50 51 55 57 56 58 58 60 57 56 55 58 58 59 60 61 63 65 66 67 70 72 72 72
34 36 29 33 35 37 39 40 41 41 39 40 40 41 43 42 44 46 47 48 48 50 51 54 55 56 57 58 57 57 56 57 56 56 58 59 62 61 64 68 72 72 72 71
34 35 32 31 36 37 41 40 41 41 43 42 43 43 45 43 44 45 45 45 46 48 50 52 53 54 56 58 57 56 55 54 53 54 56 58 60 61 62 65 71 74 76 72
35 33 30 29 37 37 37 41 42 41 41 42 43 44 45 47 45 45 45 48 47 46 48 49 51 53 55 57 56 55 53 52 51 52 54 55 58 60 62 63 65 60 58 56

GFSCGP_sfc_temp_090.txt.gz
Temp
59 53 49 55 58 59 59 56 53 59 66 62 62 60 62 66 67 67 69 70 72 73 76 78 79 78 77 75 73 73 72 72 72 71 71 71 72 73 73 75 76 75 74 75
55 50 60 64 62 61 57 55 53 60 65 62 59 57 62 64 64 67 68 70 72 74 75 77 77 77 77 75 74 73 73 72 73 72 72 73 72 73 74 75 76 77 77 76
53 60 67 64 60 60 53 51 53 56 61 61 59 55 57 62 65 67 69 71 73 74 74 75 76 76 77 75 74 74 74 72 74 72 72 71 73 72 73 74 75 76 76 78
57 64 66 59 58 60 45 62 63 60 55 49 58 46 52 58 60 64 66 67 70 72 75 76 76 75 76 76 77 75 75 73 74 72 72 72 71 71 73 73 74 76 77 76
57 60 59 57 61 63 58 64 61 59 53 48 52 49 51 57 57 62 65 66 69 72 74 76 77 77 76 78 77 77 74 73 73 73 73 72 71 72 74 74 75 75 75 77
58 64 61 60 65 66 66 59 54 49 47 43 47 49 48 52 56 62 67 68 70 73 76 77 79 78 77 79 78 77 73 72 71 73 71 71 71 71 72 73 73 74 73 76
55 56 60 62 56 60 57 49 39 40 40 41 43 47 46 57 60 61 61 67 71 72 75 75 77 77 77 77 77 76 73 71 71 72 71 71 72 72 72 73 73 73 73 74
42 44 54 62 53 49 49 47 41 36 35 42 44 44 51 60 62 64 65 65 69 73 76 75 78 78 77 77 76 76 73 73 72 72 72 70 71 73 73 73 73 74 75 76
42 44 57 60 59 55 49 45 46 41 36 41 44 49 57 62 60 61 61 62 62 70 76 77 78 80 78 77 76 75 74 74 73 73 72 70 70 71 73 73 73 74 75 77
41 40 48 55 58 57 51 50 44 42 36 35 41 42 45 54 56 59 59 59 61 65 73 77 79 78 79 79 77 77 75 75 74 75 74 73 72 71 72 73 73 73 75 76
39 41 46 49 44 41 45 41 40 41 39 37 35 40 55 56 59 58 59 60 61 62 65 73 76 73 73 74 79 77 76 75 75 75 75 74 73 71 71 73 74 74 75 75
43 37 34 37 48 50 47 41 37 39 37 36 38 40 55 57 59 61 61 61 62 64 64 64 66 68 70 72 72 75 76 76 76 75 75 75 74 73 72 72 73 74 74 74
43 34 31 35 41 45 42 45 37 36 35 34 36 40 56 57 57 59 58 61 61 62 63 64 63 65 66 68 69 71 71 74 76 74 76 74 73 73 73 73 72 72 74 74
48 31 33 31 33 38 38 44 44 37 35 35 39 46 51 52 53 55 58 60 62 61 61 62 62 63 64 65 68 70 71 71 72 76 75 73 73 73 74 74 73 72 73 74
42 33 32 33 40 42 42 43 44 39 40 37 42 47 48 51 51 52 56 59 58 59 61 60 61 62 62 63 64 66 69 71 71 71 73 74 74 74 74 73 73 73 73 74
38 33 33 33 41 41 40 43 45 44 44 45 43 42 53 54 54 51 51 54 56 57 58 60 61 62 62 62 62 64 65 69 70 71 71 73 74 73 73 73 73 72 73 73
35 32 30 26 35 37 33 39 42 43 43 43 39 44 53 52 50 49 50 52 53 55 57 58 59 61 61 62 62 61 62 64 70 69 71 71 71 73 73 73 72 72 72 74
34 31 28 26 28 25 37 44 48 44 44 45 45 47 49 49 54 53 54 52 53 54 55 58 59 60 61 63 63 62 62 62 62 66 70 72 72 71 72 73 71 71 73 73
36 33 27 27 25 32 39 43 41 39 39 44 43 44 47 50 53 52 53 55 54 55 55 57 61 61 63 62 62 62 61 61 61 60 62 65 68 71 71 71 72 73 73 73
36 34 32 26 28 27 35 44 47 45 34 43 45 43 42 45 41 46 49 52 55 55 55 55 59 62 60 62 62 60 59 59 58 59 60 62 64 66 68 71 71 71 74 74
25 27 27 26 26 33 41 45 46 34 34 42 43 42 41 39 42 45 49 50 52 55 55 56 55 57 61 62 62 59 59 58 59 60 61 62 63 65 68 68 69 71 72 73
28 25 23 27 29 27 44 44 38 38 40 41 41 41 40 41 43 44 46 47 49 51 53 54 53 52 58 61 60 59 58 59 60 59 59 60 61 64 66 67 68 69 72 71
26 31 28 30 30 39 41 41 40 40 39 40 39 41 40 40 41 43 43 45 47 48 50 52 51 52 53 58 60 58 59 59 59 59 58 59 60 63 64 64 66 67 70 71
33 35 29 33 35 38 40 41 42 41 40 41 41 41 42 39 41 42 44 45 46 47 47 48 49 50 50 54 57 59 59 58 57 57 58 57 58 59 62 64 65 66 68 71
34 35 31 31 36 37 41 41 42 42 42 42 43 42 42 42 42 44 46 47 47 47 48 48 48 48 49 52 54 58 57 56 55 55 56 57 57 57 60 62 64 66 68 71
34 33 30 31 38 37 39 42 42 41 41 43 42 42 44 44 43 45 47 48 48 48 49 48 48 48 49 52 53 57 57 55 53 53 55 54 54 56 59 61 62 58 54 53

GFSCGP_sfc_temp_093.txt.gz
Temp
71 67 64 69 71 71 71 70 68 71 75 71 73 73 72 72 74 73 74 75 78 79 83 85 85 85 85 84 82 82 81 81 82 82 82 82 83 84 82 86 84 84 82 83
67 64 70 73 71 71 70 68 67 71 73 73 70 70 71 73 74 74 74 75 77 80 81 82 84 85 84 83 82 81 81 81 81 83 83 85 85 85 86 86 85 85 84 84
65 69 72 71 69 68 68 68 67 69 70 71 69 66 67 70 73 75 77 78 80 80 81 82 83 83 84 83 82 82 81 81 82 83 83 82 82 83 84 84 85 83 87 86
69 73 71 69 68 71 65 72 71 69 68 66 70 64 65 68 68 71 74 76 79 80 82 84 84 84 84 84 85 83 82 81 82 82 82 81 84 80 86 86 86 86 85 85
66 68 68 67 69 72 68 72 71 70 69 67 65 68 64 68 66 69 73 75 78 80 83 85 85 85 86 86 85 84 82 81 82 81 82 83 83 86 86 86 83 84 84 85
68 73 71 71 73 75 74 69 67 67 68 61 64 67 60 62 62 67 72 76 77 79 78 85 87 87 86 87 86 85 82 80 81 80 81 81 82 82 84 84 85 86 83 86
65 65 69 70 69 71 71 68 58 57 58 59 63 64 57 64 66 65 67 71 75 80 81 81 84 85 84 85 84 85 81 79 80 80 81 81 82 82 82 82 85 85 86 87
59 55 64 68 65 66 68 69 61 50 53 60 62 57 55 66 69 70 70 70 72 74 80 82 82 85 84 84 84 81 80 80 80 80 80 81 81 84 86 85 87 88 88 88
57 55 65 65 66 65 63 63 65 60 57 62 62 60 63 68 68 68 64 64 65 72 76 82 84 86 86 84 83 83 81 80 80 81 81 80 81 81 84 84 84 87 86 88
58 54 60 62 66 67 65 64 61 63 51 52 54 54 55 58 61 64 60 60 63 67 78 82 85 85 86 84 85 84 84 81 82 82 82 82 81 82 82 83 83 84 85 85
60 60 57 61 55 53 61 61 58 62 58 57 52 53 60 56 58 59 59 60 61 64 65 70 75 85 86 83 84 83 84 82 82 83 83 82 82 82 82 83 84 84 85 84
56 58 50 52 58 59 59 54 55 58 52 55 61 51 60 58 59 61 61 61 62 63 64 66 67 69 74 80 81 81 84 84 84 82 81 82 82 82 82 82 83 84 84 84
58 51 48 49 57 58 54 56 56 54 58 53 57 51 58 58 57 58 60 62 62 63 62 63 64 64 65 67 72 77 83 86 85 80 80 80 81 81 82 82 82 83 83 84
59 51 49 52 49 53 51 53 55 55 55 53 56 50 52 52 52 54 57 62 64 65 62 61 62 62 62 64 65 66 75 81 84 85 81 80 80 81 82 83 82 82 82 82
58 48 50 50 51 51 51 51 53 53 53 53 54 49 49 51 52 53 56 59 60 63 64 63 60 61 63 62 62 64 66 70 78 80 82 82 82 82 82 81 82 82 82 82
53 47 50 46 50 51 49 51 53 53 53 54 55 48 54 57 58 59 59 59 57 59 62 64 64 61 61 62 62 62 62 64 70 75 77 80 81 81 80 81 81 81 81 81
51 49 47 43 46 48 45 50 51 50 51 55 52 52 54 53 53 57 58 59 59 59 61 63 65 65 61 62 64 63 63 63 65 65 68 75 78 78 80 80 80 80 80 81
50 48 46 44 46 37 48 54 54 51 51 55 54 54 55 55 57 57 59 58 58 59 60 62 65 67 68 64 67 65 65 63 62 61 62 64 67 75 78 79 79 79 80 80
52 51 42 42 42 44 47 51 51 51 45 52 53 53 54 57 61 57 58 58 58 59 61 62 65 66 67 68 68 67 67 64 63 61 61 62 64 66 68 74 77 78 78 79
50 51 49 42 39 38 47 51 55 55 46 53 54 53 53 56 55 58 57 58 58 60 61 61 62 64 66 67 69 66 66 63 63 62 62 62 64 64 65 67 69 72 76 76
43 44 43 43 42 47 51 53 55 43 47 53 53 52 52 52 55 55 56 56 57 58 59 60 60 61 62 64 65 64 63 63 64 64 63 62 64 63 64 66 68 68 71 73
42 40 38 40 39 37 54 51 47 50 53 54 53 53 51 52 53 54 55 54 55 55 56 58 57 58 60 61 61 62 63 66 65 61 63 62 62 64 65 65 65 67 69 70
39 45 42 45 47 49 55 52 53 56 53 51 53 53 51 51 52 53 54 55 55 55 56 57 56 56 58 60 60 59 62 64 65 64 60 60 61 62 66 63 63 64 67 72
45 46 45 45 51 50 53 52 53 53 54 54 54 53 53 52 54 54 55 55 56 57 56 57 56 55 55 58 58 58 60 62 64 64 63 60 60 59 60 63 65 64 64 67
47 46 45 46 48 48 52 54 55 53 53 53 54 54 53 53 53 54 54 54 55 55 56 56 55 55 55 57 57 59 60 61 62 64 64 64 62 60 59 59 60 65 65 64
47 43 41 43 54 52 52 56 55 52 52 53 53 53 54 54 53 54 54 55 55 54 54 54 54 55 56 57 57 58 60 60 61 62 64 65 63 64 64 60 60 56 53 53

GFSCGP_sfc_temp_096.txt.gz
Temp
80 75 73 78 82 83 82 80 78 79 83 80 79 81 79 80 82 80 80 82 84 87 91 92 92 93 92 92 89 88 87 86 88 89 89 90 90 86 90 91 90 89 89 88
75 72 81 83 81 79 80 78 78 79 82 81 77 79 80 81 81 82 81 80 80 85 89 90 91 92 91 90 89 87 87 86 87 90 90 92 90 91 93 92 91 91 90 89
73 78 81 79 77 76 79 78 77 77 79 82 76 75 76 77 82 79 79 82 84 84 88 89 90 91 92 90 89 88 86 86 87 89 89 87 89 87 89 86 90 92 91 91
76 81 77 77 76 79 74 80 78 77 77 73 81 63 73 77 77 74 79 78 82 83 86 91 91 91 92 92 92 90 88 86 87 87 89 86 90 90 93 92 91 91 91 91
73 75 75 74 77 80 77 81 79 79 77 77 76 74 72 78 73 76 79 80 83 88 86 89 93 93 94 94 93 92 88 87 88 87 87 86 87 92 93 94 85 86 89 91
77 82 80 80 81 81 81 78 77 79 79 68 77 76 68 71 68 75 79 82 83 81 87 86 94 95 94 96 94 94 88 86 86 87 86 86 87 89 90 90 84 88 92 91
72 74 77 78 75 80 79 76 65 63 64 66 79 75 64 70 71 73 75 78 82 87 82 84 90 93 93 93 93 93 89 85 86 86 87 86 86 86 87 87 90 90 93 94
66 61 72 75 75 74 75 77 69 56 62 68 75 67 59 74 77 75 69 70 75 80 86 81 82 93 93 93 92 91 89 85 86 87 86 86 86 89 91 90 94 93 95 95
67 62 72 72 76 75 75 70 81 72 76 71 71 66 72 75 75 73 66 64 67 75 86 87 91 92 94 93 92 91 89 86 87 88 86 86 86 86 90 89 90 93 93 96
70 61 70 71 74 76 75 80 69 72 60 59 66 63 62 64 65 68 63 60 63 68 76 86 84 89 92 95 94 92 88 83 85 88 89 88 88 87 88 89 88 90 92 92
74 70 65 70 67 68 71 71 73 76 72 65 61 61 62 61 61 62 61 61 61 64 68 73 68 73 88 94 92 93 92 90 86 88 89 87 87 89 88 89 89 89 90 90
69 72 64 64 67 69 70 68 71 67 63 71 71 54 62 61 63 63 62 62 63 64 65 68 71 71 72 79 88 91 92 92 91 90 88 88 85 86 89 88 89 90 88 89
69 68 59 59 66 67 66 67 71 72 74 67 66 55 59 61 62 63 63 64 64 65 65 64 67 66 65 65 71 78 87 92 94 91 89 87 85 86 84 88 88 89 88 89
67 68 61 60 61 67 61 63 66 70 67 69 69 52 51 56 58 61 63 65 67 68 68 68 66 64 65 64 62 67 73 82 87 88 89 86 85 85 87 85 87 88 88 88
69 59 63 61 61 62 61 61 62 64 66 64 66 54 54 57 59 61 65 68 67 66 70 72 73 71 69 68 65 64 65 68 76 84 84 85 85 81 84 85 85 88 88 88
66 58 61 57 59 60 59 61 63 64 64 67 59 48 59 62 62 62 63 65 67 68 69 71 72 73 73 71 70 68 64 64 66 73 79 82 81 83 84 85 86 86 87 87
61 61 57 55 57 57 54 62 63 64 64 68 58 59 61 62 64 65 66 67 66 67 68 69 71 73 73 74 74 73 73 68 65 64 69 73 75 78 80 83 84 84 85 86
58 58 59 61 55 45 58 66 66 63 63 66 64 61 64 64 66 67 67 66 66 67 68 69 72 73 74 76 76 75 76 73 68 65 64 67 70 70 73 77 79 80 83 84
64 61 56 52 53 54 56 59 60 59 57 65 64 64 66 67 68 64 66 66 66 67 68 70 72 72 72 73 74 74 74 74 72 71 66 66 66 65 68 71 73 72 78 81
62 61 56 53 48 46 58 64 67 66 55 65 67 64 64 66 61 64 65 66 66 68 69 68 69 71 72 72 74 71 73 73 73 73 71 66 66 65 64 65 67 71 72 77
52 53 50 52 49 57 61 63 66 49 55 66 66 65 63 63 64 62 65 65 66 66 66 67 68 68 69 70 69 67 69 71 73 73 73 72 68 65 65 65 66 66 69 71
50 48 46 51 47 45 64 60 54 60 64 64 64 63 62 62 63 63 64 63 64 64 65 67 66 66 68 68 67 66 66 69 70 70 72 72 71 73 73 69 66 66 67 68
45 54 49 54 57 59 64 61 63 65 63 62 62 63 63 63 63 63 63 63 64 65 65 67 66 64 66 67 66 63 64 66 66 67 69 71 72 71 73 70 68 67 70 67
56 58 53 53 61 59 63 62 63 64 63 64 64 63 62 61 62 62 63 64 64 65 64 65 64 63 63 65 65 64 65 65 65 65 67 71 72 71 71 73 74 69 69 73
58 57 53 54 59 59 61 63 63 62 63 63 64 63 62 61 62 62 63 62 63 63 63 63 61 61 62 64 63 65 65 65 64 65 68 70 73 73 73 73 70 64 66 65
57 51 48 50 61 60 61 64 65 62 61 62 62 61 62 62 61 62 62 63 63 62 62 61 60 59 60 60 61 62 65 64 63 64 67 71 73 74 75 74 75 57 53 52

GFSCGP_sfc_temp_099.txt.gz
Temp
84 79 76 82 86 89 88 83 82 84 88 80 65 65 69 77 79 79 80 83 86 87 93 95 96 97 96 94 91 91 90 88 90 90 91 88 83 90 90 94 92 92 91 90
80 75 86 89 89 87 86 85 84 86 88 70 63 68 66 77 80 82 82 80 82 84 89 92 92 95 95 92 91 89 89 87 89 92 91 86 90 92 86 92 92 92 91 90
77 82 89 86 85 81 84 84 82 80 84 83 78 70 71 80 83 82 83 82 84 83 85 90 90 94 95 92 90 89 88 87 89 91 89 92 90 92 92 92 92 92 92 92
81 89 84 82 81 83 79 89 87 84 80 73 78 56 63 78 76 80 80 80 80 80 83 92 91 95 95 93 93 90 89 88 89 91 88 86 88 86 79 88 94 93 93 89
78 82 79 78 81 86 82 89 84 84 81 78 71 68 56 79 74 74 80 82 80 82 88 90 93 93 97 96 94 92 89 88 89 89 88 89 82 90 92 80 88 91 90 93
84 90 85 84 87 87 86 84 83 84 82 72 75 71 63 64 74 77 81 82 84 86 85 91 89 93 96 98 96 94 89 87 88 88 88 88 89 84 85 79 89 90 93 92
78 80 86 85 82 85 83 79 68 66 68 69 81 71 62 74 75 73 74 77 83 86 90 92 87 89 91 96 96 95 89 86 87 88 88 88 88 89 88 89 91 75 88 87
69 65 78 84 81 78 79 80 71 59 65 72 85 68 67 80 73 71 70 71 77 84 90 92 88 92 90 94 95 95 90 87 88 88 88 88 88 91 91 91 93 90 79 91
71 70 81 80 85 82 79 74 87 79 81 75 74 69 77 81 78 71 65 66 69 77 88 91 85 87 88 94 95 94 92 89 88 89 88 88 88 88 91 92 91 95 95 87
76 66 78 80 82 83 79 86 75 77 64 63 70 66 69 67 68 67 63 62 65 73 81 91 86 81 87 89 94 96 94 90 90 91 90 90 89 89 89 91 89 92 93 94
80 75 71 76 74 75 77 75 78 82 78 69 65 64 74 68 64 66 62 62 64 67 71 75 76 75 79 74 74 94 95 92 90 89 91 90 90 90 89 90 90 90 91 93
78 76 67 71 77 79 79 77 80 70 68 76 73 50 69 71 71 67 63 63 65 66 69 73 72 71 66 67 69 80 71 91 88 88 88 90 90 89 91 89 91 91 89 91
77 72 64 64 72 76 73 78 80 81 81 70 69 50 69 70 68 67 65 65 66 66 67 70 70 71 68 64 65 73 77 73 73 89 93 91 90 89 89 90 90 91 90 90
70 74 68 61 66 74 69 71 75 77 70 72 73 53 61 65 64 64 65 67 68 68 68 68 69 69 68 65 65 63 69 71 74 79 83 87 87 89 89 89 90 89 90 89
75 66 69 70 69 71 71 70 71 71 73 70 66 58 63 68 68 68 69 68 69 70 71 71 71 71 70 70 69 68 66 65 68 75 79 79 83 88 88 88 89 89 89 89
73 65 67 65 68 69 66 71 71 72 74 72 66 57 67 69 72 70 69 70 71 72 73 74 75 74 74 75 76 73 66 66 65 66 70 73 78 82 83 86 86 86 88 89
67 67 62 58 69 66 61 68 71 72 75 75 62 64 66 66 69 70 70 71 71 72 73 74 75 75 76 77 76 74 73 70 67 66 64 67 69 71 76 82 84 85 82 82
64 63 64 60 62 49 68 75 77 73 73 75 71 67 70 68 69 70 73 72 71 71 72 74 77 77 78 79 78 77 78 76 73 69 67 66 67 67 70 71 79 80 81 83
70 65 61 57 58 63 62 66 67 67 66 74 69 68 70 70 70 68 72 73 71 72 74 75 77 77 77 77 78 76 76 77 77 76 75 73 70 69 68 70 69 73 77 78
69 67 61 60 53 51 63 71 75 74 59 74 74 71 70 72 64 65 71 73 72 73 73 73 74 77 77 75 77 74 75 75 74 75 75 76 76 68 68 68 67 70 73 77
57 58 55 56 54 61 67 71 72 54 60 73 74 73 72 68 68 69 72 71 71 72 71 72 73 72 72 73 72 70 72 72 73 74 74 74 76 74 74 70 71 70 71 72
56 53 52 56 53 50 70 67 60 64 71 72 73 72 71 69 70 70 70 69 70 70 71 72 71 70 71 72 70 68 68 71 71 70 71 71 73 76 78 74 73 70 70 68
51 60 54 60 56 66 70 67 70 71 69 69 69 70 70 69 69 69 69 69 70 69 70 71 70 68 70 70 69 66 67 68 68 68 68 69 71 74 75 73 72 73 71 72
62 66 59 60 65 65 68 69 70 70 70 70 71 70 69 68 68 68 70 70 69 69 68 70 68 66 66 68 68 68 68 68 67 66 67 69 70 71 74 77 78 78 75 73
63 64 58 59 64 65 67 68 69 69 70 69 70 70 69 68 67 68 69 68 68 67 68 68 66 65 64 66 65 66 66 66 66 67 68 69 72 72 75 77 79 79 79 74
65 57 53 54 66 65 65 69 70 67 66 68 68 67 69 68 67 68 67 68 67 66 66 65 65 64 63 63 62 63 64 65 64 65 68 70 72 75 77 78 78 62 60 55

GFSCGP_sfc_temp_102.txt.gz
Temp
82 76 73 79 83 85 85 83 79 81 82 76 72 65 66 70 74 81 84 86 87 87 90 93 94 95 93 91 88 88 86 85 85 86 85 82 85 86 85 75 82 82 85 86
79 73 83 87 87 84 83 79 79 74 79 74 70 65 69 69 71 78 83 85 83 82 86 90 92 93 92 88 87 86 84 84 85 86 82 80 76 83 84 84 86 87 88 87
76 81 87 86 84 82 83 82 76 63 78 73 69 59 62 64 67 69 83 87 87 83 81 90 91 91 91 87 86 86 84 84 85 87 81 74 77 81 81 82 84 87 87 88
80 88 84 83 81 85 78 88 78 77 72 63 74 53 65 66 64 64 75 80 84 84 82 90 91 91 91 88 89 86 86 84 85 82 85 82 80 75 82 82 84 86 85 87
77 81 82 80 82 87 81 90 85 86 80 69 71 68 64 66 61 64 70 81 83 85 84 88 90 90 92 91 90 87 85 84 85 84 84 80 72 67 75 75 84 84 83 84
82 90 88 84 87 88 90 84 85 83 81 66 72 73 61 57 60 77 80 82 83 85 86 88 88 92 90 93 91 88 84 83 84 85 83 82 76 72 74 77 80 81 85 86
78 81 88 88 81 87 85 78 66 64 66 66 78 73 65 64 66 63 72 71 76 80 84 88 89 90 88 90 90 88 83 82 84 84 85 84 83 73 73 79 81 79 82 84
69 67 81 87 81 79 80 78 69 57 61 68 78 61 64 72 68 66 72 73 75 73 71 82 88 84 86 88 89 87 83 82 84 85 84 84 84 80 81 84 81 77 76 75
70 71 85 84 86 82 78 73 84 75 77 72 65 64 69 73 70 69 68 70 72 75 83 73 83 88 86 85 83 87 84 83 84 85 84 84 85 85 87 88 87 87 75 80
74 65 80 81 84 83 79 85 71 74 60 60 62 62 62 64 64 65 63 64 67 72 74 80 76 74 75 75 74 81 86 84 84 86 84 86 85 85 86 87 87 88 81 74
79 71 72 79 74 73 75 73 76 78 75 65 56 56 72 70 67 63 62 63 65 68 71 71 72 72 73 73 70 70 75 84 83 86 86 85 86 86 86 86 88 86 88 77
79 74 65 71 81 84 82 77 78 68 65 72 57 53 69 72 71 67 64 63 66 68 71 72 72 69 67 69 69 68 69 70 73 78 84 85 85 86 86 86 87 87 86 87
74 71 61 66 73 78 73 78 80 80 79 67 59 55 70 70 67 67 67 66 66 69 71 72 72 70 68 67 66 68 68 68 72 79 79 83 84 85 85 85 86 87 86 86
72 71 65 55 62 73 69 74 78 77 68 71 61 55 59 63 62 65 67 69 69 67 69 71 72 72 70 69 67 66 66 67 70 72 72 77 81 82 83 84 84 85 85 85
74 63 69 70 72 72 73 73 75 71 73 65 59 58 59 63 63 66 68 68 68 69 69 71 72 72 72 71 69 68 67 66 67 69 69 70 72 77 82 83 83 84 85 86
73 61 67 65 72 71 68 72 73 73 74 69 67 61 67 67 68 66 67 68 69 71 72 72 72 73 71 71 71 69 68 67 69 67 65 68 70 70 71 75 79 82 83 84
68 65 61 57 68 68 62 69 72 73 75 74 61 65 69 65 65 66 67 70 70 71 73 73 74 73 75 74 74 72 70 69 67 67 68 66 68 69 68 70 71 77 79 80
65 63 63 58 62 50 68 77 77 74 76 77 73 69 70 70 70 70 72 72 71 72 73 74 76 76 77 77 76 75 75 73 70 69 68 69 68 68 67 67 68 70 72 76
72 65 59 55 56 64 68 69 70 70 70 75 70 69 70 72 72 68 73 73 73 73 73 74 76 77 75 75 75 74 74 74 74 72 72 73 72 68 67 67 66 67 68 70
71 67 60 59 52 50 59 72 77 76 60 77 73 68 66 67 57 63 72 74 73 74 73 72 74 76 74 73 74 71 72 72 70 70 71 71 72 73 71 70 69 69 69 70
58 59 55 56 54 61 69 72 75 56 59 76 75 72 69 63 66 67 72 72 73 73 72 73 73 71 70 71 71 69 69 68 69 70 70 70 71 70 73 74 73 70 69 70
56 54 53 56 52 49 72 69 61 65 73 75 76 64 62 68 69 70 68 70 71 70 72 73 70 69 70 70 68 66 65 67 68 68 68 68 69 71 73 71 73 72 71 69
52 61 55 58 57 67 72 68 72 74 71 72 71 73 71 70 70 70 69 70 70 70 70 71 69 68 69 68 67 65 65 67 67 66 66 66 67 69 70 69 70 73 72 71
63 67 60 61 65 67 70 71 72 73 71 73 73 72 72 70 71 70 70 69 69 70 69 69 68 66 65 66 66 65 64 64 64 63 64 66 67 66 68 71 73 73 75 75
63 63 60 60 64 67 68 70 71 71 73 72 73 72 71 71 70 70 68 68 68 68 68 67 65 65 64 64 63 64 63 63 62 63 64 64 68 67 69 70 72 74 74 73
63 61 55 54 65 64 67 71 72 69 69 71 70 70 72 71 69 70 68 68 68 66 66 65 64 63 62 61 61 62 61 61 60 61 63 66 67 68 69 70 71 65 57 57

GFSCGP_sfc_temp_105.txt.gz
Temp
71 61 56 63 70 74 74 72 69 75 76 67 63 61 66 68 67 67 77 77 79 82 83 86 87 86 84 81 80 78 78 77 77 76 74 74 73 73 72 73 79 80 78 79
63 59 70 77 77 76 74 72 64 66 70 65 63 60 65 67 67 67 72 77 80 78 80 83 84 84 83 79 79 77 77 77 77 76 77 76 72 74 75 76 78 79 79 79
63 69 79 77 75 74 71 65 64 65 64 63 62 58 59 66 67 66 69 75 83 78 79 81 83 82 82 79 78 77 77 77 77 75 74 72 72 74 74 75 75 78 81 81
68 78 77 74 73 75 62 78 69 63 59 52 65 46 56 62 63 64 66 68 75 78 84 83 81 81 81 81 81 77 77 77 78 78 74 74 71 71 72 75 78 77 80 80
66 73 73 72 75 79 72 78 70 66 58 61 60 51 56 62 60 63 65 66 71 79 81 79 83 83 83 83 81 79 77 76 78 77 75 73 70 68 71 72 75 76 78 80
73 82 78 75 82 82 85 79 72 62 55 49 59 57 52 57 61 62 65 68 71 78 81 83 88 86 83 84 82 80 77 75 77 77 77 73 71 69 70 72 73 74 75 77
70 74 78 83 70 77 76 63 51 51 46 50 64 58 55 60 62 61 62 66 72 76 82 80 81 84 84 83 81 80 77 74 76 77 77 74 73 73 72 73 73 73 74 74
56 56 72 80 71 66 65 63 52 48 50 54 64 49 53 65 65 65 65 66 70 71 72 73 74 77 78 83 81 81 77 76 76 77 76 74 73 71 73 73 74 72 72 73
58 60 78 81 81 74 66 58 69 54 58 53 51 57 64 65 64 65 64 65 65 67 68 72 70 72 77 76 81 80 78 77 77 77 76 75 74 73 74 74 76 72 73 76
64 52 71 76 77 75 64 68 56 55 45 44 49 55 53 57 60 62 62 63 63 66 68 68 68 70 72 72 72 71 71 70 76 79 77 76 76 76 76 77 76 73 75 73
61 56 61 72 61 61 63 58 57 58 55 48 45 46 62 59 59 60 61 63 66 65 66 66 66 67 68 70 69 70 68 67 68 68 71 76 76 76 77 76 75 76 74 73
62 60 54 58 72 73 67 63 60 51 50 56 51 47 61 62 61 60 60 63 67 68 67 66 66 66 66 67 67 68 69 68 67 68 70 74 75 76 76 76 78 76 73 72
62 52 48 53 54 65 60 66 60 61 61 56 52 48 61 62 61 62 61 64 66 67 67 67 65 63 64 65 67 68 67 66 68 70 70 72 74 76 75 77 78 79 78 76
64 59 52 43 49 58 58 66 67 57 52 52 52 52 55 59 59 63 63 64 65 66 67 67 66 65 64 65 64 65 66 67 68 69 69 69 69 72 74 76 77 77 78 78
62 52 57 59 65 66 65 66 68 58 55 55 51 53 57 59 60 63 65 64 64 66 67 67 67 66 66 65 65 64 64 64 66 66 67 68 68 69 70 72 74 77 77 77
63 52 56 53 65 67 63 66 68 67 62 58 57 52 61 62 63 64 64 66 65 65 68 68 66 69 67 67 67 67 66 64 66 65 65 67 68 68 68 69 68 72 75 76
56 54 50 47 58 59 52 60 63 64 66 63 52 56 61 59 61 63 65 67 66 65 65 67 66 64 65 65 68 67 67 67 67 66 66 66 66 66 67 68 68 68 68 72
54 52 51 47 52 38 55 69 69 65 68 66 62 61 63 63 64 67 68 68 65 65 64 63 64 64 65 65 65 66 68 67 65 65 66 65 65 65 66 66 66 67 68 69
58 52 45 41 44 51 61 66 64 59 59 67 62 63 66 66 67 65 70 69 64 63 62 64 65 64 63 63 64 64 64 64 64 64 65 66 67 66 64 63 64 66 67 67
58 54 48 45 40 40 53 65 71 66 48 64 66 64 63 64 54 58 68 69 64 63 63 63 64 64 62 62 63 61 61 61 60 61 61 64 64 64 63 65 66 64 66 67
46 46 43 44 42 51 61 66 68 50 49 61 66 63 62 57 58 62 65 63 63 62 63 63 61 59 59 60 59 58 57 57 59 61 61 62 62 62 63 63 65 67 65 66
45 43 40 43 39 41 64 63 52 55 57 59 58 59 58 60 62 63 65 63 62 61 63 62 59 58 58 59 58 56 55 57 59 59 59 59 61 63 65 61 63 65 66 65
41 48 44 46 45 56 60 59 61 61 59 58 59 60 59 63 64 62 63 63 60 60 60 60 58 56 56 57 56 54 54 56 56 55 55 56 58 60 61 60 60 63 62 62
53 56 48 49 55 57 60 62 63 64 60 63 62 61 61 60 62 59 59 58 58 58 58 58 57 55 54 54 55 53 54 55 54 53 53 55 55 57 57 59 60 59 61 61
52 52 51 50 53 57 61 62 62 64 65 66 65 65 64 61 60 59 57 57 57 57 56 56 55 53 52 52 52 53 53 53 51 52 53 54 56 55 56 58 58 60 62 61
50 45 45 44 53 53 54 59 64 62 61 63 63 62 63 62 59 59 56 57 56 54 55 54 53 52 51 52 51 52 52 51 49 49 51 53 55 57 57 56 56 58 55 53

GFSCGP_sfc_temp_108.txt.gz
Temp
66 59 54 61 61 65 63 67 67 68 68 66 60 59 62 66 69 69 70 70 77 80 82 82 82 82 81 78 76 76 75 73 73 70 70 69 69 71 71 72 77 77 76 77
60 55 65 69 69 67 65 64 60 63 66 63 60 59 63 66 67 69 69 71 75 78 78 80 79 81 80 76 76 75 76 74 75 75 73 73 72 72 72 72 76 77 77 77
56 64 73 69 66 66 64 59 59 61 64 64 61 58 58 64 68 67 68 70 74 77 77 77 78 79 79 76 75 76 75 75 74 74 72 71 71 71 72 73 73 75 78 78
61 72 71 67 65 67 56 72 71 62 60 51 62 49 54 61 63 65 66 68 71 78 80 79 78 78 79 77 79 77 76 74 74 73 72 73 70 69 71 71 73 75 78 77
61 65 66 66 69 72 67 73 66 65 57 56 55 50 50 61 60 63 65 68 70 74 79 78 78 79 80 79 79 78 76 73 75 74 72 71 70 70 70 72 74 73 74 77
66 75 70 70 76 76 76 68 62 58 52 46 57 51 51 55 60 65 67 67 71 71 75 76 80 80 80 81 79 78 75 72 74 75 73 71 70 69 69 71 72 72 73 75
63 66 71 75 67 69 71 59 44 43 45 44 54 54 52 60 64 66 65 66 68 70 71 74 75 78 78 78 78 77 74 71 74 75 73 72 69 69 72 72 71 71 72 73
51 51 64 73 68 64 62 61 47 41 42 46 59 51 57 62 63 64 66 66 68 71 69 71 74 77 77 79 79 78 74 72 74 74 74 72 72 71 73 73 72 72 72 72
50 54 70 74 75 71 61 59 62 52 56 49 50 55 60 62 61 64 63 65 65 66 68 69 71 72 73 75 78 78 75 72 73 74 73 72 72 72 73 73 73 73 72 74
55 50 60 71 72 70 66 69 58 56 45 44 47 51 51 57 59 61 61 61 63 65 66 68 69 68 70 70 73 74 72 69 68 69 70 73 72 72 72 71 72 72 73 74
52 50 56 63 57 58 60 56 58 55 51 45 41 48 59 59 60 58 61 62 62 64 64 66 67 68 68 69 69 69 68 67 67 68 69 70 72 74 73 73 73 74 73 72
55 49 44 53 65 67 62 57 53 50 51 46 44 48 59 59 59 61 62 64 64 64 64 64 65 66 67 67 68 68 67 68 68 69 69 70 72 73 73 74 73 73 73 72
55 47 41 48 55 64 58 60 53 52 50 46 43 48 59 58 58 61 62 62 63 64 63 63 64 64 65 66 67 67 68 67 69 69 69 69 70 72 74 73 74 73 73 72
62 46 44 40 46 54 54 60 59 52 47 48 47 51 54 56 55 59 61 62 63 64 63 62 61 62 64 65 65 66 67 68 68 68 69 68 68 69 70 72 73 73 74 73
56 48 48 55 59 61 60 61 62 59 53 49 50 51 55 57 57 59 62 63 63 63 64 64 63 63 64 63 62 64 64 65 65 66 67 68 68 68 69 69 69 72 73 74
54 51 52 52 62 59 57 61 61 61 57 54 52 51 60 63 63 62 63 64 63 64 65 66 66 66 64 65 65 64 63 63 65 64 66 66 67 67 68 68 69 69 69 72
50 49 47 45 55 54 48 55 57 58 58 56 49 53 60 60 61 62 63 65 64 65 66 65 64 66 66 66 65 64 64 65 64 64 65 64 65 65 65 67 67 68 67 68
48 46 47 44 50 40 56 61 63 60 61 59 56 58 60 62 64 66 67 65 63 62 63 62 60 62 65 66 66 67 68 67 66 64 63 65 64 64 65 65 65 66 67 68
52 45 41 39 40 50 58 62 59 55 51 60 58 59 60 62 65 63 67 66 62 59 59 59 61 60 61 62 62 63 62 63 63 62 61 63 64 63 63 63 64 65 65 66
50 46 45 40 38 40 51 63 67 61 44 59 61 60 60 62 51 55 63 64 62 61 61 59 59 59 59 58 58 57 56 56 56 57 58 59 60 61 61 63 64 64 64 64
40 39 39 38 38 46 56 61 63 49 46 58 62 61 60 56 55 60 62 61 62 61 60 58 57 56 55 56 56 53 53 52 55 57 57 58 58 58 60 60 61 62 64 64
41 36 35 37 35 35 59 59 50 51 51 55 54 53 53 55 59 59 60 60 60 58 58 58 56 53 54 55 54 51 51 52 54 54 54 55 55 58 60 57 60 61 61 61
39 44 40 41 40 50 55 54 55 55 52 52 53 55 57 57 58 59 57 57 57 57 55 56 54 52 51 52 52 49 49 51 51 51 51 52 53 55 55 54 57 58 58 59
46 48 43 44 48 51 55 57 58 58 56 57 57 57 58 57 59 56 57 57 58 55 54 53 52 50 48 50 50 49 49 50 49 48 49 50 50 53 53 54 55 54 56 56
46 46 43 43 47 52 57 57 59 60 60 60 59 59 58 58 56 59 56 53 55 54 52 52 50 48 48 48 48 49 49 48 47 47 48 48 50 49 51 53 52 54 55 54
44 44 39 39 46 49 53 56 58 59 59 60 60 59 59 57 56 55 54 53 55 53 52 50 48 48 48 48 47 47 48 47 46 45 46 46 47 48 51 51 53 54 51 51

GFSCGP_sfc_temp_111.txt.gz
Temp
63 57 53 58 61 62 60 58 60 63 69 65 61 58 62 65 70 69 70 71 74 74 78 79 78 79 77 75 73 72 72 70 71 69 68 68 68 70 71 71 74 75 75 75
58 53 63 67 66 64 61 59 55 62 64 62 59 60 60 64 64 67 67 68 74 75 75 75 77 78 76 75 74 72 72 70 71 72 71 71 70 71 71 72 74 75 76 75
55 61 69 66 62 62 57 60 58 58 64 66 61 57 60 64 66 68 68 70 71 75 73 75 75 77 75 74 73 73 72 72 72 73 71 70 71 71 71 71 72 73 76 76
58 67 67 62 61 63 49 67 67 61 56 51 61 49 56 58 60 65 67 67 67 71 73 75 76 76 75 76 76 75 73 72 73 72 72 71 70 68 70 71 72 73 76 75
58 61 61 60 64 67 61 72 68 62 54 51 53 50 50 58 57 62 65 68 69 69 74 75 76 78 77 78 76 76 72 72 72 71 71 70 70 69 70 71 72 72 73 75
63 70 67 65 70 70 70 63 58 54 51 46 52 55 49 55 59 63 68 69 68 71 71 72 78 80 78 78 77 77 72 71 72 73 71 71 71 69 69 70 71 71 71 73
59 62 66 71 60 64 63 51 42 43 42 43 49 52 54 59 64 65 66 66 68 68 68 72 72 78 76 75 76 76 71 70 71 73 71 71 70 70 70 71 71 70 70 71
48 49 62 69 65 60 56 55 46 40 40 44 50 48 52 60 63 63 67 70 67 67 69 69 71 74 77 76 75 76 71 70 71 72 72 71 70 68 70 71 71 71 71 72
47 51 66 69 69 68 58 55 59 48 45 48 48 55 60 61 60 61 62 64 65 67 69 69 71 72 74 73 75 76 73 70 71 72 72 71 70 71 71 71 72 71 72 73
52 48 57 66 67 65 63 64 52 48 41 42 45 48 51 54 57 61 59 61 62 65 68 69 70 70 70 71 73 74 72 70 69 71 71 72 71 71 71 70 71 72 71 72
49 48 55 60 55 53 58 53 51 52 47 44 41 45 57 57 57 58 60 63 62 64 66 67 68 69 68 69 69 68 68 68 67 69 70 70 71 72 71 71 71 71 71 71
51 46 44 52 61 61 57 51 51 48 46 45 43 49 58 60 59 59 59 61 64 65 65 66 66 67 67 68 67 67 67 67 68 68 69 69 69 70 71 72 73 73 71 71
51 45 41 49 53 57 53 56 47 49 49 45 44 48 58 59 60 61 58 62 62 62 63 63 65 66 66 66 66 67 68 68 68 69 69 68 68 70 71 72 73 73 72 72
59 43 43 39 45 50 50 55 55 49 48 45 49 51 53 55 55 58 60 62 62 61 61 61 62 64 65 66 65 66 67 69 68 68 68 68 68 69 69 71 71 72 72 72
53 45 45 48 53 55 55 57 57 51 51 51 51 51 53 56 57 59 61 62 62 61 62 62 61 62 63 64 65 65 66 66 67 67 68 68 67 68 68 68 68 69 70 72
50 44 46 46 55 57 53 57 58 55 55 51 55 53 60 60 59 60 61 62 62 62 63 64 64 64 63 63 63 64 64 64 66 66 65 66 65 67 67 67 67 67 68 69
49 45 42 38 52 54 46 53 53 56 56 55 50 56 60 57 57 58 60 62 62 62 62 62 63 64 64 64 64 64 64 65 62 62 62 63 64 64 65 66 66 66 67 68
47 43 40 37 46 38 54 62 61 56 56 55 54 57 60 59 60 60 63 63 63 63 62 62 63 62 62 63 62 64 65 64 62 60 60 61 61 62 64 64 64 64 65 65
48 43 38 36 35 48 56 60 57 51 50 57 56 58 59 63 64 62 66 64 62 59 58 58 60 62 62 62 63 62 62 62 61 60 58 58 59 60 61 60 62 64 64 64
46 43 42 36 35 37 47 62 62 57 44 56 60 57 58 60 49 51 61 62 61 61 60 58 59 59 58 57 60 58 57 58 57 58 57 57 59 59 59 59 61 62 63 64
38 37 37 35 35 45 56 61 63 46 46 57 60 58 58 55 53 56 60 60 60 60 58 56 56 55 53 53 55 52 53 51 53 54 55 55 55 56 56 56 57 60 62 63
39 35 33 34 33 35 57 58 52 53 48 53 56 57 52 53 57 56 56 57 57 55 55 56 53 51 51 52 53 49 48 50 52 53 53 52 52 55 56 53 55 56 57 59
37 41 39 39 39 49 52 50 53 54 51 52 51 52 54 55 55 56 55 54 54 54 53 53 51 49 48 49 50 48 47 49 49 50 49 49 51 52 53 52 52 52 53 56
43 45 41 42 47 49 53 55 55 54 53 53 54 55 55 54 56 54 55 55 54 53 52 51 50 48 46 47 48 47 48 48 48 46 46 48 48 48 49 51 52 51 52 53
44 44 41 41 45 49 54 54 54 56 56 56 56 56 56 57 56 57 56 56 55 53 53 51 49 47 45 46 46 46 46 47 45 45 46 45 46 46 47 48 48 50 49 48
42 43 39 39 46 45 47 51 56 56 56 56 57 55 56 58 55 57 56 57 54 53 52 48 47 46 45 46 45 45 46 46 44 43 43 43 44 44 46 45 46 50 49 48

GFSCGP_sfc_temp_114.txt.gz
Temp
60 55 52 57 59 60 59 56 55 61 67 63 60 58 63 65 69 68 69 72 73 72 74 75 76 77 75 73 71 71 70 70 70 69 68 68 69 70 72 73 75 75 76 77
56 51 60 65 63 61 58 56 53 61 64 62 60 59 61 65 67 69 69 67 72 73 71 72 74 75 74 72 72 70 71 70 71 71 70 70 70 72 73 73 75 76 76 76
53 58 66 65 61 60 54 53 53 57 61 63 62 58 60 63 64 69 68 69 70 72 72 73 73 74 74 72 72 71 71 71 72 73 71 71 72 72 72 72 74 76 76 77
56 64 65 60 59 60 47 64 63 59 55 49 59 48 56 60 60 64 66 67 67 69 72 72 73 74 74 74 74 72 72 71 72 72 72 72 71 70 71 72 74 75 77 76
56 58 58 57 61 64 59 67 62 61 52 50 52 48 53 59 57 60 66 67 67 69 71 73 74 75 76 76 74 74 71 71 72 72 72 72 71 71 72 72 73 74 75 76
60 66 65 63 66 67 67 61 56 52 50 43 50 50 49 55 59 61 66 69 67 69 70 72 74 73 74 76 75 74 71 71 72 72 72 71 71 71 71 72 72 72 74 75
57 60 63 67 58 60 58 51 42 40 42 42 46 49 50 56 62 64 66 68 69 69 69 70 71 73 75 73 73 74 71 70 72 72 72 71 71 71 72 72 72 72 73 73
47 47 59 65 62 57 54 53 44 38 38 43 50 46 52 59 61 66 68 70 69 67 68 69 71 73 75 74 73 74 71 70 71 72 72 72 71 71 71 72 73 73 72 74
45 49 63 66 65 64 55 51 55 46 42 43 46 52 58 60 60 63 66 68 65 68 69 70 70 71 73 74 73 73 71 70 71 72 72 71 70 70 71 72 73 73 74 76
50 45 54 63 64 62 58 61 50 45 39 38 44 47 48 55 58 61 62 63 65 67 69 70 70 70 71 72 73 74 71 70 71 72 72 71 71 72 72 72 72 73 74 75
50 48 54 56 53 50 55 51 49 49 45 41 39 45 57 57 60 60 62 61 62 65 67 68 69 69 69 70 72 72 71 69 70 71 72 71 72 73 72 71 70 72 74 74
49 46 43 50 57 57 53 49 49 46 43 42 43 44 59 60 61 62 62 63 62 63 65 67 67 69 68 68 68 67 67 68 68 69 70 70 71 72 73 73 73 72 72 73
52 43 41 48 51 55 51 52 45 46 45 43 45 44 59 59 57 60 61 63 63 63 63 65 66 67 67 67 66 66 67 68 68 69 69 69 69 70 71 73 74 74 74 73
57 42 44 40 43 48 49 53 52 47 45 43 46 49 53 56 54 57 60 62 63 63 62 63 64 65 66 66 66 67 68 68 68 68 68 67 68 70 70 71 73 74 74 74
51 43 43 48 52 53 52 53 53 49 48 49 50 49 55 55 54 59 61 61 61 61 61 62 62 64 64 65 65 66 67 65 66 67 68 67 68 69 69 69 70 71 72 73
47 43 42 46 55 55 52 53 54 53 51 50 50 48 55 56 58 59 61 61 60 61 62 62 62 62 63 64 64 65 65 64 66 65 64 65 66 67 67 68 68 69 70 70
48 48 43 38 49 55 49 50 51 52 54 53 47 51 56 54 56 59 61 62 61 61 60 60 61 61 61 62 63 62 62 62 61 61 61 62 65 65 65 66 67 67 67 68
48 43 44 38 45 38 50 60 57 52 54 55 54 54 56 56 57 60 64 62 61 61 61 61 60 59 59 59 60 60 60 60 60 60 60 61 61 61 63 64 65 64 65 65
48 43 38 38 38 44 54 56 55 52 51 56 54 56 57 59 61 59 65 63 60 60 61 60 61 60 59 58 59 58 58 59 59 59 58 59 60 60 60 61 62 63 65 65
46 45 44 36 36 35 45 58 62 57 45 56 58 56 57 60 51 52 60 60 60 60 60 59 61 60 58 59 59 58 57 58 56 58 58 58 59 58 58 59 60 62 63 64
37 37 37 36 35 42 52 56 59 46 46 55 58 57 57 54 54 54 60 60 60 58 58 59 58 57 56 58 58 55 55 54 56 57 57 57 58 58 57 58 59 59 60 61
38 34 33 33 34 36 52 55 49 51 52 55 56 56 55 53 55 56 57 55 55 54 54 55 54 53 54 54 54 52 50 52 54 54 54 54 54 57 57 56 56 56 56 57
36 40 38 39 38 47 50 50 52 52 54 54 53 53 54 54 54 55 53 53 53 53 52 53 52 50 51 52 52 50 50 52 52 52 51 52 53 54 54 54 54 55 54 55
42 43 40 42 45 47 51 55 55 54 53 54 54 55 56 53 54 53 53 54 54 53 51 51 50 49 48 49 50 49 50 51 50 49 49 51 51 51 52 53 54 53 53 53
42 42 41 41 45 49 52 52 53 54 54 55 56 57 56 55 55 54 53 54 55 53 53 52 50 49 47 48 47 49 49 49 48 48 49 49 49 49 50 51 51 53 53 51
42 42 39 39 46 47 48 51 55 53 53 54 55 54 57 57 58 58 56 56 55 53 52 51 49 49 48 48 47 47 48 48 47 47 47 48 48 48 49 49 50 49 48 47

GFSCGP_sfc_temp_117.txt.gz
Temp
72 69 66 71 73 72 72 70 67 68 72 70 67 67 70 70 68 68 68 74 78 79 83 84 82 85 84 83 81 81 80 79 79 79 80 81 82 83 84 86 84 85 85 85
69 65 72 74 73 72 71 69 64 66 69 69 67 66 70 72 70 72 68 70 73 79 80 81 81 83 83 82 81 80 79 78 79 81 80 82 82 84 86 84 84 85 85 85
67 70 72 72 70 70 70 69 65 66 67 69 68 62 64 70 71 71 68 70 73 77 80 81 81 83 84 82 81 81 79 78 79 81 81 80 81 80 83 83 84 85 85 85
70 72 71 70 69 71 67 73 71 66 66 62 66 57 60 65 67 68 67 67 70 75 79 83 82 83 83 83 84 82 80 79 80 80 81 79 81 79 81 82 83 84 85 85
67 68 69 67 70 73 69 73 73 70 65 65 62 63 64 63 62 65 69 70 69 73 77 80 83 84 86 85 84 83 81 79 80 80 81 82 79 81 85 82 81 82 82 85
71 75 74 73 74 75 73 70 68 67 64 57 65 65 62 59 65 69 73 75 72 72 77 81 83 83 84 85 84 84 81 79 80 79 80 80 81 80 79 81 83 81 85 85
68 70 74 75 71 73 69 69 55 53 54 57 63 60 68 68 70 72 72 74 76 71 78 79 79 81 82 83 83 84 81 79 80 81 80 80 80 81 80 81 80 79 84 83
60 58 70 75 73 69 68 70 63 51 54 61 61 58 66 67 70 74 76 76 73 74 76 78 81 83 82 81 82 83 81 80 81 81 81 80 80 82 82 83 85 85 85 81
60 61 72 73 75 76 67 62 74 63 61 61 61 63 67 66 68 71 74 74 70 74 75 75 80 82 83 79 81 82 81 80 81 82 81 80 79 79 81 81 82 85 84 83
66 60 69 72 74 72 73 76 64 65 53 53 55 58 65 61 65 70 72 73 74 75 75 75 77 79 81 79 83 83 81 80 81 81 82 80 81 80 80 80 81 82 82 84
67 65 66 69 68 67 68 68 67 70 65 59 55 60 65 66 67 66 72 75 75 74 74 75 74 78 79 79 78 81 80 79 80 81 80 79 79 81 81 81 80 81 81 82
66 67 63 64 69 68 69 66 68 64 57 63 63 62 66 67 69 69 68 70 75 77 76 75 74 74 76 76 76 76 80 79 80 82 80 79 80 80 81 80 81 81 81 81
67 62 59 61 67 68 65 65 66 65 67 61 61 64 63 68 67 66 65 68 70 71 72 73 71 72 73 72 69 69 72 74 76 77 78 78 78 79 80 81 82 82 82 81
67 60 60 58 60 63 60 63 65 67 64 65 65 62 58 61 63 62 65 67 66 68 68 70 71 72 68 70 70 70 70 72 74 74 71 73 75 75 74 77 81 82 82 81
67 59 59 60 63 63 62 61 62 63 65 65 67 65 66 63 62 63 64 65 64 63 64 65 66 67 67 67 67 68 69 69 72 71 71 70 72 74 74 74 76 80 81 82
62 57 60 58 61 61 60 64 64 63 62 64 64 65 67 69 66 63 62 62 63 64 64 64 64 65 65 66 66 65 65 66 67 67 69 69 72 72 70 71 72 74 76 77
61 61 58 54 58 60 56 61 63 63 63 63 62 63 65 63 62 62 62 64 64 64 63 63 63 63 64 65 65 63 63 62 62 61 64 65 67 70 70 70 69 70 72 75
59 57 58 57 57 46 61 67 67 63 62 65 65 64 66 63 65 65 70 68 65 64 62 60 59 59 59 59 60 60 58 59 60 60 63 63 63 66 68 70 71 71 73 73
62 60 53 53 54 56 61 62 62 62 63 66 64 64 65 66 65 62 69 66 65 62 60 59 58 58 58 58 59 58 58 58 60 59 60 63 67 67 65 65 67 69 70 71
61 60 61 51 49 46 57 64 67 65 57 65 65 64 64 65 55 54 62 62 61 61 60 58 57 58 57 56 57 57 56 57 57 59 58 62 64 64 64 64 63 66 67 68
55 54 54 52 51 54 61 63 66 54 58 66 66 66 66 64 69 63 61 58 61 61 60 58 57 56 55 58 59 56 56 55 57 58 59 59 61 60 61 63 65 67 68 69
54 53 51 49 49 46 61 64 58 60 64 63 65 66 66 63 65 65 64 58 58 58 60 60 57 55 58 58 58 56 54 57 57 58 58 57 57 60 62 62 63 64 65 63
49 56 55 55 56 58 61 60 64 64 62 63 65 64 63 62 61 62 63 63 58 58 59 61 58 56 57 58 58 55 55 56 56 57 56 57 58 59 59 59 60 61 63 66
54 54 55 53 57 60 62 64 64 62 62 63 65 64 64 60 59 59 58 62 62 63 62 63 62 61 59 60 60 58 58 58 59 56 56 57 58 57 59 60 60 61 63 64
56 55 54 54 57 60 63 63 63 62 63 64 64 65 63 62 60 57 53 58 57 60 62 63 62 61 59 60 59 60 59 59 58 56 58 58 58 58 58 58 58 60 56 56
55 55 53 55 58 59 59 61 64 63 62 64 64 62 64 64 61 59 53 52 53 55 58 61 61 60 59 59 58 58 59 59 59 58 58 58 58 58 59 60 58 48 48 46

GFSCGP_sfc_temp_120.txt.gz
Temp
82 77 73 80 83 83 82 79 77 78 80 75 69 72 73 69 68 67 71 77 87 87 91 92 92 92 92 91 88 87 87 85 86 87 88 89 89 90 92 93 91 90 91 91
76 73 82 83 81 80 80 78 77 75 78 77 73 72 75 74 70 70 71 80 85 87 87 88 90 92 91 89 88 87 86 85 85 88 89 90 91 92 93 93 91 92 91 91
75 79 82 78 78 77 79 78 76 75 75 78 75 66 70 73 76 76 71 75 78 81 88 89 88 90 91 90 88 87 86 86 85 87 88 87 88 84 85 89 90 91 91 92
79 81 78 78 77 80 76 81 78 76 74 64 78 59 67 72 72 75 77 68 73 83 88 92 91 90 91 91 91 89 87 85 85 85 87 85 87 85 88 86 91 92 91 91
74 75 76 75 77 80 77 81 80 79 76 75 73 72 75 76 68 71 76 72 73 77 88 89 91 92 93 92 92 90 87 85 86 85 85 87 86 89 89 90 86 88 88 90
78 84 81 80 82 81 82 79 79 78 77 67 76 74 71 72 72 74 75 80 79 76 87 89 92 93 93 94 92 91 87 85 85 84 84 83 84 87 88 87 87 89 91 91
74 76 82 81 77 81 79 77 66 63 65 66 78 72 77 80 79 79 79 79 82 78 83 85 87 91 90 91 91 91 87 84 85 86 85 85 84 86 85 85 87 87 89 92
68 64 77 82 79 75 76 78 69 57 63 69 75 67 78 83 83 84 85 83 85 80 80 80 88 90 89 90 90 90 87 85 86 86 85 85 85 85 84 87 92 91 92 91
69 69 81 83 84 83 76 71 83 74 77 71 73 76 76 78 79 80 82 83 81 80 76 86 90 91 91 90 89 89 88 86 87 88 86 86 86 85 83 86 88 90 90 91
75 67 78 81 83 83 80 83 71 72 60 59 69 70 77 73 77 79 81 82 83 79 78 84 87 89 91 91 90 90 89 87 87 88 88 88 88 87 87 85 85 87 89 90
79 74 72 78 75 75 76 74 76 79 75 66 64 70 80 78 79 79 82 83 84 83 83 83 86 86 89 88 87 89 89 88 88 88 88 87 88 88 87 88 87 87 88 88
78 77 69 73 78 80 81 79 79 69 66 72 72 67 79 79 80 81 82 84 86 85 83 77 81 84 85 85 85 84 87 88 89 89 87 87 87 88 88 86 86 88 85 86
78 72 65 66 74 77 75 77 80 81 80 69 68 72 77 78 78 80 79 81 83 80 82 83 81 80 82 83 82 84 85 86 88 88 88 88 86 87 87 87 87 88 87 87
72 74 69 65 67 76 70 72 76 78 71 72 74 75 72 76 75 75 75 72 75 76 79 79 79 80 79 79 78 79 80 83 83 87 87 85 85 85 86 86 86 86 87 86
76 67 69 72 72 72 70 71 73 72 76 71 75 76 82 78 78 74 71 68 69 71 72 75 78 78 75 76 75 76 77 76 76 76 78 78 79 82 83 83 84 87 88 88
75 67 69 66 70 70 68 72 73 72 73 74 77 76 78 81 79 70 71 70 72 72 73 74 75 73 74 70 69 70 70 70 74 74 73 75 77 78 78 79 78 80 85 87
70 70 65 61 67 68 63 69 70 72 73 72 70 72 78 74 69 69 68 70 71 72 73 74 74 71 70 68 65 63 63 66 66 68 74 73 75 76 77 76 76 74 76 80
69 67 68 63 64 52 69 75 74 71 72 75 74 75 75 75 69 67 71 68 67 73 69 63 62 61 62 66 68 66 62 62 61 61 63 66 69 71 73 74 75 76 76 76
74 69 64 59 60 66 68 70 69 68 69 75 74 73 74 68 65 64 72 77 77 70 64 60 59 59 59 62 66 67 66 60 63 60 60 63 64 65 67 68 72 76 77 76
71 71 66 63 55 52 64 71 74 74 63 75 75 73 66 63 56 58 72 75 72 66 63 59 58 57 56 57 60 61 58 62 61 63 60 62 63 66 63 63 68 72 75 74
64 64 61 61 55 63 68 71 74 59 61 72 73 74 69 63 70 69 71 67 70 67 62 62 58 55 55 56 56 55 57 57 61 61 61 60 65 62 65 66 68 69 73 74
61 59 58 61 56 53 70 70 63 67 73 73 73 74 71 68 70 68 62 62 60 59 60 60 59 56 56 57 57 54 54 56 59 60 60 58 60 62 64 65 68 71 70 70
56 65 61 63 62 68 72 69 71 73 71 72 72 74 71 72 67 61 58 57 59 62 65 64 57 55 60 56 58 57 56 59 59 60 60 60 60 60 61 63 65 67 69 75
64 65 64 62 67 69 70 72 72 71 72 72 74 72 72 70 70 66 66 64 58 60 61 65 61 58 55 59 58 58 60 61 64 61 62 63 63 63 63 65 65 67 69 68
67 65 64 64 66 68 70 71 71 71 72 72 73 73 72 72 69 68 65 62 61 61 62 62 59 59 60 59 60 61 61 63 64 64 66 65 65 64 63 61 60 61 56 57
67 64 61 62 69 70 69 71 72 72 71 72 72 72 73 72 67 65 62 57 53 57 61 63 63 62 62 63 63 63 66 67 67 65 67 68 68 67 67 64 60 48 47 45

GFSCGP_sfc_temp_123.txt.gz
Temp
86 81 77 83 87 76 83 76 60 70 84 78 71 66 73 73 74 75 70 81 83 88 90 95 94 93 91 93 87 85 83 87 86 88 90 89 90 83 90 95 93 92 93 93
82 77 87 90 89 84 80 75 71 71 84 77 73 66 73 73 71 71 70 71 76 84 87 91 92 93 92 90 84 88 88 86 88 86 83 86 81 86 84 85 93 93 93 93
79 84 90 86 83 80 84 81 76 75 81 83 73 64 63 72 74 75 72 80 77 80 79 93 90 89 94 92 90 84 86 86 87 88 89 90 83 85 88 84 89 93 93 94
83 90 85 82 80 84 76 86 70 60 77 67 81 57 64 65 70 75 77 74 71 68 77 86 95 88 95 94 94 91 89 85 88 88 88 84 87 85 89 82 84 87 93 93
80 83 80 78 81 86 75 87 84 80 75 75 74 59 59 71 67 72 79 82 81 74 84 88 94 93 96 93 95 93 89 86 87 87 86 89 84 84 91 86 88 87 89 92
84 90 86 86 88 86 88 83 83 84 82 69 74 77 58 67 74 75 77 83 82 84 88 91 86 95 83 91 96 94 89 86 87 85 86 86 84 85 83 90 88 89 92 92
79 80 87 88 82 86 84 80 69 63 66 67 82 78 72 73 85 82 80 82 84 85 86 82 89 83 90 86 95 94 88 85 86 87 85 86 86 85 86 87 89 88 84 87
71 68 81 86 83 80 80 81 72 60 66 72 81 71 74 88 91 90 87 86 86 87 88 86 89 77 84 85 90 93 88 86 88 88 86 85 87 90 88 89 80 92 94 89
73 73 86 88 88 87 80 75 87 75 74 72 71 78 84 90 87 88 86 86 84 84 87 89 85 89 87 93 85 90 89 87 88 89 87 87 87 87 88 87 88 92 92 94
79 71 82 85 88 88 84 89 75 77 62 62 65 66 54 79 83 86 87 88 85 83 86 87 85 88 81 95 93 94 91 88 89 91 90 89 89 88 88 88 87 90 92 92
84 79 76 83 78 79 80 78 79 82 78 68 63 69 77 84 86 85 88 89 86 83 86 87 84 91 85 89 90 93 91 89 89 91 90 90 90 91 88 88 88 89 89 91
83 80 70 76 86 89 86 81 82 72 69 76 75 63 88 87 89 90 89 90 88 84 86 85 86 87 86 77 89 89 91 91 91 91 90 90 90 90 90 89 90 89 87 87
81 76 68 67 79 83 79 83 86 85 83 72 71 69 86 86 88 89 89 90 85 84 81 87 84 81 86 85 86 88 90 90 92 91 91 89 89 89 89 89 89 91 88 88
77 77 71 56 65 75 74 79 82 82 74 75 77 70 79 83 83 84 87 87 83 81 79 84 81 79 83 84 83 84 84 86 87 88 88 87 88 88 89 89 89 89 88 86
79 70 74 74 75 77 75 77 79 76 78 73 79 75 77 85 84 83 82 82 81 79 79 75 79 80 82 82 80 84 85 86 85 84 86 84 83 85 88 87 87 88 86 82
80 68 73 69 76 75 73 77 77 79 80 80 81 75 80 67 85 79 73 73 74 77 77 79 79 80 80 81 78 80 81 79 80 81 80 81 82 82 83 85 85 86 87 88
73 73 68 63 74 73 67 74 77 78 80 80 73 74 82 81 79 76 70 71 72 75 74 80 78 80 79 72 68 67 69 72 74 76 76 77 76 76 80 81 80 81 82 84
73 70 70 66 66 55 74 82 81 76 76 74 81 81 81 82 80 73 75 73 73 75 72 69 68 69 69 68 67 66 67 70 66 63 64 67 71 72 75 78 78 78 79 79
79 72 67 62 64 59 69 75 74 73 72 80 79 80 80 77 74 71 77 79 80 75 69 67 65 63 65 68 69 71 70 68 66 61 61 62 64 66 67 70 72 75 77 75
78 76 68 65 59 54 59 72 79 79 66 79 79 79 77 74 69 70 75 69 71 73 67 61 59 58 58 60 69 68 67 70 68 62 61 63 62 62 62 65 64 69 73 73
67 66 64 65 61 64 71 76 80 61 63 77 79 80 76 69 70 74 72 69 71 67 64 61 59 55 55 57 59 63 68 68 68 67 65 62 61 62 63 63 63 64 68 68
63 62 62 65 57 50 75 76 67 70 77 78 79 80 75 69 73 69 66 65 65 65 63 62 59 56 56 56 56 55 57 65 66 65 62 61 62 60 66 68 66 65 65 67
59 67 60 62 60 73 78 75 77 79 76 77 77 80 77 76 70 63 59 60 60 61 61 62 62 58 57 58 57 55 55 58 63 61 60 65 65 64 66 60 65 66 70 68
68 73 68 67 71 74 76 78 78 78 77 79 80 78 78 69 67 60 59 57 57 59 61 62 63 58 57 58 59 58 60 59 60 60 62 63 64 65 67 67 71 71 69 69
71 52 67 67 65 63 75 77 77 77 78 78 79 79 75 72 67 63 62 63 60 62 60 61 63 58 56 60 59 59 61 62 62 65 65 66 68 65 65 63 64 61 55 55
74 68 65 64 60 71 69 76 78 77 76 77 77 77 79 73 70 68 65 66 64 61 62 59 60 61 62 60 62 65 63 63 62 63 69 71 70 72 68 66 61 47 48 46

GFSCGP_sfc_temp_126.txt.gz
Temp
84 77 74 81 85 83 80 75 72 67 72 74 70 68 71 72 71 74 82 85 83 87 88 92 89 87 86 89 82 85 81 82 85 85 77 83 82 86 84 87 88 87 89 90
81 74 84 88 87 83 81 77 75 65 62 74 69 65 72 74 76 75 70 71 75 82 89 87 88 90 89 83 82 80 82 82 82 82 80 78 81 83 83 86 87 88 89 90
78 82 88 86 83 78 80 79 71 62 62 65 71 62 66 73 74 71 68 68 69 73 80 79 87 88 87 83 81 82 80 83 83 84 83 80 78 83 77 80 86 84 88 90
82 89 85 84 81 83 76 84 69 61 56 54 74 53 61 68 70 73 70 70 70 70 75 81 89 86 84 85 86 83 82 83 84 86 82 81 80 75 80 84 82 85 88 86
79 83 83 81 83 86 80 85 76 72 66 56 67 57 60 64 64 72 74 74 77 79 78 81 87 87 85 89 87 85 82 81 83 82 83 82 82 80 85 79 82 81 87 90
84 92 88 85 87 87 88 83 79 71 57 49 65 67 53 59 64 69 77 80 81 82 80 85 78 78 88 90 92 88 82 80 82 84 82 83 84 77 77 83 78 84 82 86
80 82 88 89 82 88 84 78 64 64 61 62 79 71 64 70 76 74 76 81 84 83 83 82 74 73 76 88 88 88 82 80 82 82 83 83 82 83 80 83 84 82 81 83
71 67 81 87 83 80 79 78 68 56 61 65 78 65 71 80 81 79 82 84 85 83 83 86 80 72 72 77 77 87 83 81 83 82 81 83 85 84 85 84 84 83 81 84
72 72 86 87 87 86 80 73 84 74 64 65 71 72 78 79 80 79 82 83 83 85 85 88 83 78 74 78 76 85 83 82 83 84 81 81 83 82 84 83 82 83 81 79
78 68 83 86 89 87 83 87 73 75 59 57 68 68 70 67 59 82 82 83 83 84 85 88 78 77 76 81 84 85 85 83 84 86 84 83 83 84 86 85 84 86 85 79
81 77 75 83 78 77 79 76 79 80 76 64 57 63 75 64 64 65 76 86 86 85 85 88 89 85 80 74 72 85 84 85 85 86 85 84 85 85 85 85 85 84 86 88
82 78 68 74 86 88 85 80 80 70 67 73 72 71 76 71 67 65 65 89 89 86 87 86 88 87 79 74 71 75 86 85 87 87 85 85 86 86 85 84 84 86 85 86
79 74 66 67 77 84 79 82 84 83 81 70 68 64 75 72 69 70 85 89 85 85 85 86 86 86 78 69 68 66 68 85 88 87 88 86 85 86 84 85 81 83 84 82
78 75 65 52 65 73 72 78 81 82 72 73 74 74 79 70 76 81 88 85 85 83 82 84 84 80 77 71 68 69 74 80 80 80 85 82 84 84 85 84 84 83 82 82
79 68 71 72 74 71 71 76 79 76 78 71 70 71 78 70 64 61 78 83 82 81 80 78 83 81 76 72 73 79 82 83 86 79 82 78 82 83 84 84 83 84 83 83
80 68 72 69 73 74 73 77 78 79 80 79 79 74 76 69 65 58 60 79 78 79 79 79 82 80 79 79 79 82 80 83 83 82 82 81 82 82 81 82 81 82 82 82
74 71 67 62 73 72 66 73 76 77 81 78 66 72 76 71 65 60 65 73 76 78 77 75 80 80 77 72 75 74 76 77 76 75 77 77 78 79 79 80 80 80 80 80
71 70 69 62 67 55 70 75 80 79 79 81 78 74 72 67 73 74 75 74 76 78 72 73 74 74 72 76 75 73 73 71 70 68 68 69 69 68 72 76 75 76 79 79
79 72 64 60 61 67 66 67 67 71 73 80 77 76 66 62 65 68 74 76 75 72 68 64 64 64 69 69 70 71 70 68 67 63 63 63 64 63 65 64 67 71 76 74
78 76 67 62 55 47 61 66 74 78 63 78 80 79 71 58 56 60 71 71 69 68 67 63 61 59 60 61 69 69 70 68 65 64 64 64 62 62 62 62 64 66 68 68
66 66 62 63 60 60 70 73 77 58 59 77 79 79 75 67 67 68 71 67 66 64 61 59 57 55 56 58 62 65 68 65 66 67 65 63 64 63 63 62 63 65 65 64
61 60 60 62 57 53 73 71 64 70 77 78 78 78 72 71 69 66 64 64 64 61 60 59 56 55 56 57 57 56 57 64 66 66 64 62 62 62 64 63 63 64 64 63
60 67 62 62 62 71 75 73 73 80 76 76 77 80 78 72 66 63 61 60 61 62 62 61 58 56 56 56 56 54 55 58 60 64 62 63 64 65 64 62 64 66 64 64
70 67 64 56 67 67 57 76 79 80 78 80 81 80 76 70 66 61 60 58 58 60 60 62 60 56 55 57 56 56 57 58 59 60 63 65 65 65 67 65 65 62 60 63
68 66 61 61 65 65 62 59 78 78 80 80 81 80 74 69 64 60 58 58 59 59 59 59 59 59 58 58 57 58 58 59 58 60 61 61 61 64 59 54 54 56 52 53
73 67 60 61 62 62 62 67 72 78 77 79 79 76 76 71 65 63 60 61 64 63 63 62 60 59 58 60 58 59 60 61 59 58 60 61 62 62 61 59 55 47 47 46